[[{"header":{"parameterUnit":"m.s-1","parameterCategory":1,"la1":30.6,"la2":28.766,"lo1":-90.7593,"lo2":-88.6598,"dy":0.0162,"dx":0.0183,"nx":116,"ny":114,"refTime":"2023-08-29T12:00:00:Z","depth":0,"parameterNumber":2,"parameterNumberName":"U-component_of_WINDS"},"data":[0.0,0.0,0.0,0.0,0.0,0.0,0.0,0.0,0.0,0.0,0.0,0.0,0.0,0.0,0.0,0.0,0.0,0.0,0.0,0.0,0.0,0.0,0.0,0.0,0.0,0.0,0.0,0.0,0.0,0.0,0.0,0.0,0.0,0.0,0.0,0.0,0.0,0.0,0.0,0.0,0.0,0.0,0.0,0.0,0.0,0.0,0.0,0.0,0.0,0.0,0.0,0.0,0.0,0.0,0.0,0.0,0.0,0.0,0.0,0.0,0.0,0.0,0.0,0.0,0.0,0.0,0.0,0.0,0.0,0.0,0.0,0.0,0.0,0.0,0.0,0.0,0.0,0.0,0.0,0.0,0.0,0.0,0.0,0.0,0.0,0.0,0.0,0.0,0.0,0.0,0.0,0.0,0.0,0.0,0.0,0.0,0.0,0.0,0.0,0.0,0.0,0.0,0.0,0.0,0.0,0.0,0.0,0.0,0.0,0.0,0.0,0.0,0.0,0.0,0.0,0.0,0.0,0.0,0.0,0.0,0.0,0.0,0.0,0.0,0.0,0.0,0.0,0.0,0.0,0.0,0.0,0.0,0.0,0.0,0.0,0.0,0.0,0.0,0.0,0.0,0.0,0.0,0.0,0.0,0.0,0.0,0.0,0.0,0.0,0.0,0.0,0.0,0.0,0.0,0.0,0.0,0.0,0.0,0.0,0.0,0.0,0.0,0.0,0.0,0.0,0.0,0.0,0.0,0.0,0.0,0.0,0.0,0.0,0.0,0.0,0.0,0.0,0.0,0.0,0.0,0.0,0.0,0.0,0.0,0.0,0.0,0.0,0.0,0.0,0.0,0.0,0.0,0.0,0.0,0.0,0.0,0.0,0.0,0.0,0.0,0.0,0.0,0.0,0.0,0.0,0.0,0.0,0.0,0.0,0.0,0.0,0.0,0.0,0.0,0.0,0.0,0.0,0.0,0.0,0.0,0.0,0.0,0.0,0.0,0.0,0.0,0.0,0.0,0.0,0.0,0.0,0.0,0.0,0.0,0.0,0.0,0.0,0.0,0.0,0.0,0.0,0.0,0.0,0.0,0.0,0.0,0.0,0.0,0.0,0.0,0.0,0.0,0.0,0.0,0.0,0.0,0.0,0.0,0.0,0.0,0.0,0.0,0.0,0.0,0.0,0.0,0.0,0.0,0.0,0.0,0.0,0.0,0.0,0.0,0.0,0.0,0.0,0.0,0.0,0.0,0.0,0.0,0.0,0.0,0.0,0.0,0.0,0.0,0.0,0.0,0.0,0.0,0.0,0.0,0.0,0.0,0.0,0.0,0.0,0.0,0.0,0.0,0.0,0.0,0.0,0.0,0.0,0.0,0.0,0.0,0.0,0.0,0.0,0.0,0.0,0.0,0.0,0.0,0.0,0.0,0.0,0.0,0.0,0.0,0.0,0.0,0.0,0.0,0.0,0.0,0.0,0.0,0.0,0.0,0.0,0.0,0.0,0.0,0.0,0.0,0.0,0.0,0.0,0.0,0.0,0.0,0.0,0.0,0.0,0.0,0.0,0.0,0.0,0.0,0.0,0.0,0.0,0.0,0.0,0.0,0.0,0.0,0.0,0.0,0.0,0.0,0.0,0.0,0.0,0.0,0.0,0.0,0.0,0.0,0.0,0.0,0.0,0.0,0.0,0.0,0.0,0.0,0.0,0.0,0.0,0.0,0.0,0.0,0.0,0.0,0.0,0.0,0.0,0.0,0.0,0.0,0.0,0.0,0.0,0.0,0.0,0.0,0.0,0.0,0.0,0.0,0.0,0.0,0.0,0.0,0.0,0.0,0.0,0.0,0.0,0.0,0.0,0.0,0.0,0.0,0.0,0.0,0.0,0.0,0.0,0.0,0.0,0.0,0.0,0.0,0.0,0.0,0.0,0.0,0.0,0.0,0.0,0.0,0.0,0.0,0.0,0.0,0.0,0.0,0.0,0.0,0.0,0.0,0.0,0.0,0.0,0.0,0.0,0.0,0.0,0.0,0.0,0.0,0.0,0.0,0.0,0.0,0.0,0.0,0.0,0.0,0.0,0.0,0.0,0.0,0.0,0.0,0.0,0.0,0.0,0.0,0.0,0.0,0.0,0.0,0.0,0.0,0.0,0.0,0.0,0.0,0.0,0.0,0.0,0.0,0.0,0.0,0.0,0.0,0.0,0.0,0.0,0.0,0.0,0.0,0.0,0.0,0.0,0.0,0.0,0.0,0.0,0.0,0.0,0.0,0.0,0.0,0.0,0.0,0.0,0.0,0.0,0.0,0.0,0.0,0.0,0.0,0.0,0.0,0.0,0.0,0.0,0.0,0.0,0.0,0.0,0.0,0.0,0.0,0.0,0.0,0.0,0.0,0.0,0.0,0.0,0.0,0.0,0.0,0.0,0.0,0.0,0.0,0.0,0.0,0.0,0.0,0.0,0.0,0.0,0.0,0.0,0.0,0.0,0.0,0.0,0.0,0.0,0.0,0.0,0.0,0.0,0.0,0.0,0.0,0.0,0.0,0.0,0.0,0.0,0.0,0.0,0.0,0.0,0.0,0.0,0.0,0.0,0.0,0.0,0.0,0.0,0.0,0.0,0.0,0.0,0.0,0.0,0.0,0.0,0.0,0.0,0.0,0.0,0.0,0.0,0.0,0.0,0.0,0.0,0.0,0.0,0.0,0.0,0.0,0.0,0.0,0.0,0.0,0.0,0.0,0.0,0.0,0.0,0.0,0.0,0.0,0.0,0.0,0.0,0.0,0.0,0.0,0.0,0.0,0.0,0.0,0.0,0.0,0.0,0.0,0.0,0.0,0.0,0.0,0.0,0.0,0.0,0.0,0.0,0.0,0.0,0.0,0.0,0.0,0.0,0.0,0.0,0.0,0.0,0.0,0.0,0.0,0.0,0.0,0.0,0.0,0.0,0.0,0.0,0.0,0.0,0.0,0.0,0.0,0.0,0.0,0.0,0.0,0.0,0.0,0.0,0.0,0.0,0.0,0.0,0.0,0.0,0.0,0.0,0.0,0.0,0.0,0.0,0.0,0.0,0.0,0.0,0.0,0.0,0.0,0.0,0.0,0.0,0.0,0.0,0.0,0.0,0.0,0.0,0.0,0.0,0.0,0.0,0.0,0.0,0.0,0.0,0.0,0.0,0.0,0.0,0.0,0.0,0.0,0.0,0.0,0.0,0.0,0.0,0.0,0.0,0.0,0.0,0.0,0.0,0.0,0.0,0.0,0.0,0.0,0.0,0.0,0.0,0.0,0.0,0.0,0.0,0.0,0.0,0.0,0.0,0.0,0.0,0.0,0.0,0.0,0.0,0.0,0.0,0.0,0.0,0.0,0.0,0.0,0.0,0.0,0.0,0.0,0.0,0.0,0.0,0.0,0.0,0.0,0.0,0.0,0.0,0.0,0.0,0.0,0.0,0.0,0.0,0.0,0.0,0.0,0.0,0.0,0.0,0.0,0.0,0.0,0.0,0.0,0.0,0.0,0.0,0.0,0.0,0.0,0.0,0.0,0.0,0.0,0.0,0.0,0.0,0.0,0.0,0.0,0.0,0.0,0.0,0.0,0.0,0.0,0.0,0.0,0.0,0.0,0.0,0.0,0.0,0.0,0.0,0.0,0.0,0.0,0.0,0.0,0.0,0.0,0.0,0.0,0.0,0.0,0.0,0.0,0.0,0.0,0.0,0.0,0.0,0.0,0.0,0.0,0.0,0.0,0.0,0.0,0.0,0.0,0.0,0.0,0.0,0.0,0.0,0.0,0.0,0.0,0.0,0.0,0.0,0.0,0.0,0.0,0.0,0.0,0.0,0.0,0.0,0.0,0.0,0.0,0.0,0.0,0.0,0.0,0.0,0.0,0.0,0.0,0.0,0.0,0.0,0.0,0.0,0.0,0.0,0.0,0.0,0.0,0.0,0.0,0.0,0.0,0.0,0.0,0.0,0.0,0.0,0.0,0.0,0.0,0.0,0.0,0.0,0.0,0.0,0.0,0.0,0.0,0.0,0.0,0.0,0.0,0.0,0.0,0.0,0.0,0.0,0.0,0.0,0.0,0.0,0.0,0.0,0.0,0.0,0.0,0.0,0.0,0.0,0.0,0.0,0.0,0.0,0.0,0.0,0.0,0.0,0.0,0.0,0.0,0.0,0.0,0.0,0.0,0.0,0.0,0.0,0.0,0.0,0.0,0.0,0.0,0.0,0.0,0.0,0.0,0.0,0.0,0.0,0.0,0.0,0.0,0.0,0.0,0.0,0.0,0.0,0.0,0.0,0.0,0.0,0.0,0.0,0.0,0.0,0.0,0.0,0.0,0.0,0.0,0.0,0.0,0.0,0.0,0.0,0.0,0.0,0.0,0.0,0.0,0.0,0.0,0.0,0.0,0.0,0.0,0.0,0.0,0.0,0.0,0.0,0.0,0.0,0.0,0.0,0.0,0.0,0.0,0.0,0.0,0.0,0.0,0.0,0.0,0.0,0.0,0.0,0.0,0.0,0.0,0.0,0.0,0.0,0.0,0.0,0.0,0.0,0.0,0.0,0.0,0.0,0.0,0.0,0.0,0.0,0.0,0.0,0.0,0.0,0.0,0.0,0.0,0.0,0.0,0.0,0.0,0.0,0.0,0.0,0.0,0.0,0.0,0.0,0.0,0.0,0.0,0.0,0.0,0.0,0.0,0.0,0.0,0.0,0.0,0.0,0.0,0.0,0.0,0.0,0.0,0.0,0.0,0.0,0.0,0.0,0.0,0.0,0.0,0.0,0.0,0.0,0.0,0.0,0.0,0.0,0.0,0.0,0.0,0.0,0.0,0.0,0.0,0.0,0.0,0.0,0.0,0.0,0.0,0.0,0.0,0.0,0.0,0.0,0.0,0.0,0.0,0.0,0.0,0.0,0.0,0.0,0.0,0.0,0.0,0.0,0.0,0.0,0.0,0.0,0.0,0.0,0.0,0.0,0.0,0.0,0.0,0.0,0.0,0.0,0.0,0.0,0.0,0.0,0.0,0.0,0.0,0.0,0.0,0.0,0.0,0.0,0.0,0.0,0.0,0.0,0.0,0.0,0.0,0.0,0.0,0.0,0.0,0.0,0.0,0.0,0.0,0.0,0.0,0.0,0.0,0.0,0.0,0.0,0.0,0.0,0.0,0.0,0.0,0.0,0.0,0.0,0.0,0.0,0.0,0.0,0.0,0.0,0.0,0.0,0.0,0.0,0.0,0.0,0.0,0.0,0.0,0.0,0.0,0.0,0.0,0.0,0.0,0.0,0.0,0.0,0.0,0.0,0.0,0.0,0.0,0.0,0.0,0.0,0.0,0.0,0.0,0.0,0.0,0.0,0.0,0.0,0.0,0.0,0.0,0.0,0.0,0.0,0.0,0.0,0.0,0.0,0.0,0.0,0.0,0.0,0.0,0.0,0.0,0.0,0.0,0.0,0.0,0.0,0.0,0.0,0.0,0.0,0.0,0.0,0.0,0.0,0.0,0.0,0.0,0.0,0.0,0.0,0.0,0.0,0.0,0.0,0.0,0.0,0.0,0.0,0.0,0.0,0.0,0.0,0.0,0.0,0.0,0.0,0.0,0.0,0.0,0.0,0.0,0.0,0.0,0.0,0.0,0.0,0.0,0.0,0.0,0.0,0.0,0.0,0.0,0.0,0.0,0.0,0.0,0.0,0.0,0.0,0.0,0.0,0.0,0.0,0.0,0.0,0.0,0.0,0.0,0.0,0.0,0.0,0.0,0.0,0.0,0.0,0.0,0.0,0.0,0.0,0.0,0.0,0.0,0.0,0.0,0.0,0.0,0.0,0.0,0.0,0.0,0.0,0.0,0.0,0.0,0.0,0.0,0.0,0.0,0.0,0.0,0.0,0.0,0.0,0.0,0.0,0.0,0.0,0.0,0.0,0.0,0.0,0.0,0.0,0.0,0.0,0.0,0.0,0.0,0.0,0.0,0.0,0.0,0.0,0.0,0.0,0.0,0.0,0.0,0.0,0.0,0.0,0.0,0.0,0.0,0.0,0.0,0.0,0.0,0.0,0.0,0.0,0.0,0.0,0.0,0.0,0.0,0.0,0.0,0.0,0.0,0.0,0.0,2.957,2.8059,0.0,0.0,0.0,0.0,0.0,0.0,0.0,0.0,0.0,0.0,0.0,0.0,0.0,0.0,0.0,0.0,0.0,0.0,0.0,0.0,0.0,0.0,0.0,0.0,0.0,0.0,0.0,0.0,0.0,0.0,0.0,0.0,0.0,0.0,0.0,0.0,0.0,2.419,2.4961,2.6093,2.7565,2.7815,2.8033,2.8213,0.0,0.0,0.0,0.0,0.0,0.0,0.0,0.0,0.0,0.0,0.0,0.0,0.0,0.0,0.0,0.0,0.0,0.0,0.0,0.0,0.0,0.0,0.0,0.0,0.0,0.0,0.0,0.0,0.0,0.0,0.0,0.0,0.0,0.0,0.0,0.0,0.0,0.0,0.0,0.0,0.0,0.0,0.0,0.0,0.0,0.0,0.0,0.0,0.0,0.0,0.0,0.0,0.0,0.0,0.0,0.0,0.0,0.0,0.0,0.0,0.0,0.0,0.0,0.0,0.0,0.0,0.0,0.0,0.0,0.0,3.2488,3.1138,0.0,0.0,0.0,0.0,0.0,0.0,0.0,0.0,0.0,0.0,0.0,0.0,0.0,0.0,0.0,0.0,0.0,0.0,0.0,0.0,0.0,0.0,0.0,2.2318,2.3272,2.3419,2.4043,2.4116,0.0,0.0,0.0,0.0,0.0,0.0,2.3015,2.3162,2.3657,2.4611,2.6585,2.8724,3.0912,3.2155,3.2313,3.1513,3.102,0.0,0.0,0.0,0.0,0.0,0.0,0.0,0.0,0.0,0.0,0.0,0.0,0.0,0.0,0.0,0.0,0.0,0.0,0.0,0.0,0.0,0.0,0.0,0.0,0.0,0.0,0.0,0.0,0.0,0.0,0.0,0.0,0.0,0.0,0.0,0.0,0.0,0.0,0.0,0.0,0.0,0.0,0.0,0.0,0.0,0.0,0.0,0.0,0.0,0.0,0.0,0.0,0.0,0.0,0.0,0.0,0.0,0.0,0.0,0.0,0.0,0.0,0.0,3.8872,3.9313,3.9974,3.9974,4.0377,4.0928,3.6743,3.5597,3.6499,3.3703,0.0,0.0,0.0,0.0,0.0,0.0,0.0,0.0,0.0,0.0,0.0,0.0,0.0,0.0,0.0,0.0,0.0,0.0,0.0,0.0,0.0,2.3492,2.43,2.5017,2.5201,2.5201,2.509,0.0,0.0,0.0,0.0,0.0,2.3015,2.3676,2.4737,2.6176,2.9719,3.2567,3.4767,3.5431,3.6576,3.7937,3.5439,3.4301,3.4234,0.0,0.0,0.0,0.0,0.0,0.0,0.0,0.0,0.0,0.0,0.0,0.0,0.0,0.0,0.0,0.0,0.0,0.0,0.0,0.0,0.0,0.0,0.0,0.0,0.0,0.0,0.0,0.0,0.0,0.0,0.0,0.0,0.0,0.0,0.0,0.0,0.0,0.0,0.0,0.0,0.0,2.8851,2.9769,0.0,0.0,0.0,0.0,0.0,0.0,0.0,0.0,0.0,0.0,0.0,0.0,0.0,3.8395,4.012,4.1625,4.2837,4.3754,4.4452,4.4856,4.4966,4.4966,4.5406,4.6104,4.4745,0.0,3.8285,3.7177,0.0,0.0,0.0,0.0,0.0,0.0,0.0,0.0,0.0,0.0,0.0,0.0,0.0,0.0,0.0,0.0,0.0,0.0,0.0,0.0,0.0,2.4924,2.6539,2.7346,2.8227,2.8191,2.6833,2.5658,0.0,0.0,0.0,2.2538,2.3015,2.4188,2.6826,3.0921,3.2859,3.5645,3.9106,3.9529,4.0604,4.2172,4.1174,3.9329,3.6905,3.559,0.0,0.0,0.0,0.0,0.0,0.0,0.0,0.0,0.0,0.0,0.0,0.0,0.0,0.0,0.0,0.0,0.0,0.0,0.0,0.0,0.0,0.0,0.0,0.0,0.0,0.0,0.0,0.0,0.0,0.0,0.0,0.0,0.0,0.0,0.0,0.0,0.0,0.0,0.0,2.8448,2.9989,3.076,3.1274,3.1384,0.0,0.0,0.0,0.0,0.0,0.0,0.0,0.0,0.0,3.9414,4.1089,4.2919,4.4967,4.6175,4.7421,4.8587,4.9032,4.9435,4.9793,4.9834,5.0017,5.0305,4.998,4.819,4.5077,4.1152,3.8615,3.7074,0.0,0.0,0.0,0.0,3.5091,3.5625,0.0,0.0,0.0,0.0,0.0,0.0,0.0,0.0,0.0,0.0,0.0,0.0,2.4373,2.742,2.9732,3.0797,3.1971,3.1604,2.9182,2.7897,2.6062,2.3419,2.2942,2.2905,2.329,2.5929,2.988,3.5202,3.6435,3.9049,4.2908,4.3463,4.435,4.5476,4.5946,4.3991,4.0156,3.8688,3.6551,3.402,0.0,0.0,0.0,0.0,0.0,0.0,0.0,0.0,0.0,0.0,0.0,0.0,0.0,0.0,0.0,0.0,0.0,0.0,0.0,0.0,0.0,0.0,0.0,0.0,0.0,0.0,0.0,0.0,0.0,0.0,0.0,0.0,0.0,0.0,0.0,0.0,0.0,3.0259,3.1847,3.3083,3.3689,3.3808,0.0,0.0,0.0,0.0,0.0,0.0,3.898,3.9974,4.1504,4.365,4.5326,4.7077,4.8774,4.9919,5.1012,5.2126,5.2397,5.2834,5.3326,5.3417,5.3417,5.3326,5.3417,5.2704,5.0988,4.5517,4.2543,4.1222,3.9239,3.8322,3.8175,3.8358,3.8866,3.9448,0.0,0.0,0.0,0.0,0.0,0.0,0.0,0.0,0.0,0.0,0.0,2.5254,2.8352,3.1568,3.4174,3.5789,3.6009,3.5018,3.2522,3.0149,2.7457,2.4263,2.4814,2.4831,2.4039,2.9755,3.4243,3.7362,4.0694,4.3442,4.566,4.6738,4.7545,4.8138,4.8745,4.7408,4.4555,4.1443,3.9282,3.7536,3.3168,0.0,0.0,0.0,0.0,0.0,0.0,0.0,0.0,0.0,0.0,0.0,0.0,0.0,0.0,0.0,0.0,0.0,0.0,0.0,0.0,0.0,0.0,0.0,0.0,0.0,0.0,0.0,0.0,0.0,0.0,0.0,0.0,0.0,0.0,0.0,0.0,0.0,0.0,3.7875,3.8008,0.0,0.0,0.0,0.0,3.8204,3.9641,4.1503,4.3833,4.5355,4.6871,4.8338,5.0009,5.0914,5.1058,5.2578,5.3411,5.3483,5.4291,5.4653,5.4689,5.4689,5.4689,5.4689,5.4689,5.4266,5.339,5.0309,4.7682,4.5516,4.4635,4.3828,4.3204,4.4011,4.4305,4.4452,0.0,0.0,0.0,0.0,0.0,0.0,0.0,0.0,2.0482,2.1674,2.408,2.6979,3.0173,3.4303,3.7497,3.9145,4.0178,3.9487,3.6529,3.357,3.0757,2.8054,2.6702,2.7268,2.9836,3.3784,3.7674,4.1481,4.3986,4.6256,4.8355,4.9008,4.9718,5.0345,5.043,4.9955,4.8795,4.5275,4.2121,3.9205,3.6684,3.368,0.0,0.0,0.0,0.0,0.0,0.0,0.0,0.0,0.0,0.0,0.0,0.0,0.0,0.0,0.0,0.0,0.0,0.0,0.0,0.0,0.0,0.0,0.0,0.0,0.0,0.0,0.0,0.0,0.0,0.0,0.0,0.0,0.0,0.0,0.0,0.0,0.0,4.0479,4.1397,0.0,4.1178,4.1681,4.2477,4.3312,4.4903,4.6813,4.9064,5.0031,5.1178,5.2564,5.4275,5.5097,5.4919,5.5723,5.6009,5.5793,5.5758,5.5651,5.5491,5.5704,5.5651,5.5526,5.5704,5.5343,5.4568,5.3845,5.2025,4.9618,4.8812,4.8046,4.7462,4.7755,4.7829,4.7792,0.0,0.0,0.0,0.0,0.0,0.0,0.0,0.0,2.1033,2.2428,2.5638,2.9318,3.335,3.7771,4.1138,4.2996,4.3831,4.2668,3.8858,3.5846,3.2907,2.9942,2.9057,3.07,3.5148,3.7987,4.1253,4.5053,4.6961,4.8747,5.0351,5.1031,5.1681,5.2225,5.2569,5.2469,5.1826,4.9086,4.5771,4.2151,3.9664,3.6673,3.3502,0.0,0.0,0.0,0.0,0.0,0.0,0.0,0.0,0.0,0.0,0.0,0.0,0.0,0.0,0.0,0.0,0.0,0.0,0.0,0.0,0.0,0.0,0.0,0.0,0.0,0.0,0.0,0.0,0.0,0.0,0.0,0.0,0.0,0.0,3.9094,4.2232,4.4258,4.5515,4.6195,4.5856,4.6621,4.7487,4.8253,4.9793,5.1464,5.3187,5.3833,5.4611,5.5658,5.6834,5.7306,5.7043,5.7058,5.6882,5.6645,5.6104,5.5751,5.5555,5.5751,5.5751,5.5613,5.5751,5.5603,5.5253,5.5562,5.4727,5.3225,5.2389,5.1748,5.1323,5.1073,5.1041,5.0858,0.0,0.0,0.0,0.0,0.0,0.0,1.9323,2.0005,2.1437,2.3933,2.7698,3.2328,3.7985,4.1977,4.5167,4.7404,4.685,4.4237,3.9372,3.6822,3.3768,2.9797,3.1862,3.5154,3.954,4.2321,4.5057,4.779,4.9658,5.0918,5.1575,5.2941,5.3585,5.3653,5.5074,5.4938,5.3518,5.2706,5.0304,4.665,4.2151,3.946,3.7861,0.0,0.0,0.0,0.0,0.0,0.0,0.0,0.0,0.0,0.0,0.0,0.0,0.0,0.0,0.0,0.0,0.0,0.0,0.0,0.0,0.0,0.0,0.0,0.0,0.0,0.0,0.0,0.0,0.0,0.0,0.0,0.0,0.0,3.9889,4.2955,4.627,4.9256,5.0378,5.1279,5.2197,5.2011,5.2087,5.2661,5.4063,5.5213,5.6064,5.6728,5.7173,5.7514,5.7451,5.7387,5.7295,5.646,5.6043,5.6008,5.5278,5.493,5.493,5.4896,5.4896,5.4896,5.4861,5.5044,5.5402,5.5402,5.5751,5.6169,5.5238,5.4822,5.4762,5.4096,5.3816,5.3608,0.0,0.0,0.0,0.0,0.0,0.0,1.9323,2.0519,2.2538,2.5548,2.9381,3.4162,4.03,4.3674,4.6205,4.7958,4.7114,4.4725,4.0597,3.7536,3.4906,3.2568,3.5717,3.9041,4.2253,4.5111,4.7596,4.9727,5.177,5.2836,5.2975,5.4397,5.5108,5.5108,5.5547,5.548,5.5074,5.4296,5.3382,5.2063,4.7564,4.4215,4.1798,0.0,0.0,0.0,0.0,0.0,0.0,0.0,0.0,0.0,0.0,0.0,0.0,0.0,0.0,0.0,0.0,0.0,0.0,0.0,0.0,0.0,0.0,0.0,0.0,0.0,0.0,0.0,0.0,0.0,0.0,0.0,4.1252,4.4256,4.3943,4.6916,5.0008,5.2422,5.3415,5.3952,5.4137,5.4444,5.4757,5.4878,5.5942,5.706,5.8258,5.8342,5.8871,6.0013,5.9495,5.9151,5.8977,5.7774,5.7086,5.6951,5.6329,5.5985,5.5818,5.54,5.5159,5.4995,5.4539,5.4425,5.4551,5.4799,5.4983,5.5189,5.5648,5.563,5.5296,5.513,5.4435,5.3505,0.0,0.0,0.0,0.0,0.0,0.0,1.9323,2.0719,2.3088,2.6585,3.0476,3.5254,4.1469,4.4324,4.63,4.7725,4.627,4.3711,4.0122,3.7241,3.5797,3.6103,3.9512,4.2819,4.5925,4.8518,5.0617,5.2316,5.3787,5.4465,5.4465,5.5649,5.6325,5.663,5.6968,5.7103,5.707,5.663,5.6258,5.575,5.3145,4.9729,4.6109,4.5173,4.2736,3.9691,3.9132,3.8047,3.6748,3.5779,0.0,0.0,0.0,0.0,0.0,0.0,0.0,0.0,0.0,0.0,0.0,0.0,0.0,0.0,0.0,0.0,0.0,0.0,0.0,0.0,0.0,0.0,0.0,0.0,4.5251,4.8478,5.016,5.1672,5.3299,5.5036,5.568,5.6245,5.6805,5.712,5.7431,5.7978,5.8459,5.9115,5.9909,5.9838,6.0075,6.0711,6.0374,5.9852,5.9327,5.828,5.7496,5.7119,5.6439,5.6099,5.5927,5.5315,5.4974,5.4873,5.4156,5.3946,5.4011,5.4205,5.4397,5.4586,0.0,0.0,0.0,0.0,5.4056,5.3255,0.0,0.0,0.0,0.0,0.0,0.0,1.9323,2.0719,2.3217,2.72,3.0929,3.558,4.1704,4.397,4.5552,4.6685,4.4466,4.1739,3.8663,3.6715,3.6981,3.9937,4.3099,4.6378,4.9864,5.1999,5.3613,5.4907,5.5516,5.5886,5.5987,5.6697,5.7442,5.8152,5.8829,5.9201,5.9268,5.9167,5.8795,5.8254,5.8186,5.5175,5.0574,4.9311,4.6961,4.4245,4.3712,4.2467,4.1062,4.0491,0.0,0.0,0.0,0.0,0.0,0.0,0.0,0.0,0.0,0.0,0.0,0.0,0.0,0.0,0.0,0.0,0.0,0.0,0.0,0.0,0.0,0.0,0.0,0.0,4.9317,5.2678,5.6657,5.6455,5.6334,5.7335,5.7569,5.818,5.9545,5.9536,5.9808,6.0823,6.0891,6.0926,6.1028,6.1028,0.0,0.0,0.0,6.0095,5.9268,5.8457,5.7679,5.7036,5.6325,5.5953,5.5919,5.5175,5.4803,5.4668,5.3957,5.3619,5.3651,5.3651,5.3815,5.4205,5.4676,5.4861,5.4748,5.3625,5.3104,5.2865,0.0,0.0,0.0,0.0,0.0,0.0,1.9323,2.0719,2.3217,2.7163,3.043,3.4686,4.0802,4.2432,4.3348,4.4049,4.225,4.0048,3.7524,3.8653,4.0451,4.2877,4.643,4.9513,5.1979,5.3581,5.4771,5.5513,5.6224,5.69,5.7476,5.822,5.8964,5.9674,5.981,6.025,6.0825,6.0148,6.0182,6.0588,5.9945,5.7645,5.4532,5.3653,5.1485,4.8775,4.803,4.6554,4.4661,4.3423,4.2071,4.0595,3.8181,3.6295,0.0,0.0,0.0,0.0,0.0,0.0,0.0,0.0,0.0,0.0,0.0,0.0,0.0,0.0,0.0,0.0,0.0,0.0,0.0,4.9209,5.3352,5.6641,5.7799,5.8943,5.9701,5.977,5.9798,5.9945,6.0251,6.0028,6.002,6.0231,6.0265,6.0536,6.1181,6.1215,6.1486,6.2019,6.1443,6.0994,6.0858,5.9471,5.8727,5.8592,5.7814,0.0,5.7442,5.6697,5.6055,5.5446,5.4702,5.4025,5.3551,5.3551,5.3551,5.3685,5.4303,5.4557,5.4413,5.3251,5.2844,5.2684,0.0,0.0,0.0,0.0,0.0,0.0,1.9323,2.0719,2.2905,2.6002,2.9011,3.2517,3.6895,3.8614,3.9648,4.0169,3.9221,3.8452,3.8078,4.0152,4.2853,4.6248,4.9236,5.1885,5.4127,5.5619,5.6667,5.7374,5.8084,5.8626,5.8998,5.9254,6.003,6.1076,6.092,6.1559,6.2603,6.2199,6.2266,6.2729,6.1953,6.0613,5.8863,5.6968,5.4871,5.2773,5.1657,5.0367,4.8904,4.7495,4.6317,4.5118,4.2702,4.0528,3.8363,0.0,0.0,0.0,0.0,0.0,0.0,0.0,0.0,0.0,0.0,0.0,0.0,0.0,0.0,4.2667,4.526,0.0,5.0838,5.358,5.651,5.8793,5.9979,6.0686,6.0944,6.045,6.0325,6.0401,6.0808,6.0766,6.0858,6.1231,6.1231,6.1434,6.1839,6.1839,6.2009,6.2381,6.2042,6.167,6.1298,6.0554,5.9776,5.9032,5.8626,5.8254,5.7848,5.7137,5.6596,5.619,5.5074,5.4397,5.4025,5.3653,5.3518,5.3518,5.3883,5.4045,5.3939,5.2647,5.2304,5.2299,0.0,0.0,0.0,0.0,0.0,0.0,0.0,2.0592,2.2356,2.4584,2.7186,2.9869,3.2546,3.4384,3.5614,3.6048,3.639,3.7246,3.887,4.161,4.506,4.9255,5.1691,5.3957,5.6089,5.7442,5.849,5.9235,5.981,6.025,6.0444,6.0247,6.0897,6.2307,6.2063,6.2716,6.3951,6.3733,6.3935,6.4287,6.3564,6.2906,6.2234,5.9498,5.7442,5.5716,5.4262,5.301,5.1894,5.0667,4.9678,4.8625,4.6942,4.4506,4.1684,3.8391,3.6435,0.0,0.0,0.0,0.0,0.0,0.0,0.0,0.0,3.9878,4.1969,4.2904,4.5245,4.7895,5.0533,5.2607,5.4882,5.7709,5.9039,6.0253,6.1821,6.1824,6.1427,6.0646,6.0528,6.0791,6.1467,6.1501,6.1772,6.2347,6.2381,6.2381,6.2381,6.2381,6.2381,6.2381,6.2381,6.211,6.1535,6.1366,6.0689,5.9438,5.9302,5.8829,5.8084,5.7509,5.707,5.6731,5.5243,5.46,5.4532,5.3788,5.3518,5.3518,5.3518,5.3551,5.3481,5.2316,5.1987,5.189,0.0,0.0,0.0,0.0,0.0,0.0,0.0,0.0,2.146,2.3749,2.5267,2.7209,3.0085,3.1426,3.229,3.2795,3.4607,3.6671,3.887,4.3572,4.7699,5.0845,5.3788,5.6055,5.7611,5.8457,5.9235,5.9979,6.0047,6.0714,6.1795,6.1555,6.2197,6.3282,6.2855,6.3231,6.4254,6.3297,6.3603,6.4634,6.4002,6.335,6.2595,6.1223,5.9017,5.6494,5.5006,5.3112,5.1217,5.0371,4.9187,4.7928,4.7131,4.5397,4.3168,4.0899,3.8416,3.6282,3.557,3.622,3.7542,3.9265,4.02,4.0909,0.0,4.4169,4.6748,4.8217,5.1315,5.4331,5.5943,5.7666,5.9125,5.9941,6.0905,6.1531,6.1578,6.1995,6.2053,6.1264,6.1738,6.2178,6.2245,6.2279,6.2313,6.2381,6.2381,6.2381,6.2381,6.2381,6.2381,6.2381,6.2381,6.2347,6.2279,6.1637,6.1231,6.1028,6.0317,5.9607,5.8896,5.8795,5.8051,5.6731,5.5243,5.46,5.4532,5.3788,5.3518,5.3518,5.3518,5.3518,5.3449,5.2734,5.2115,5.1498,0.0,0.0,0.0,0.0,0.0,0.0,0.0,0.0,0.0,2.2294,2.3558,2.4913,2.6381,2.7587,2.8699,2.9751,3.2713,3.58,3.8865,4.4393,4.9012,5.2202,5.5201,5.7257,5.8152,5.9732,6.0628,6.0772,6.1689,6.2264,6.2649,6.2345,6.2529,6.3275,6.2737,6.2945,6.3594,6.3302,6.3643,6.4383,6.3496,6.2861,6.2249,6.0077,5.749,5.4854,5.3515,5.1695,0.0,4.9024,4.8139,4.7293,4.7488,4.6078,4.3966,4.1767,3.9881,3.8521,3.855,3.9605,4.1079,4.2554,4.4127,4.5729,4.7257,4.9293,5.1435,5.3401,5.5378,5.7246,5.8695,6.018,6.1223,6.1212,6.218,6.277,6.213,6.1883,6.1637,6.1332,6.1163,6.1231,6.1704,6.1772,6.1941,6.2347,6.2381,6.2381,6.2381,6.2381,6.2381,6.2381,6.2381,6.2381,6.2381,6.2076,6.1704,6.1298,6.096,6.0385,5.9641,5.9201,5.822,5.6731,5.5683,5.5006,5.4532,5.3788,5.3518,5.3518,5.3518,5.3518,5.3416,5.267,5.199,5.1244,0.0,0.0,0.0,0.0,0.0,0.0,0.0,0.0,0.0,0.0,2.2174,2.3082,2.3955,2.4856,2.6021,2.7706,3.0962,3.4575,3.8588,4.4245,4.9114,5.2707,5.5866,5.7934,5.8764,6.0531,6.1467,6.1616,6.2676,6.3132,6.31,6.2656,6.262,6.2898,6.2364,6.2364,6.2712,6.2841,6.3324,6.3671,6.2841,6.2058,6.1094,5.8488,5.5364,5.2184,5.1397,4.9577,4.745,4.6625,4.5872,4.5365,4.5906,4.488,4.3192,4.1562,4.0568,4.017,4.0707,4.2391,4.4353,4.6114,4.824,5.0515,5.2606,5.424,5.5894,5.7763,5.8905,5.9737,6.0358,6.1559,6.2227,6.1797,6.2702,6.308,6.2178,6.1434,6.0825,6.0419,5.9674,5.9438,6.0013,6.0622,6.1264,6.2042,6.2076,6.2178,6.2381,6.2381,6.2381,6.2381,6.2381,6.2381,6.2381,6.2381,6.211,6.1603,6.1603,6.1061,6.008,5.9133,5.8118,5.7036,5.6122,5.5412,5.4837,5.389,5.3518,5.3518,5.3518,5.3518,5.345,5.2841,5.2029,5.115,0.0,0.0,0.0,0.0,0.0,0.0,0.0,0.0,0.0,0.0,0.0,0.0,0.0,2.3977,2.4856,2.7106,2.9317,3.274,3.7831,4.3008,4.7699,5.1866,5.542,5.8097,5.9778,6.0406,6.1205,6.232,6.2386,6.2566,6.2793,6.2514,6.2396,6.2288,6.1822,6.1652,6.152,6.1683,6.1953,6.2355,6.2427,6.1289,5.9185,5.7005,5.3081,4.8653,4.8757,4.6952,4.4226,4.2909,4.1982,4.1373,4.1407,4.0865,4.0257,4.0189,4.0238,4.0603,4.1601,4.4027,4.7024,5.0114,5.2502,5.4711,5.7017,5.8703,6.0081,6.0908,6.2105,6.2616,6.1208,6.1941,6.2421,6.1707,6.2063,6.2178,6.1434,6.0655,5.9607,5.8152,5.734,5.69,5.6934,5.8896,6.0486,6.1264,6.1332,6.1637,6.2347,6.2381,6.2381,6.2381,6.2381,6.2381,6.2381,6.2381,6.2381,6.2347,6.2347,6.1569,6.0047,5.8592,5.7915,5.778,5.6325,5.5716,5.5581,5.4093,5.3518,5.3518,5.3518,5.3518,5.3518,5.3484,5.2503,5.1217,0.0,0.0,0.0,0.0,0.0,0.0,0.0,0.0,0.0,0.0,0.0,0.0,0.0,0.0,0.0,0.0,2.7897,3.0942,3.4316,4.0383,4.5106,4.801,5.2497,5.5165,5.566,5.7658,5.8539,5.8293,5.9703,6.0227,6.0013,6.02,6.0156,5.998,5.9641,5.9338,5.9205,5.9439,5.9363,5.9301,5.8751,5.7222,5.49,5.232,4.8632,4.4554,0.0,4.0266,3.8958,3.8753,3.7787,3.7009,3.8531,3.8159,3.7313,3.8424,4.022,4.2414,4.5357,4.8333,5.1343,5.4322,5.6713,5.8757,6.0455,6.1238,6.1681,6.1953,6.1129,5.9973,5.8477,5.8948,5.9241,5.8569,5.9817,6.0791,6.0554,5.9438,5.8457,5.7949,5.6833,5.6089,5.6089,5.7645,5.8964,5.9742,6.0723,6.14,6.167,6.211,6.2381,6.2381,6.2381,6.2381,6.2381,6.2381,6.2381,6.2381,6.1907,6.0858,5.937,5.8863,5.8118,5.7103,5.6156,5.5446,5.4905,5.3923,5.3518,5.3518,5.3518,5.3518,5.3518,5.3518,5.2841,5.186,0.0,0.0,0.0,0.0,0.0,0.0,0.0,0.0,0.0,0.0,0.0,0.0,0.0,0.0,0.0,0.0,0.0,2.8973,3.176,3.6987,4.1257,4.4073,4.8462,5.0999,5.148,5.3423,5.4294,5.4088,5.5663,5.6304,5.6217,5.6714,5.6865,5.648,5.6414,5.6219,5.5925,5.6317,5.5958,5.5255,5.4348,5.2565,5.0137,4.7205,4.3848,0.0,3.692,3.4831,3.3795,3.4868,3.4506,3.4066,3.6062,3.6738,3.7009,3.8085,4.1239,4.5173,4.8753,5.2085,5.5315,5.8196,6.0231,6.1825,6.2888,6.299,6.255,6.1738,5.9776,5.7611,5.5581,5.5818,5.6156,5.5716,5.7712,5.9302,5.9302,5.849,5.778,5.7543,5.6461,5.5716,5.5716,5.6799,5.7814,5.8558,6.0013,6.0994,6.1298,6.2009,6.2381,6.2381,6.2381,6.2381,6.2381,6.2381,6.2245,6.1975,6.096,5.9979,5.8998,5.8457,5.7712,5.6731,5.575,5.504,5.4532,5.3788,5.3518,5.3518,5.3518,5.3518,5.3518,5.3518,5.2976,5.2198,0.0,0.0,0.0,0.0,0.0,0.0,0.0,0.0,0.0,0.0,0.0,0.0,0.0,0.0,0.0,0.0,0.0,0.0,3.011,3.3054,3.6367,4.0093,4.3337,4.5669,4.7065,4.7913,4.8765,4.9595,5.031,5.094,5.1308,5.2162,5.2325,5.1939,5.2088,5.1999,5.1819,5.2236,5.1642,5.0283,4.9353,4.7478,4.4827,4.1949,3.8875,3.5817,3.3479,3.0957,2.9147,3.1388,3.2307,3.2713,3.4303,3.684,3.9242,3.9411,4.3606,4.8849,5.1894,5.5412,5.893,6.1873,6.3159,6.3835,6.441,6.3903,6.2618,6.0317,5.7949,5.5378,5.2435,5.2503,5.301,5.3145,5.5649,5.7645,5.7746,5.7814,5.7577,5.69,5.619,5.5784,5.5784,5.6461,5.7205,5.7881,5.9268,6.0452,6.1264,6.2009,6.2381,6.2381,6.2381,6.2381,6.2347,6.2279,6.1907,6.1163,5.9708,5.8964,5.8863,5.7442,5.6765,5.6596,5.5209,5.4566,5.4465,5.3788,5.3518,5.3518,5.3518,5.3518,5.3518,5.3518,5.2976,5.2198,0.0,0.0,0.0,0.0,0.0,0.0,0.0,0.0,0.0,0.0,0.0,0.0,0.0,0.0,0.0,0.0,0.0,0.0,2.6462,2.9696,3.2372,3.4074,3.7385,3.9313,3.9634,4.1183,4.1826,4.148,4.3179,4.4202,4.4649,4.5479,4.6063,4.6444,4.6603,4.6603,4.6493,4.6158,4.5449,4.4569,4.3074,4.1158,3.9062,3.6781,3.4543,3.2438,3.0516,2.945,2.9124,3.0277,3.251,3.5216,3.7855,4.0358,4.2726,4.4993,4.8714,5.2976,5.7002,6.0452,6.3328,6.5222,6.5831,6.5595,6.414,6.1907,5.937,5.6562,5.2435,4.8781,4.6887,4.6244,4.6549,4.824,5.142,5.4329,5.6021,5.6731,5.7002,5.6833,5.663,5.6528,5.6528,5.7679,5.8524,5.8727,5.9573,6.0452,6.1264,6.2009,6.2381,6.2381,6.2381,6.2144,6.1603,6.0994,6.0317,5.9607,5.9201,5.8423,5.734,5.6968,5.619,5.5141,5.4769,5.4296,5.3788,5.3585,5.3518,5.3518,5.3518,5.3518,5.3518,5.3518,5.2976,5.2198,0.0,0.0,0.0,0.0,0.0,0.0,0.0,0.0,0.0,0.0,0.0,0.0,0.0,0.0,0.0,0.0,0.0,0.0,0.0,2.6588,2.8493,2.9504,3.2187,3.3514,3.3237,3.5036,3.5697,3.5056,3.6879,3.8054,3.8604,3.9482,4.0075,4.0484,4.0685,4.0751,4.072,4.0475,3.9629,0.0,0.0,3.5308,3.3387,3.1653,3.0488,2.9523,2.8297,2.8749,3.0412,3.3491,3.6299,3.9073,4.2083,4.4993,4.7767,5.0168,5.3721,5.7679,6.1129,6.4005,6.6237,6.7083,6.6812,6.5561,6.2685,5.9471,5.5953,5.1995,4.753,4.3876,4.2388,4.2049,4.2929,4.5838,4.9424,5.2739,5.5344,5.663,5.7273,5.7273,5.7577,5.778,5.778,5.8829,5.9565,5.9793,6.0198,6.0637,6.1076,6.166,6.1984,6.1984,6.1568,6.1031,6.0371,5.9785,5.9254,5.8849,5.8511,5.7769,5.6655,5.6246,5.5471,5.4428,5.4091,5.3788,5.3518,5.3518,5.3518,5.3518,5.3518,5.3518,5.345,5.3112,5.2706,5.2164,0.0,0.0,0.0,0.0,0.0,0.0,0.0,0.0,0.0,0.0,0.0,0.0,0.0,0.0,0.0,0.0,0.0,0.0,0.0,0.0,2.5145,2.6051,2.7703,2.8411,2.8003,2.9553,3.0212,2.9922,3.1338,3.2363,3.2971,3.3868,3.4324,3.4441,3.4654,3.4812,3.4812,3.4975,3.4023,3.2266,3.1388,3.0044,2.8371,0.0,2.6906,2.7052,2.6858,2.8817,3.2408,3.8396,4.1508,4.3504,4.7022,5.0608,5.3822,5.5446,5.8829,6.2482,6.4613,6.6609,6.803,6.7929,6.6643,6.4343,6.0283,5.6427,5.2198,4.6853,4.2794,3.9783,3.8497,3.887,4.0561,4.4215,4.8003,5.1522,5.4532,5.6393,5.7509,5.7712,5.8592,5.9167,5.9092,5.9836,6.0502,6.0942,6.0897,6.0897,6.0897,6.1179,6.1268,6.1168,6.0273,5.9544,5.894,5.8629,5.8488,5.8488,5.7816,5.7077,5.627,5.5453,5.4716,5.4051,5.3481,5.3348,5.3518,5.3518,5.3518,5.3518,5.3518,5.345,5.3281,5.257,5.2198,5.1826,0.0,0.0,0.0,0.0,0.0,0.0,0.0,0.0,0.0,0.0,1.9899,1.9491,0.0,0.0,0.0,0.0,0.0,0.0,0.0,0.0,0.0,2.3951,2.4644,2.4979,2.4705,2.5481,2.5853,2.5734,2.6541,2.7316,2.7953,2.8281,2.8753,2.9274,2.9475,2.9517,2.9452,2.8944,2.8451,2.8063,2.6788,2.6066,2.5706,2.508,0.0,0.0,2.6961,2.9935,3.3931,3.9918,4.3741,4.7056,5.3145,5.7205,6.0148,6.2245,6.4275,6.6203,6.7861,6.8605,6.8741,6.8064,6.5865,6.2415,5.6833,5.2198,4.7428,4.1542,3.7381,3.4675,3.4438,3.4979,3.6502,3.9648,4.3809,4.7699,5.0642,5.3416,5.5615,5.6833,5.8727,5.9836,5.9717,6.093,6.1581,6.1346,6.0937,6.0854,6.0986,6.087,6.0505,5.9712,5.8938,5.8297,5.778,5.7321,5.711,5.7263,5.7205,5.6363,5.5062,5.4928,5.4233,5.314,5.3177,5.3348,5.3518,5.3518,5.3518,5.3518,5.3518,5.3078,5.2503,5.2367,5.1522,5.0439,0.0,0.0,0.0,0.0,0.0,0.0,0.0,2.0597,2.0937,2.1377,2.0973,2.0473,2.0052,2.0299,2.0323,0.0,0.0,0.0,0.0,0.0,0.0,2.2915,2.3456,2.3441,2.2855,2.3885,2.4215,2.3753,0.0,2.5003,2.5365,2.5471,2.5704,2.6035,2.6142,2.6212,2.6212,2.5881,2.5514,2.5113,2.4476,2.3974,2.3636,2.3392,0.0,0.0,2.6421,2.9161,3.2611,3.8565,4.3098,4.7462,5.4566,5.9404,6.2753,6.4174,6.6203,6.8233,6.935,6.9654,6.9383,6.8199,6.5121,6.0791,5.4769,4.9052,4.3403,3.7773,3.3912,3.1719,3.2008,3.3363,3.5397,3.84,4.2706,4.6718,4.9661,5.2605,5.5002,5.6487,5.8051,5.9141,5.9499,6.0231,6.0754,6.0652,6.0259,6.0173,6.0482,5.9437,5.8365,5.7309,5.6809,5.6356,5.5895,5.5944,5.61,5.6336,5.6179,5.5501,5.4194,5.3934,5.3296,5.2449,5.252,5.2903,5.3348,5.3348,5.3416,5.3518,5.3518,5.301,5.2266,5.186,5.1048,5.0033,0.0,0.0,0.0,0.0,0.0,0.0,0.0,2.1155,2.1536,2.251,2.2534,2.2161,2.1447,2.0882,2.0173,0.0,0.0,0.0,0.0,0.0,0.0,0.0,0.0,0.0,2.2061,0.0,0.0,2.2842,2.341,0.0,0.0,0.0,0.0,0.0,2.39,2.393,2.3961,2.3988,2.368,0.0,0.0,2.2835,2.2327,0.0,0.0,0.0,0.0,2.7807,3.0717,3.6197,4.0899,4.5635,5.2131,5.8051,6.2821,6.4208,6.6508,6.8842,6.9891,7.006,6.9553,6.7827,6.3971,5.8896,5.257,4.6177,4.0003,3.4499,3.1227,2.9542,3.0034,3.206,3.4465,3.6956,4.1152,4.506,4.7943,5.0955,5.3513,5.5425,5.6829,5.8063,5.8767,5.9169,5.9441,5.9587,5.8959,5.8774,5.9217,5.7656,5.6148,5.5096,5.4925,5.4592,5.4157,5.48,5.5213,5.5377,5.5213,5.4535,5.3545,5.2989,5.245,5.1999,5.198,5.2449,5.311,5.3179,5.3348,5.3518,5.3518,5.301,5.2198,5.1488,5.0744,4.9965,0.0,0.0,0.0,0.0,0.0,0.0,0.0,2.1758,2.2694,2.4195,2.4256,2.4135,2.3988,2.1892,2.0173,0.0,0.0,0.0,0.0,0.0,0.0,0.0,0.0,0.0,0.0,0.0,0.0,2.2644,2.2575,0.0,0.0,0.0,0.0,0.0,0.0,2.2502,2.2502,2.2496,0.0,0.0,0.0,0.0,0.0,0.0,0.0,0.0,0.0,2.659,2.9668,3.3592,3.7449,4.1204,4.4621,5.2029,6.0114,6.3599,6.573,6.7489,6.962,6.9688,6.8673,6.644,6.2009,5.6292,4.8827,4.2989,3.736,3.1299,2.8748,2.7648,2.7711,2.9627,3.159,3.2614,3.6084,3.9598,4.2463,4.5764,4.9157,5.2279,5.4982,5.6836,5.7553,5.8247,5.8613,5.8423,5.6965,5.6248,5.6806,5.5596,5.4638,5.3867,5.3896,5.3706,5.3465,5.3695,5.4125,5.4497,5.4295,5.3883,5.3286,5.2617,5.2236,5.2118,5.2064,5.2378,5.2972,5.311,5.3348,5.3518,5.3518,5.301,5.2198,5.1488,5.0744,4.9965,0.0,0.0,0.0,0.0,0.0,0.0,2.1842,2.2223,2.2927,2.4467,2.4493,2.4022,2.2953,2.1909,2.096,2.0083,0.0,0.0,0.0,0.0,0.0,0.0,0.0,0.0,0.0,0.0,2.2721,2.2694,2.2649,0.0,0.0,0.0,0.0,0.0,0.0,2.2327,2.2327,2.2327,0.0,0.0,0.0,0.0,0.0,0.0,0.0,0.0,0.0,0.0,2.6759,3.0074,3.2747,3.5351,3.8802,4.347,4.9154,5.6968,6.1569,6.4749,6.7421,6.8267,6.7726,6.5053,6.0791,5.5277,4.768,4.1499,3.5874,3.0477,2.7849,2.6587,2.6902,2.8649,3.0316,3.1173,3.4644,3.8077,4.0422,4.4073,4.7367,4.9714,5.2062,5.3825,5.4781,5.5121,5.548,5.5907,5.4571,5.3922,5.411,5.3678,5.3216,5.2849,5.2548,5.249,5.2487,5.2726,5.2993,5.3346,5.3082,5.2709,5.2199,5.1599,5.1328,5.1359,5.1198,5.1475,5.2236,5.252,5.2764,5.2972,5.3179,5.2876,5.2134,5.1423,5.0744,4.9965,0.0,0.0,0.0,0.0,0.0,2.0661,2.2026,2.2334,2.2954,2.4451,2.453,2.3948,2.2751,2.213,2.1437,2.0576,1.9689,0.0,0.0,0.0,0.0,0.0,0.0,0.0,0.0,0.0,2.2768,2.2977,2.285,2.2694,0.0,0.0,2.2275,2.2017,0.0,0.0,0.0,0.0,0.0,0.0,0.0,0.0,0.0,0.0,0.0,0.0,0.0,0.0,0.0,0.0,0.0,3.0108,3.3423,3.5859,3.958,5.027,5.6427,6.0486,6.3903,6.5358,6.5358,6.2821,5.8457,5.2977,4.6035,3.9799,3.4196,2.9741,2.7257,2.5971,2.6346,2.7767,2.9098,2.9909,3.3076,3.6093,3.812,4.171,4.4867,4.6713,4.918,5.1104,5.2303,5.2869,5.3408,5.38,5.3028,5.2382,5.2201,5.2201,5.2107,5.1917,5.1656,5.1572,5.1849,5.2033,5.2215,5.2487,5.2215,5.1849,5.1386,5.08,5.0607,5.0668,5.05,5.08,5.1549,5.1842,5.2236,5.2449,5.28,5.2671,5.2236,5.1459,5.0815,5.027,0.0,0.0,0.0,0.0,0.0,0.0,2.1204,2.1919,2.2938,2.4393,2.4482,2.4376,2.4266,2.2775,2.1437,2.0576,1.9737,0.0,0.0,0.0,0.0,0.0,0.0,0.0,0.0,0.0,2.2516,2.3401,2.3126,2.2927,2.2773,2.2596,2.2051,2.1343,0.0,0.0,0.0,0.0,0.0,0.0,0.0,0.0,0.0,0.0,0.0,0.0,0.0,0.0,0.0,0.0,0.0,0.0,0.0,3.0074,3.3491,4.4722,5.0676,5.4566,5.8964,6.0757,6.0994,5.9438,5.4566,4.872,4.3295,3.7367,3.2031,2.8633,2.6749,2.5701,2.5701,2.6582,2.7566,2.8372,3.057,3.278,3.4665,3.7748,4.0691,4.2845,4.636,4.9072,5.0599,5.2489,5.329,5.2627,5.2377,5.1917,5.1259,5.1229,5.1229,5.1229,5.1229,5.1293,5.1572,5.1572,5.1787,5.2002,5.1787,5.1424,5.097,5.0479,5.0297,5.034,5.0264,5.057,5.1102,5.1327,5.1623,5.2059,5.2236,5.252,5.2702,5.1463,5.1088,5.095,0.0,0.0,0.0,0.0,0.0,0.0,0.0,2.1449,2.1871,2.2809,2.2858,2.2506,2.1852,2.125,2.0592,1.9748,1.946,0.0,0.0,0.0,0.0,0.0,0.0,0.0,0.0,0.0,2.2539,2.2761,2.3163,2.3199,2.2927,2.2721,2.2158,2.1309,2.1468,2.1109,0.0,0.0,0.0,0.0,0.0,0.0,2.1128,0.0,0.0,0.0,0.0,0.0,0.0,0.0,0.0,0.0,0.0,0.0,0.0,3.4844,4.1305,4.7462,5.1454,5.3788,5.4668,5.2672,4.9627,4.5544,3.9597,3.5124,3.1266,2.78,2.6314,2.5663,2.5513,2.6045,2.7135,2.8893,3.0749,3.2784,3.5102,3.8221,4.0655,4.1847,4.5632,4.8492,4.964,5.1118,5.1862,5.1623,5.1528,5.1439,5.1229,5.1229,5.1229,5.1229,5.1229,5.1229,5.1323,5.0873,5.0725,5.0725,5.0275,4.9945,4.9824,4.9546,4.9524,4.9589,4.9571,4.9661,4.99,5.0416,5.0647,5.0735,5.0921,5.1119,5.1272,5.0091,4.9759,4.9592,0.0,0.0,0.0,0.0,0.0,0.0,0.0,2.102,2.1255,2.1634,2.1823,2.1586,2.0678,2.0519,2.0189,1.9381,1.9292,0.0,0.0,0.0,0.0,0.0,0.0,0.0,2.097,2.1496,2.2057,2.2612,2.2934,2.327,2.3548,2.2989,2.2263,2.1353,2.1257,2.0602,0.0,0.0,0.0,0.0,0.0,0.0,2.0627,0.0,0.0,0.0,0.0,0.0,0.0,0.0,0.0,0.0,0.0,0.0,0.0,0.0,3.2882,3.8294,4.3741,4.6447,4.7361,4.5974,4.3741,4.0645,3.5946,3.2454,2.9515,2.6639,2.5979,2.5783,2.5306,2.6257,2.7504,2.882,3.0742,3.2595,3.4267,3.7182,4.004,4.2474,4.5685,4.8347,4.9914,5.075,5.1229,5.1229,5.1229,5.1229,5.1229,5.099,5.084,5.084,5.1079,5.1109,5.084,5.0451,5.0122,4.9883,4.9464,4.9134,4.8895,4.8829,4.8845,4.8797,4.8872,4.8934,0.0,4.9421,4.9584,4.9536,4.9597,4.9798,4.9838,4.9013,4.8758,4.8727,0.0,0.0,0.0,0.0,0.0,0.0,0.0,2.063,2.0954,2.0728,2.1316,2.1406,2.0519,2.0446,2.0115,1.936,0.0,0.0,0.0,0.0,0.0,0.0,0.0,0.0,2.0396,2.0403,2.117,2.27,2.2648,2.3227,2.4466,2.3431,2.247,2.1575,2.1309,2.0323,0.0,0.0,0.0,0.0,0.0,0.0,0.0,0.0,0.0,0.0,0.0,0.0,0.0,0.0,0.0,0.0,0.0,0.0,0.0,0.0,0.0,0.0,0.0,3.8633,3.9445,3.9445,3.7313,3.4597,3.2319,2.9547,0.0,2.5277,2.5642,2.5974,2.5142,2.6942,2.851,2.8384,3.0576,3.2334,3.262,3.5376,3.9265,4.4243,4.6562,4.8621,5.09,5.1139,5.1139,5.1139,5.1109,5.1079,5.1079,5.0511,5.0182,5.0182,5.075,5.078,5.0182,5.0122,4.9793,4.9194,4.9134,4.8805,4.8207,4.8471,4.8283,4.7964,4.8218,4.8355,4.8521,4.849,4.8337,4.823,4.8263,4.8441,4.8505,4.7949,4.7972,4.8152,0.0,0.0,0.0,0.0,0.0,0.0,0.0,0.0,0.0,0.0,2.0052,2.0026,1.9684,1.9715,1.9641,0.0,0.0,0.0,0.0,0.0,0.0,0.0,0.0,0.0,1.9601,2.0156,2.0948,2.1881,2.2962,2.3809,2.4438,2.4541,2.3777,2.2226,2.1521,2.0077,0.0,0.0,0.0,0.0,0.0,0.0,0.0,0.0,0.0,0.0,1.9555,1.9601,0.0,0.0,0.0,0.0,0.0,0.0,0.0,0.0,2.2767,2.3883,2.6387,0.0,3.3288,3.3288,3.2341,3.0915,0.0,2.733,2.5681,2.4547,2.5447,2.6182,2.5312,2.7047,2.8753,2.9085,3.1209,3.3145,3.4078,3.7779,4.172,4.5022,4.7171,4.8952,5.0301,5.0481,5.0481,5.0481,5.0002,4.9733,4.9733,4.9583,4.9494,4.9494,4.9643,4.9643,4.9494,4.8985,4.8686,4.8506,4.7997,4.7698,4.7549,4.7779,4.7774,4.7709,4.7964,4.7964,4.7849,4.7502,4.7363,4.7283,4.6528,4.6423,4.6479,4.5982,4.5845,4.5886,0.0,0.0,0.0,0.0,0.0,0.0,0.0,0.0,0.0,0.0,0.0,0.0,0.0,0.0,0.0,0.0,0.0,0.0,0.0,0.0,0.0,0.0,0.0,1.9323,1.9323,2.0079,2.0873,2.1661,2.3071,2.4226,2.5045,2.51,2.4434,2.3007,2.1097,1.945,0.0,0.0,0.0,0.0,1.8861,0.0,0.0,0.0,0.0,0.0,1.8918,1.8849,0.0,1.9416,1.9593,1.9529,0.0,0.0,0.0,0.0,2.1177,2.1955,2.2699,2.571,2.8619,2.8619,2.8349,2.7705,2.6489,2.5341,2.4298,2.3466,2.4775,2.595,2.5447,2.7724,2.9721,2.9847,3.2131,3.4494,3.6491,3.9763,4.2728,4.4749,4.6791,4.8325,4.9254,4.9344,4.9464,4.9763,4.9464,4.9254,4.9254,4.8985,4.8805,4.8805,4.8506,4.8506,4.8805,4.8476,4.8147,4.7848,4.7489,4.7309,4.7309,4.7396,4.7452,4.7452,4.7624,4.7387,4.7001,4.681,4.635,4.5879,4.5312,4.5139,4.5141,4.4847,4.4768,4.4843,0.0,0.0,0.0,0.0,0.0,0.0,0.0,0.0,0.0,0.0,0.0,0.0,0.0,0.0,0.0,0.0,0.0,0.0,0.0,0.0,0.0,0.0,1.9323,1.9323,1.9323,2.0099,2.0946,2.1844,2.3298,2.473,2.6064,2.5771,2.4896,2.3447,2.0582,1.8903,0.0,0.0,0.0,0.0,1.9053,0.0,0.0,0.0,0.0,0.0,0.0,0.0,0.0,1.8654,1.8788,1.8843,1.9461,0.0,0.0,0.0,0.0,0.0,2.1752,2.3579,2.5338,2.5541,2.5609,2.5439,2.4797,2.4086,2.3376,2.2767,2.4323,2.5778,2.5778,2.8538,3.0783,3.085,3.3421,3.6432,3.9425,4.1516,4.3296,4.4586,4.6352,4.7728,4.8386,4.8356,4.8506,4.9075,4.9015,4.8955,4.8955,4.8446,4.8147,4.8147,4.7608,4.7519,4.7967,4.8087,4.7848,4.7309,4.7309,4.7309,4.7396,4.7396,4.7396,4.7396,4.7276,4.6916,4.6292,4.6112,4.5417,4.4529,4.4439,4.4285,4.4112,4.4112,4.4205,4.4266,0.0,0.0,0.0,0.0,0.0,0.0,0.0,0.0,0.0,0.0,0.0,0.0,0.0,0.0,0.0,0.0,0.0,0.0,0.0,0.0,0.0,1.9323,1.9323,1.9323,1.9323,2.0067,2.1169,2.255,2.4513,2.6135,2.7321,2.7716,2.6018,2.2535,2.0916,1.9532,1.8403,0.0,0.0,0.0,1.9137,0.0,0.0,0.0,0.0,0.0,0.0,0.0,0.0,1.8063,1.8008,1.7997,1.8076,0.0,0.0,0.0,0.0,0.0,2.0137,2.2023,2.4052,2.5304,2.5609,2.5575,2.5473,2.4864,2.432,2.4218,2.5406,2.6522,2.6522,2.8874,3.1157,3.2264,3.559,3.9093,4.2138,4.3213,4.4508,4.6561,4.7608,4.8386,4.9045,4.8626,4.8327,4.8446,4.7908,4.7608,4.7608,4.7519,4.7459,4.7459,4.7369,4.71,4.6621,4.7189,4.7399,4.7309,4.7309,4.7396,4.7538,4.7538,4.7709,4.7849,4.7021,4.6605,4.6425,4.5147,4.4496,4.4257,4.3688,4.3498,4.3409,4.3409,4.3127,4.2664,0.0,0.0,0.0,0.0,0.0,0.0,0.0,0.0,0.0,0.0,0.0,0.0,0.0,0.0,0.0,0.0,0.0,0.0,0.0,0.0,1.939,1.9323,1.9711,1.9968,1.9968,2.1165,2.23,2.3304,2.5804,2.7225,2.7552,2.7213,2.5411,2.2385,2.1073,1.9778,1.8565,1.8824,1.9002,1.912,0.0,0.0,0.0,0.0,0.0,0.0,0.0,0.0,0.0,0.0,1.7816,1.7794,1.7794,0.0,0.0,0.0,0.0,0.0,2.0331,2.1989,2.3748,2.5236,2.5609,2.571,2.6116,2.5609,2.5203,2.5609,2.6556,2.7536,2.8275,3.0717,3.3662,3.697,3.9316,4.1502,4.3611,4.4493,4.5314,4.6117,4.6804,4.7339,4.7638,4.7399,4.7369,4.7728,4.7489,4.7309,4.7309,4.698,4.677,4.677,4.6411,4.6082,4.5783,4.6082,4.6411,4.677,4.677,4.7036,4.7624,4.7709,4.7964,4.8103,4.7319,4.675,4.6161,4.495,4.4188,4.3748,4.3449,4.3329,4.3299,4.294,4.2402,4.1803,0.0,0.0,0.0,0.0,0.0,0.0,0.0,0.0,0.0,0.0,0.0,0.0,0.0,0.0,0.0,0.0,0.0,0.0,0.0,0.0,1.939,1.9323,1.9879,2.0319,2.0486,2.2228,2.3515,2.428,2.6961,2.8041,2.758,2.623,2.4398,2.2219,2.0917,1.9773,1.8752,1.8931,1.912,1.9235,0.0,0.0,0.0,0.0,0.0,0.0,0.0,0.0,0.0,0.0,0.0,0.0,0.0,0.0,0.0,1.7794,1.82,1.8978,2.05,2.1887,2.3274,2.4932,2.5744,2.6319,2.7063,2.6928,2.686,2.7604,2.8213,2.8989,3.0191,3.3071,3.6621,4.0978,4.2533,4.365,4.4953,4.565,4.5958,4.5764,4.6237,4.6561,4.6561,4.6561,4.6711,4.704,4.707,4.701,4.683,4.6352,4.6082,4.6082,4.5574,4.5214,4.5065,4.5147,4.5477,4.6167,4.6167,4.6575,4.7395,4.7646,4.7895,4.8112,4.7272,4.6528,4.5768,4.475,4.3938,4.3329,4.315,4.3,4.2791,4.2132,4.1594,4.1115,0.0,0.0,0.0,0.0,0.0,0.0,0.0,0.0,0.0,0.0,0.0,0.0,0.0,0.0,0.0,0.0,0.0,0.0,0.0,0.0,1.9435,1.9323,1.935,1.9721,2.049,2.2681,2.4418,2.5683,2.7747,2.8476,2.7913,2.5703,2.3585,2.1515,2.0244,1.9326,1.8807,1.8998,1.9166,1.9282,1.9292,0.0,0.0,0.0,0.0,0.0,0.0,0.0,0.0,0.0,0.0,0.0,0.0,0.0,1.7794,1.7794,1.7862,1.82,1.9664,2.0703,2.1881,2.4049,2.6116,2.7875,2.8653,2.933,3.0006,3.0717,3.092,3.1151,3.184,3.556,3.9314,4.1667,4.3783,4.5579,4.6904,4.675,4.6659,4.71,4.7219,4.7249,4.7249,4.7249,4.701,4.6441,4.6381,4.6112,4.5484,4.5394,4.5364,4.5364,4.5334,4.5005,4.4377,4.4539,4.5031,4.5664,4.5664,4.6103,4.6964,4.6964,4.72,4.748,4.6485,4.5788,4.5306,4.4164,4.3548,4.3269,4.2671,4.2043,4.1444,4.0786,4.0516,4.0397,0.0,0.0,0.0,0.0,0.0,0.0,0.0,0.0,0.0,0.0,0.0,0.0,0.0,0.0,0.0,0.0,0.0,0.0,0.0,1.9545,1.9435,1.9323,1.979,2.0346,2.1043,2.2833,2.4428,2.576,2.7098,2.7597,2.73,2.5081,2.3179,2.1621,2.0371,1.9501,1.8983,1.917,1.9246,1.9292,1.9308,1.9209,0.0,0.0,0.0,0.0,0.0,0.0,0.0,0.0,1.7794,1.7794,1.7794,1.7794,1.7794,1.7794,1.7794,1.8109,1.9596,2.0602,2.1746,2.3947,2.615,2.8281,2.9973,3.1292,3.2645,3.4336,3.4553,3.479,3.5638,3.8492,4.1206,4.3035,4.5117,4.6622,4.722,4.7237,4.7087,4.6725,4.6701,4.6556,4.6082,4.6052,4.5963,4.5693,4.5693,4.5574,4.5304,4.4915,4.4676,4.4676,4.4287,4.4038,4.3878,4.4116,4.4521,4.5186,4.5428,4.6142,4.7247,4.7355,4.7586,4.7782,4.6711,4.5725,4.4803,4.37,4.2801,4.2102,4.1863,4.1354,4.0756,4.0487,3.9858,3.911,0.0,0.0,0.0,0.0,0.0,0.0,0.0,0.0,0.0,0.0,0.0,0.0,0.0,0.0,0.0,0.0,0.0,0.0,1.9606,1.9545,1.9435,1.9323,1.9811,2.0351,2.1005,2.2431,2.4076,2.5906,2.6653,2.6751,2.6175,2.4013,2.2453,2.1417,2.0109,1.9381,1.912,1.9235,1.9314,1.9323,1.9323,1.923,0.0,0.0,0.0,0.0,0.0,0.0,0.0,0.0,1.7794,1.7794,1.7794,1.7794,1.7794,1.7794,1.7794,1.8109,1.9596,2.0602,2.1813,2.4222,2.6522,2.8958,3.1901,3.3389,3.481,3.7313,3.7797,3.787,3.8275,4.0058,4.2005,4.3557,4.5175,4.6408,4.6741,4.6867,4.6625,4.6064,4.6003,4.5777,4.5334,4.5304,4.5214,4.5005,4.4975,4.4885,4.4676,4.4047,4.3688,4.3688,4.306,4.2809,4.3072,4.3563,4.4188,4.4756,4.5485,4.6272,4.7119,4.7374,4.7448,4.7489,4.635,4.5192,4.4096,4.3001,4.1836,4.0756,4.0516,4.0038,3.9439,3.9439,3.8871,3.8093,0.0,0.0,0.0,0.0,0.0,0.0,0.0,0.0,0.0,0.0,0.0,0.0,0.0,0.0,0.0,0.0,0.0,0.0,1.9609,1.9536,1.9435,1.9323,1.9162,1.9447,2.0155,2.1391,2.3428,2.6371,2.671,2.6077,2.455,2.2466,2.1191,2.0648,1.9372,1.8912,1.9134,1.9251,1.9314,1.9323,1.9323,1.9214,1.9087,0.0,0.0,0.0,0.0,0.0,0.0,0.0,1.7794,1.7794,1.7794,1.7794,1.7794,1.7794,1.7794,1.8109,1.9596,2.0602,2.1921,2.4864,2.73,3.0142,3.4607,3.5656,3.6502,3.9478,4.0333,4.0171,3.9117,4.0065,4.1501,4.2972,4.3769,4.4541,4.5569,4.5461,4.5309,4.5251,4.5289,4.5259,4.5244,4.5274,4.5005,4.4347,4.4287,4.3988,4.3359,4.2701,4.2419,4.2419,4.1713,4.146,4.1716,4.2921,4.3894,4.4441,4.5879,4.6582,4.6582,4.6582,4.6512,4.6237,4.5001,4.3998,4.3196,4.2122,4.0798,3.932,3.8631,3.7973,3.7404,3.7404,3.7404,3.7404,0.0,0.0,0.0,0.0,0.0,0.0,0.0,0.0,0.0,0.0,0.0,0.0,0.0,0.0,0.0,0.0,0.0,0.0,1.9686,1.9629,1.9493,1.939,1.923,1.9483,2.01,2.1697,2.3404,2.5257,2.4257,2.3551,2.3157,2.1566,2.0836,2.0866,2.0075,1.9849,1.9987,1.9506,1.9314,1.9323,1.9323,1.9214,1.9087,0.0,0.0,0.0,0.0,0.0,0.0,0.0,0.0,0.0,1.7794,1.7794,1.7794,1.7794,1.7794,1.8109,1.9596,2.0974,2.2699,2.5642,2.8078,3.0954,3.5419,3.7246,3.8738,4.1473,4.1966,4.1601,4.0669,4.1501,4.2428,4.2781,4.4085,4.4926,4.489,4.5131,4.5152,4.4619,4.4609,4.4409,4.3928,4.3509,4.315,4.297,4.2521,4.2162,4.1953,4.1773,4.176,4.1912,4.1731,4.191,4.2468,4.2973,4.3608,4.4409,4.5005,4.5662,4.6283,4.6147,4.5653,4.4797,4.3882,4.255,4.0811,3.8877,3.7937,3.7623,3.7275,3.7168,3.7297,3.7297,3.7067,3.6776,0.0,0.0,0.0,0.0,0.0,0.0,0.0,0.0,0.0,0.0,0.0,0.0,0.0,0.0,0.0,0.0,0.0,0.0,0.0,1.9697,1.9564,1.942,1.9246,1.9378,1.987,2.0894,2.1919,2.2986,2.2596,2.2146,2.1721,2.0904,2.0683,2.093,2.0364,2.021,2.0298,1.9616,1.9314,1.9308,1.9292,1.9235,1.907,0.0,0.0,0.0,0.0,0.0,0.0,0.0,0.0,0.0,1.7794,1.7997,1.8234,1.8234,1.8234,1.8572,2.0061,2.1786,2.3883,2.686,2.9533,3.2611,3.7077,3.9715,4.1538,4.2579,4.3057,4.2939,4.1628,4.1973,4.2568,4.2744,4.3559,4.4159,4.4116,4.4127,4.3988,4.3588,4.3307,4.3007,4.2623,4.2252,4.1983,4.1983,4.1354,4.0995,4.0995,4.0487,4.0261,4.051,4.0311,4.0517,4.1148,4.1741,4.241,4.3072,4.3557,4.3913,4.414,4.4948,4.4648,4.3373,4.1945,4.0344,3.8622,3.681,3.612,3.616,3.5758,3.5809,3.6114,3.6251,3.6149,3.6022,0.0,0.0,0.0,0.0,0.0,0.0,0.0,0.0,0.0,0.0,0.0,0.0,0.0,0.0,0.0,0.0,0.0,0.0,0.0,0.0,1.9609,1.9442,1.9193,1.9165,1.9381,1.9378,1.9648,2.0117,2.1437,2.1524,2.0418,2.0535,2.0753,2.0972,2.0432,2.0245,2.0336,1.9583,1.9298,1.9292,1.9298,1.9202,1.9053,1.8861,0.0,0.0,0.0,0.0,0.0,0.0,0.0,0.0,1.7794,1.8302,1.891,1.891,1.891,1.9249,2.0797,2.2863,2.5336,2.8349,3.1562,3.5081,3.9174,4.232,4.4103,4.3113,4.3694,4.3869,4.2075,4.192,4.2132,4.2683,4.2652,4.2682,4.309,4.2624,4.2337,4.2297,4.1756,4.1384,4.1411,4.1279,4.1205,4.1205,4.0546,4.0127,4.0127,3.896,3.8372,3.8611,3.8213,3.8213,3.8738,3.9879,4.0642,4.1052,4.1787,4.1755,4.099,4.3104,4.3384,4.1815,3.9313,3.7704,3.6663,3.5601,3.5062,3.4836,3.4163,3.407,3.4245,3.4647,3.4817,3.505,0.0,0.0,0.0,0.0,0.0,0.0,0.0,0.0,0.0,0.0,0.0,0.0,0.0,0.0,0.0,0.0,0.0,0.0,0.0,0.0,1.9726,1.955,1.9166,1.886,1.8633,1.9121,1.9182,1.8732,1.9522,2.0106,2.0558,2.0582,2.1055,2.1808,2.105,2.0876,2.0982,1.965,1.9084,1.913,1.915,1.9067,1.8931,1.877,1.8526,0.0,0.0,0.0,0.0,0.0,0.0,0.0,1.7794,1.8302,1.891,1.891,1.891,1.9249,2.0797,2.3241,2.6082,2.9127,3.4303,3.8903,3.9884,4.1403,4.2791,4.334,4.3416,4.3163,4.2315,4.1959,4.1842,4.191,4.1897,4.191,4.1824,4.1695,4.1655,4.1624,4.1498,4.1377,4.1407,4.0437,3.9828,3.9828,3.8721,3.8063,3.8063,3.7764,3.7781,3.8152,3.8238,3.8642,3.9314,3.9755,4.013,4.0498,4.0258,4.0039,3.9724,4.08,4.0341,3.8659,3.7097,3.5996,3.5123,3.3861,3.3254,3.3155,3.2874,3.2891,3.3015,3.3446,3.3456,3.3338,0.0,0.0,0.0,0.0,0.0,0.0,0.0,0.0,0.0,0.0,0.0,0.0,0.0,0.0,0.0,0.0,0.0,0.0,0.0,0.0,1.9713,1.9413,1.9064,1.8789,1.8502,1.8808,1.8808,1.8432,1.8766,1.9381,2.0223,2.0543,2.1183,2.2046,2.1269,2.1001,2.1059,1.9578,1.8983,1.8998,1.8998,1.8912,1.8807,1.8622,1.8408,1.8197,1.807,0.0,0.0,0.0,0.0,0.0,0.0,0.0,1.891,1.891,1.891,1.9316,2.1211,2.3613,2.6759,3.1562,3.6434,4.0087,4.002,4.1028,4.2088,4.2286,4.2327,4.2328,4.2208,4.1527,4.1036,4.1096,4.0845,4.0546,4.0487,4.0173,3.995,3.9974,3.9661,3.9493,3.9436,3.8852,3.84,3.8452,3.7524,3.6956,3.6956,3.6723,3.6743,3.7036,3.7394,3.7809,3.8369,3.8584,3.8705,3.8826,3.8401,3.7966,3.7523,3.8265,3.803,3.6866,3.528,3.4264,3.3548,3.2166,3.1498,3.1357,3.1216,3.128,3.1431,3.1848,3.1926,3.1961,0.0,0.0,0.0,0.0,0.0,0.0,0.0,0.0,0.0,0.0,0.0,0.0,0.0,0.0,0.0,0.0,0.0,0.0,0.0,0.0,0.0,1.9225,1.8998,1.8807,1.8616,1.8542,1.8545,1.8641,1.8908,1.9459,2.0261,2.0639,2.1311,2.2224,2.1264,2.085,2.0838,1.9432,1.8861,1.8861,1.8861,1.8789,1.8622,1.8428,1.8281,1.8147,1.7949,1.7839,1.7794,1.7794,0.0,0.0,0.0,0.0,1.891,1.891,1.891,1.935,2.1549,2.412,2.7672,3.3897,3.7483,3.958,3.9699,4.05,4.1133,4.0836,4.1048,4.1307,4.1408,4.0578,3.9847,3.9858,3.9433,3.9043,3.9047,3.8592,3.8228,3.824,3.7718,3.7393,3.7404,3.7297,3.7228,3.7255,3.6656,3.6327,3.6327,3.5954,3.5752,3.5973,3.6476,3.6846,3.715,3.7172,3.7109,3.693,3.6414,3.5827,3.5126,3.5734,3.5902,3.56,3.3665,3.2577,3.1942,3.0692,3.0019,2.9671,2.9671,2.9678,2.9685,3.009,3.027,3.0363,0.0,0.0,0.0,0.0,0.0,0.0,0.0,0.0,0.0,0.0,0.0,0.0,0.0,0.0,0.0,0.0,0.0,0.0,2.0088,0.0,0.0,1.9225,1.8998,1.8807,1.8616,1.8565,1.8641,1.8769,2.024,2.1339,2.2114,2.1149,2.1511,2.2818,2.1266,2.0582,2.0568,1.9155,1.86,1.8657,1.8657,1.8545,1.8408,1.8287,1.8142,1.8005,1.7905,1.7839,1.7794,1.7794,1.7794,0.0,0.0,0.0,1.891,1.891,1.891,1.9249,2.0873,2.4864,2.9533,3.3626,3.5926,3.755,3.8672,3.8772,3.8817,3.9593,4.0183,4.019,3.9339,3.8785,3.8287,3.7871,3.7704,3.7683,3.7647,3.7579,3.7526,3.7557,3.7473,3.7421,3.7398,3.6933,3.6626,3.6596,3.5998,3.5639,3.5639,3.5683,3.5752,3.5973,3.6476,3.6785,3.6999,3.6554,3.624,3.5913,3.4759,3.3968,3.3597,3.3216,3.3281,3.355,3.2264,3.1193,3.035,2.9671,2.9248,2.8821,2.8821,2.8412,2.7907,2.8579,2.8408,2.7893,0.0,0.0,0.0,0.0,0.0,0.0,0.0,0.0,0.0,0.0,0.0,0.0,0.0,0.0,0.0,2.0312,2.0257,2.0161,2.001,1.9775,1.9527,1.9256,1.9067,1.8861,1.8695,1.8714,1.8752,1.8861,2.0512,2.1682,2.2452,2.2658,2.3077,2.3632,2.233,2.1285,2.042,1.9464,1.8808,1.8388,1.8408,1.8348,1.8239,1.81,1.8048,1.7961,1.7861,1.7816,1.7794,1.7794,1.7794,1.7794,1.7794,0.0,0.0,0.0,1.8268,1.8785,2.1123,2.4873,2.877,3.1657,3.3547,3.5115,3.6752,3.6886,3.679,3.7261,3.7291,3.7518,3.8428,3.7877,3.7268,3.6963,3.6596,3.6178,3.5859,3.5769,3.5653,3.5262,3.5198,3.5198,3.5235,3.4991,3.4838,3.4801,3.4532,3.4382,3.4382,3.4602,3.4788,3.485,3.5337,3.5608,3.5608,3.5357,3.4809,3.3937,3.2885,3.2139,3.1655,3.091,3.1209,3.2282,3.0667,2.9531,2.8745,2.7575,2.6915,2.6671,2.6671,2.6473,2.6181,2.6631,2.6668,2.6565,0.0,0.0,0.0,0.0,0.0,0.0,0.0,0.0,0.0,0.0,0.0,0.0,0.0,0.0,0.0,0.0,2.0249,2.0116,1.9904,1.9701,1.9499,1.9292,1.9101,1.8967,1.8824,1.8824,1.8843,1.8877,2.0532,2.1678,2.2404,2.3696,2.4234,2.4069,2.3145,2.197,2.0563,1.9762,1.9022,1.8439,1.8274,1.8142,1.8048,1.8005,1.8041,1.8133,1.8121,1.8099,1.8099,1.8099,1.7963,1.7794,1.7794,1.7794,0.0,0.0,0.0,1.8593,2.0969,2.3773,2.6512,2.871,3.0242,3.1831,3.4112,3.4464,3.4443,3.4845,3.4572,3.4771,3.6475,3.6371,3.5864,3.5794,3.531,3.4831,3.4292,3.4115,3.3784,3.333,3.3063,3.3006,3.3006,3.3006,3.2976,3.2976,3.3006,3.3036,3.3036,3.3365,3.3543,3.3484,3.3863,3.3979,3.3894,3.3625,3.2877,3.1691,3.101,3.0368,2.9748,2.8905,2.92,3.0247,2.8721,2.7702,2.7131,2.5781,2.5192,2.5,2.5,2.4899,2.4849,2.5153,2.5368,2.5561,0.0,0.0,0.0,0.0,0.0,0.0,0.0,0.0,0.0,0.0,0.0,0.0,2.0312,2.0312,2.0312,2.0312,2.0255,2.0078,1.9813,1.9686,1.9471,1.9235,1.9137,0.0,1.8878,1.8896,1.8913,1.8877,2.0514,2.1621,2.2317,2.3682,2.4156,2.3888,2.302,2.2063,2.1053,1.9689,1.9087,1.8996,1.8278,1.7983,1.7905,1.7905,1.8302,1.8843,1.8843,1.8843,1.8843,1.8843,1.8369,1.7794,1.7794,1.7794,1.7794,0.0,0.0,0.0,1.9807,2.1072,2.2687,2.4879,2.5938,2.7321,3.0674,3.1167,3.1326,3.2929,3.278,3.2287,3.2182,3.3125,3.3909,3.3726,3.3634,3.3574,3.3544,3.3006,3.2587,3.2587,3.1959,3.1571,3.1629,3.1629,3.1629,3.1571,3.1745,3.1772,3.1772,3.2088,3.2231,3.2088,3.2257,3.2283,3.2114,3.1227,3.0317,2.9385,2.8993,2.8597,2.8139,2.7586,2.7078,2.6551,2.6339,2.5965,2.5435,2.5192,2.5,2.4833,2.4833,2.4506,2.4154,2.4693,2.4748,2.4708,0.0,0.0,0.0,0.0,0.0,0.0,0.0,0.0,0.0,0.0,0.0,0.0,0.0,2.0265,2.0257,2.0257,2.0098,1.9936,1.9738,1.9609,1.9456,1.9277,1.9219,1.9137,1.9034,1.9017,1.8983,1.8877,2.0438,2.1248,2.1375,2.2737,2.2989,2.2306,2.3,2.2515,2.1155,2.0211,1.9519,1.896,1.8211,1.8189,1.8585,1.907,1.9713,2.0458,2.0906,2.0467,1.9621,1.9621,1.8809,1.7794,1.7794,1.7794,1.7794,1.7794,1.8242,1.8784,1.8951,1.9926,2.1133,2.2216,2.2994,2.4191,2.6647,2.7134,2.7402,2.8545,2.8891,2.888,2.8523,3.0603,3.2317,3.2228,3.2228,3.2078,3.1629,3.136,3.0911,3.0103,3.0163,3.0103,2.9684,3.0043,3.0283,3.0283,3.0393,3.0503,3.0552,3.0853,3.1044,3.0991,3.0584,2.9999,2.9102,2.8077,2.7319,2.6688,2.6045,2.5424,2.4832,2.4531,2.4086,2.3519,2.3347,2.379,2.4518,2.4064,2.3789,2.3691,2.3691,2.3689,2.3695,2.4209,2.4606,2.4991,0.0,0.0,0.0,0.0,0.0,0.0,0.0,0.0,0.0,2.0312,0.0,0.0,0.0,0.0,2.0178,2.0087,1.9952,1.9797,1.9662,1.9555,1.9442,1.9308,1.9266,1.9219,1.915,1.912,1.9017,1.8877,1.9805,2.0265,2.039,2.1242,2.1418,2.1037,2.2063,2.1907,2.0763,2.0331,1.9685,1.8924,1.8438,1.8517,1.8978,1.9697,2.067,2.1617,2.2124,2.1623,2.0779,2.0779,1.9621,1.8166,1.8166,1.7974,1.7749,1.7726,1.797,1.8227,1.8104,1.8588,1.9248,1.9716,2.0194,2.105,2.3028,2.3463,2.3826,2.5006,2.5679,2.6046,2.5931,2.7919,2.9684,3.0133,3.0193,3.0043,2.9594,2.9325,2.8876,2.8038,2.8098,2.8068,2.7649,2.806,2.8299,2.8299,2.8556,2.8708,2.8778,2.9027,2.9126,2.8928,2.84,2.7648,2.6633,2.5842,2.5207,2.4667,2.404,2.3434,2.2884,2.2671,2.2348,2.1882,2.1746,2.2325,2.328,2.2783,2.2573,2.2573,2.2573,2.2657,2.289,2.3384,2.4027,2.486,0.0,0.0,0.0,0.0,0.0,0.0,0.0,0.0,2.0312,2.0312,0.0,0.0,0.0,0.0,0.0,1.9899,1.9832,1.9726,1.9615,1.9536,1.9464,1.9298,1.9282,1.9266,1.9219,1.9137,1.9017,1.8877,1.8643,1.8818,1.9456,1.9245,1.9497,2.0127,2.0127,2.0077,1.9934,1.9968,1.9587,1.891,1.891,1.891,1.9046,1.9765,2.1015,2.2395,2.2395,2.2395,2.2361,2.2361,2.0839,1.891,1.8877,1.8346,1.767,1.7635,1.7519,1.7377,0.0,0.0,0.0,1.7452,1.7439,1.785,1.9831,2.0193,2.064,2.2513,2.3334,2.3859,2.4388,2.5046,2.5914,2.72,2.752,2.755,2.755,2.6961,2.6542,2.6542,2.5974,2.5615,2.5585,2.5708,2.5831,2.5831,2.6259,2.6483,2.6528,2.6717,2.6598,2.6077,2.5741,2.5319,2.4839,2.4566,2.4069,2.343,2.3146,2.2777,2.2322,2.2187,2.1915,2.1614,2.1614,2.1584,2.1418,2.1468,2.1493,2.1493,2.1493,2.1605,2.1746,2.2239,2.3124,2.4258,0.0,0.0,0.0,0.0,0.0,0.0,2.0312,2.0312,2.0312,0.0,0.0,0.0,2.0186,2.0098,1.9979,1.9849,1.9788,1.9636,1.9471,1.945,1.9405,1.9308,1.9292,1.9292,1.9277,1.9166,1.9051,1.8877,1.8641,1.8528,1.8564,1.8356,1.8348,1.8494,1.9002,1.8934,1.8447,1.8978,1.9384,1.963,1.9113,1.9553,2.0636,2.138,2.2598,2.3951,2.4492,2.4357,2.3883,2.3883,2.2023,1.9495,1.839,1.7872,0.0,1.7566,1.7439,1.7272,1.7052,0.0,0.0,0.0,0.0,0.0,1.7638,1.8246,1.8885,1.9849,2.0895,2.1663,2.1754,2.2323,2.2892,2.3251,2.4926,2.6153,2.6153,2.6004,2.5704,2.5226,2.5482,2.5574,2.5047,2.5621,2.6032,2.6032,2.6439,2.6748,2.6879,2.6891,2.6541,2.5666,2.5093,2.4338,2.3334,2.2724,2.2144,2.1676,2.1297,2.0991,2.0629,2.0246,1.9915,1.9762,1.9762,1.971,1.9811,2.0991,2.1493,2.1493,2.1493,2.1635,2.1911,2.2348,2.3071,2.3993,0.0,0.0,0.0,0.0,0.0,2.0427,2.0735,2.0804,2.0949,0.0,0.0,0.0,2.1138,2.1009,2.0879,2.0736,2.0653,2.0567,2.0409,2.0415,2.0236,1.9822,1.9785,1.9638,1.9323,1.9166,1.9034,1.8877,1.8584,1.8342,1.819,1.7983,1.7816,1.7828,1.8268,0.0,1.7828,1.8268,1.8877,1.9553,1.9418,2.0094,2.1305,2.2023,2.3038,2.412,2.4864,2.4864,2.4557,2.4864,2.2941,2.0119,1.8195,1.7532,1.7472,1.7377,1.7256,1.7052,1.6825,1.6591,1.6382,1.6108,0.0,0.0,1.6367,1.697,1.7633,1.8263,1.9191,2.0055,2.0617,2.1036,2.1365,2.1635,2.2981,2.4059,2.4358,2.4388,2.4238,2.3849,2.3996,2.4113,2.4036,2.4658,2.5167,2.5543,2.6042,2.6331,2.6422,2.629,2.5853,2.5113,2.4398,2.3599,2.2603,2.1657,2.0934,2.0501,1.9876,1.943,1.9257,1.8929,1.8729,1.8681,1.8681,1.8807,1.9058,2.0062,2.0589,2.079,2.079,2.0952,2.1247,2.1668,2.2525,2.3653,0.0,0.0,2.0312,2.0312,2.0381,2.065,2.138,2.1594,2.1922,0.0,2.2699,2.2604,2.2401,2.2257,2.2129,2.1987,2.1946,2.1865,2.1799,2.1799,2.1451,2.0703,2.0539,2.0189,1.9455,1.9223,1.9017,1.8877,1.8491,1.8246,1.819,1.7939,1.7794,1.7794,1.7794,0.0,1.7828,1.7896,1.8403,1.9215,1.9891,2.0703,2.1644,2.2293,2.3004,2.3714,2.4391,2.4661,2.4797,2.5171,2.3456,2.078,1.8443,1.75,1.7281,1.7264,1.7055,1.6753,1.6623,1.6436,1.6219,1.6024,1.5942,0.0,1.5799,1.6278,1.6876,1.7473,1.81,1.8972,2.0168,2.0378,2.0587,2.1156,2.1365,2.1724,2.2473,2.2604,2.2604,2.2604,2.2144,2.2143,2.2869,2.3249,2.3772,2.4532,2.5099,2.5436,2.5509,2.5137,2.4713,2.4306,2.3583,2.2937,2.2312,2.1093,2.0247,1.9703,1.8832,1.8393,1.8251,1.8176,1.815,1.8103,1.8103,1.838,1.8857,1.8933,1.9334,1.9811,1.9811,1.9965,2.0271,2.0696,2.1806,2.3169,0.0,2.0312,2.0312,2.0312,2.0834,2.1317,2.147,2.2048,2.2498,2.263,2.2509,2.2363,2.2164,2.2077,2.2024,2.1935,2.1849,2.1799,2.1801,2.1784,2.1711,2.1547,2.0886,2.0429,2.0246,1.9514,1.9017,1.8877,1.8491,1.8246,1.819,1.7939,1.7794,1.7794,1.7794,1.7794,1.7862,1.8437,1.9486,2.0763,2.0906,2.2152,2.3879,2.4049,2.4526,2.5203,2.5338,2.5713,2.5916,2.4171,2.2772,2.1454,1.9657,1.8182,1.7156,1.7609,1.7226,1.6596,1.6409,1.6246,1.608,1.597,1.5856,0.0,1.5799,1.6278,1.6756,1.6876,1.7413,1.7984,1.822,1.828,1.831,1.8459,1.939,2.0498,2.1724,2.1904,2.1914,2.1994,2.2,2.2164,2.2471,2.2879,2.3169,2.3406,2.387,2.4146,2.418,2.3905,2.3515,2.2992,2.2303,2.1657,2.1055,2.0246,1.961,1.9245,1.8838,1.8554,1.8414,1.8093,1.7817,1.7637,1.7637,1.7667,1.7777,1.8656,1.9334,1.9811,1.9914,2.0118,2.0472,2.1166,2.201,2.2975,2.0312,2.0312,2.0312,2.0312,2.0979,2.1653,2.2019,2.2745,2.3366,2.3762,2.3636,2.3416,2.3279,2.3182,2.3135,2.3049,2.3033,2.3015,2.2978,2.2978,2.2832,2.2428,2.1987,2.1346,2.0523,1.9987,1.9433,1.8843,1.8487,1.8246,1.8134,1.7917,1.7794,1.7794,1.7794,1.7997,1.8369,1.8741,1.9993,2.1752,2.1752,2.2835,2.4523,2.4523,2.4729,2.5101,2.5441,2.5916,2.6149,2.4148,2.3157,2.2437,2.0391,1.9119,1.825,1.7789,1.7274,1.6735,1.6283,1.6052,1.597,1.5856,1.5827,0.0,0.0,1.6278,1.6726,1.6726,1.6965,1.7294,1.7623,1.7413,1.7324,1.7652,1.8553,1.942,2.0109,2.0767,2.1225,2.1272,2.1159,2.1357,2.1989,2.2378,2.2887,2.3586,2.3852,2.3951,2.3918,2.3585,2.317,2.2623,2.1948,2.1315,2.0768,1.9822,1.9212,1.8879,1.8368,1.8061,1.7991,1.7748,1.7531,1.7359,1.7273,1.7364,1.7581,1.8118,1.8697,1.9279,1.9864,2.0271,2.067,2.1104,2.1999,2.3098,2.0304,2.0312,2.035,2.0504,2.1201,2.2019,2.2824,2.366,2.4498,2.5277,2.5308,2.5201,2.5078,2.5134,2.5225,2.513,2.5127,2.4997,2.4667,2.4667,2.43,2.3492,2.3143,2.2429,2.1185,2.0571,1.9867,1.9002,1.8518,1.8225,1.8091,1.7883,1.7794,1.7794,1.7794,1.82,1.891,1.9215,2.05,2.2327,2.2632,2.3444,2.4523,2.4523,2.4591,2.4797,2.5412,2.5815,2.5775,2.4213,2.3553,2.3029,2.099,2.0035,1.9406,1.8127,1.7452,1.6967,1.6207,1.5998,1.5942,1.5885,1.5885,1.5885,0.0,0.0,0.0,1.6548,1.6548,1.6727,1.7266,1.6876,1.6697,1.7266,1.7894,1.8313,1.8313,1.9361,2.0265,2.0617,2.0381,2.0508,2.145,2.1759,2.2377,2.3508,2.3572,2.3543,2.3386,2.3162,2.2788,2.2254,2.166,2.105,2.0489,1.9514,1.8893,1.8617,1.799,1.7666,1.7652,1.7611,1.7529,1.7323,1.7199,1.7333,1.7643,1.7746,1.817,1.8754,1.9649,2.0234,2.0593,2.0809,2.1771,2.3059,2.0296,2.0312,2.0504,2.1235,2.2019,2.2842,2.3662,2.4891,2.5979,2.6618,2.7249,2.7594,2.749,2.8154,2.8515,2.8448,2.8448,2.786,2.6429,2.6319,2.5952,2.5164,2.3711,2.3142,2.3578,2.1314,2.0027,1.9802,1.8723,1.8163,1.8091,1.7883,1.7794,1.7794,1.7794,1.82,1.8978,2.0357,2.1448,2.2429,2.3714,2.4354,2.4523,2.4523,2.4898,2.5542,2.5947,2.5605,2.4802,2.374,2.282,2.2104,2.1748,2.063,1.9466,1.9182,1.8161,1.7025,1.6207,1.6052,1.6166,1.6083,1.6111,1.6139,1.6083,0.0,1.6118,1.6005,0.0,1.6006,1.6008,0.0,0.0,1.6008,1.6548,1.6936,1.6936,1.7597,1.8597,1.994,2.025,2.0527,2.0955,2.0917,2.1031,2.1317,2.1378,2.1295,2.1188,2.1516,2.1504,2.1015,2.0539,1.9978,1.9388,1.9027,1.8652,1.8337,1.8372,1.8293,1.8123,1.8293,1.8147,1.7707,1.7625,1.7556,1.7455,1.7955,1.8305,1.8585,1.9054,1.9474,1.9915,2.0614,2.1484,2.2432,2.0429,2.0255,2.0514,2.1301,2.2095,2.2871,2.365,2.4949,2.589,2.606,2.6757,2.7564,2.8433,2.8838,2.9425,3.032,3.0393,2.9916,2.8778,2.7824,2.6943,2.6135,2.4498,2.3468,2.3188,2.203,2.084,1.9673,1.9121,1.8547,1.8005,1.828,1.8437,1.8471,1.891,1.9519,2.0264,2.0933,2.1617,2.2333,2.2912,2.3388,2.3731,2.4262,2.4807,2.538,2.5834,2.5386,2.4479,2.4244,2.3644,2.2928,2.2705,2.2014,2.1078,2.0169,1.8869,1.773,1.7483,1.7142,1.6892,1.6833,1.6892,1.6769,1.6286,1.6166,1.6139,1.6055,0.0,0.0,0.0,0.0,0.0,0.0,1.6398,1.6818,1.6879,1.7483,1.8152,1.8827,1.9117,1.9468,2.0046,2.0157,2.0237,2.0396,2.08,2.0921,2.0761,2.1253,2.134,2.0861,2.0462,2.0015,1.9479,1.9288,1.9026,1.8731,1.8836,1.8798,1.8721,1.876,1.8539,1.8266,1.8187,1.8028,1.7882,1.8085,1.829,1.8521,1.881,1.9447,2.0288,2.0564,2.14,2.2592,2.0961,2.0794,2.1081,2.1901,2.2456,2.3196,2.4383,2.5738,2.6765,2.7064,2.8404,2.9779,3.087,3.1384,3.2155,3.3293,3.3183,3.2632,3.1604,3.0026,2.8778,2.797,2.6051,2.4668,2.394,2.3077,2.1817,2.0114,1.9739,1.9178,1.8495,1.8968,1.9215,1.9215,1.9553,2.0162,2.0873,2.0873,2.1414,2.2299,2.2445,2.2802,2.3381,2.4242,2.478,2.5107,2.5619,2.513,2.4212,2.4375,2.399,2.3437,2.331,2.308,2.2537,2.1321,2.0146,1.9248,1.9124,1.8652,1.8145,1.7896,1.7707,1.7393,1.6565,1.6382,1.6355,1.6219,1.6191,0.0,0.0,0.0,1.5942,1.5942,0.0,1.6697,1.6756,1.7212,1.767,1.8099,1.8408,1.8795,1.9449,1.9491,1.9521,1.9622,2.0269,2.0525,2.0163,2.1085,2.1336,2.0735,2.0569,2.0292,1.9839,1.9617,1.9398,1.9213,1.9213,1.9213,1.9176,1.9101,1.8988,1.8798,1.8693,1.8567,1.8372,1.8372,1.8528,1.8731,1.8921,1.9614,2.0487,2.049,2.1239,2.2417,2.2178,2.23,2.2699,2.3574,2.3651,2.4317,2.6451,2.81,2.9584,3.1005,3.399,3.6009,3.6046,3.7477,3.8395,3.8469,3.7734,3.6597,3.4954,3.334,3.2082,3.1274,2.8761,2.7344,2.726,2.4563,2.2705,2.1718,2.0666,2.0118,2.0025,2.0018,1.9968,1.9934,1.9249,1.935,2.0035,2.0035,2.0914,2.2333,2.2984,2.3445,2.3852,2.4645,2.4942,2.497,2.5436,2.4874,2.3891,2.3608,2.3341,2.3151,2.3262,2.3429,2.3429,2.2817,2.2311,2.1821,2.1021,2.0478,1.9922,1.9215,1.8566,1.7882,1.7062,1.6876,1.6799,1.6538,1.6485,1.6409,1.6136,1.6111,1.6052,1.5996,1.6055,0.0,0.0,1.6253,1.6802,1.8038,1.8647,1.9111,1.9476,1.8974,1.8643,1.8741,1.942,1.9495,1.8718,2.061,2.1229,2.0243,2.0607,2.0597,2.0189,1.9914,1.9696,1.9574,1.9574,1.9538,1.9391,1.9538,1.9465,1.925,1.9139,1.8988,1.8874,1.8874,1.8997,1.9221,1.9406,1.9797,2.022,2.0292,2.073,2.163,2.3673,2.3699,2.3686,2.352,2.3439,2.4137,2.643,2.9008,3.1078,3.2045,3.5055,3.7477,3.8579,3.9643,4.0524,4.1038,4.0818,3.9753,3.7588,3.5936,3.4403,3.2993,2.9977,2.8178,2.7932,2.5303,2.3412,2.2341,2.1379,2.0637,2.0052,2.0568,2.0805,2.0805,2.1042,2.1008,2.0805,2.0805,2.1353,2.2252,2.3185,2.3556,2.3681,2.4398,2.4623,2.458,2.5067,2.4569,2.3647,2.3835,2.3437,2.3,2.3631,2.3721,2.3592,2.3644,2.3042,2.2377,2.2769,2.2018,2.107,2.0809,1.9805,1.8676,1.7882,1.7358,1.7131,1.7433,1.7476,1.7427,1.7152,1.7068,1.6828,1.628,1.6219,1.6246,0.0,1.6328,1.6542,1.7005,1.7373,1.7694,1.8003,1.7897,1.7837,1.7909,1.8576,1.9084,1.924,2.0406,2.1085,2.1105,2.1117,2.0925,2.0496,2.0224,2.001,1.9726,1.969,1.9617,1.9581,1.9654,1.9581,1.9501,1.9465,1.9354,1.9213,1.9213,1.9362,1.9551,1.9803,2.012,2.0496,2.0597,2.0991,2.1782,2.5153,2.5005,2.467,2.4236,2.4368,2.5208,2.7253,3.0525,3.3235,3.4578,3.8102,4.0855,4.1919,4.2763,4.3351,4.3571,4.3057,4.2066,4.0492,3.8554,3.6875,3.5374,3.2645,3.0584,2.944,2.7014,2.4997,2.344,2.2494,2.1637,2.0812,2.1346,2.1583,2.1583,2.182,2.1481,2.0771,2.0467,2.1056,2.2228,2.3819,2.417,2.3932,2.4462,2.4521,2.4324,2.4837,2.4532,2.3894,2.405,2.3679,2.3281,2.3884,2.406,2.4116,2.4499,2.4152,2.3849,2.4545,2.3852,2.2891,2.2626,2.1639,2.0463,1.9679,1.9207,1.8884,1.8953,1.8735,1.8394,1.7836,1.7472,1.7078,1.6526,1.6436,1.6409,0.0,1.6409,1.6436,1.6512,1.667,1.6933,1.724,1.7362,1.7434,1.7472,1.8161,1.866,1.8867,1.983,2.0406,2.0525,2.0613,2.0569,2.0447,2.0153,1.9974,1.9904,1.9797,1.9726,1.969,1.969,1.969,1.9647,1.9647,1.9611,1.9508,1.9508,1.9617,1.9869,2.0115,2.046,2.0827,2.0958,2.1533,2.2501,2.6549,2.6144,2.5741,2.5875,2.6486,2.75,2.9016,3.2709,3.6176,3.8579,4.302,4.5957,4.5957,4.6691,4.6838,4.5957,4.4488,4.3536,4.3321,4.1126,3.9382,3.8452,3.6594,3.4354,3.1809,2.9674,2.7379,2.4991,2.3969,2.3071,2.2361,2.2327,2.2327,2.2293,2.1549,2.0805,2.0002,1.9316,2.0212,2.2295,2.4638,2.5143,2.4479,2.4844,2.4646,2.4249,2.4791,2.4766,2.4441,2.4162,2.3952,2.3824,2.4036,2.441,2.4855,2.5201,2.5659,2.6026,2.6168,2.5812,2.5246,2.4508,2.3771,2.3033,2.2295,2.2128,2.1864,2.0998,2.024,1.9372,1.8356,1.7486,1.6869,1.6722,1.6644,1.6596,1.6485,1.6463,1.6436,1.657,1.6727,1.6908,1.7174,1.7322,1.7419,1.7472,1.8128,1.8276,1.7689,1.8993,1.941,1.8693,1.9201,1.9698,2.009,1.9751,1.9776,2.0115,1.9904,1.9762,1.969,1.969,1.969,1.969,1.969,1.969,1.969,1.969,1.9869,2.015,2.0326,2.0761,2.1247,2.1402,2.2315,2.359,2.6597,2.7442,2.8287,2.892,2.9214,2.9853,3.1483,3.567,3.9344,4.1148,4.4562,4.6801,4.6801,4.7535,4.7425,4.603,4.5516,4.449,4.2626,4.1825,4.0921,3.9806,3.7469,3.5438,3.3882,3.0803,2.8319,2.6379,2.4958,2.3816,2.3105,2.2564,2.2327,2.2293,2.209,2.1583,2.0873,2.067,2.111,2.2026,2.3555,2.3902,2.3665,2.418,2.4195,2.4024,2.4476,2.4441,2.4162,2.3952,2.3782,2.3696,2.3994,2.4287,2.4686,2.5355,2.577,2.6063,2.6415,2.6017,2.5412,2.5243,2.4171,2.3167,2.2966,2.2555,2.2252,2.2504,2.194,2.1116,2.0251,1.9329,1.8345,1.7189,1.6933,1.6811,1.6543,1.6543,1.6543,1.6512,1.667,1.6908,1.7174,1.7273,1.7362,1.7472,1.7695,1.7952,1.8391,1.8809,1.9211,1.9477,1.9591,1.9833,2.0237,1.9876,1.9874,2.022,1.994,1.9762,1.969,1.969,1.969,1.969,1.969,1.9726,1.9762,1.9762,2.001,2.0357,2.0595,2.1119,2.1705,2.1823,2.2161,2.2745,2.8117,2.9182,3.032,3.1127,3.2449,3.3587,3.4137,3.7771,4.1258,4.3571,4.6397,4.8196,4.8196,4.86,4.8196,4.6581,4.6104,4.5114,4.3286,4.274,4.1941,4.0813,3.8863,3.6887,3.5028,3.2014,2.9454,2.7369,2.5435,2.415,2.3376,2.2665,2.2327,2.2327,2.2327,2.1887,2.1237,2.1461,2.1664,2.1996,2.3522,2.4039,0.0,2.4452,2.4551,2.4428,2.448,2.4317,2.4078,2.3909,2.3782,2.3739,2.4078,2.4369,2.4766,2.5355,2.5807,2.617,2.6485,2.6286,2.6016,2.6016,2.5376,2.4738,2.4738,2.4433,2.416,2.4202,2.3566,2.2698,2.1573,2.0633,1.953,1.792,1.7362,1.6991,1.667,1.6929,1.7019,1.6623,1.7008,1.7287,1.7224,1.7289,1.7434,1.7566,1.7589,1.7813,1.8262,1.8343,1.868,1.9395,1.932,1.9531,1.9984,1.9637,1.9467,1.9525,1.9535,1.9481,1.9376,1.9641,1.9726,1.9726,1.9726,1.9726,1.9797,1.9833,2.0115,2.053,2.1023,2.1493,2.1911,2.2089,2.2237,2.2445,3.0503,3.1311,3.2155,3.3073,3.5789,3.7698,3.7441,3.9863,4.2763,4.5663,4.8012,4.9407,4.9407,4.9407,4.8746,4.7095,4.6324,4.5444,4.4346,4.3542,4.2591,4.1486,4.0277,3.836,3.5715,3.3114,3.0617,2.8117,2.5809,2.4255,2.3511,2.2699,2.2327,2.2327,2.2327,2.1955,2.138,2.1955,2.2141,2.2219,2.4083,2.4835,2.483,2.5212,2.5278,2.5091,2.4686,2.4359,2.4078,2.4024,2.394,2.3909,2.4234,2.4533,2.4895,2.5285,2.5775,2.6241,2.645,2.6589,2.6691,2.6691,2.6691,2.6691,2.6691,2.6691,2.6522,2.5781,2.5073,2.413,2.2689,2.1597,2.0417,1.897,1.7996,1.7322,1.7165,1.7524,1.7594,1.7093,1.7647,0.0,1.756,1.7452,1.7462,1.767,1.7726,1.7726,1.7794,1.7794,1.8132,1.8877,1.8839,1.9085,1.9611,1.9339,1.9001,1.8558,1.8996,1.917,1.9068,1.9602,1.9869,1.9869,1.9797,1.9797,1.9869,1.9975,2.0323,2.0795,2.1524,2.1886,2.1974,2.2209,2.2355,2.2405,3.2999,3.3844,3.4871,3.6376,3.8212,4.0341,4.2837,4.4268,4.5516,4.6728,4.7865,4.8526,4.8526,4.8526,4.7865,4.625,4.5993,4.526,4.3687,4.3287,4.2882,4.2393,4.0522,3.852,3.6435,3.379,3.1257,2.8825,2.6522,2.5033,2.4286,2.2936,2.2327,2.2327,2.2327,2.2226,2.2158,2.2815,2.3029,2.3106,2.4547,2.5077,2.5003,2.544,2.5513,2.5285,2.4895,2.4523,2.4151,2.4024,2.3994,2.4078,2.4359,2.4655,2.4942,2.5438,2.5881,2.6241,2.645,2.6589,2.6691,2.6691,2.6691,2.6691,2.6691,2.6691,2.6657,2.6522,2.588,2.5103,2.4225,2.2411,2.0948,2.0544,1.9325,1.8526,1.8795,1.7981,1.7662,1.8626,1.8555,1.8614,1.9207,1.812,1.7462,1.767,1.7726,1.7726,1.7794,1.7794,1.8132,1.8877,1.8839,1.9077,1.9691,1.9394,1.9115,1.8856,1.9249,1.9369,1.9271,1.9912,2.0185,2.0185,2.008,2.0115,2.032,2.0323,2.0697,2.1308,2.1794,2.2032,2.2152,2.2237,2.2327,2.2349,3.5642,3.6376,3.7331,3.8505,4.0781,4.3204,4.559,4.7021,4.7939,4.8343,4.871,4.8783,4.8343,4.7939,4.7205,4.5993,4.5516,4.4746,4.3467,4.3215,4.2737,4.1998,4.0379,3.8415,3.6012,3.3412,3.1014,2.9028,2.6725,2.5236,2.4489,2.3748,2.3038,2.2327,2.2327,2.253,2.2902,2.3152,2.3728,2.4439,2.5079,2.548,2.5776,2.5859,2.5738,2.5621,2.5246,2.4966,2.4726,2.4441,2.4369,2.4533,2.4855,2.513,2.5368,2.5775,2.6099,2.6347,2.652,2.6623,2.6691,2.6691,2.6691,2.6691,2.6691,2.6691,2.6691,2.6691,2.642,2.5947,2.5203,2.3549,2.2141,2.1653,2.0653,1.9703,1.9062,1.8698,1.8607,1.8858,1.9029,1.9133,1.9169,1.8534,1.8181,1.8323,1.7952,1.7772,1.7839,1.7839,1.82,1.9052,1.9005,1.9331,1.9942,1.9744,1.947,1.9223,1.9677,1.9845,1.9657,2.0315,2.0561,2.0561,2.0392,2.0392,2.0592,2.0827,2.115,2.1587,2.1945,2.2152,2.2214,2.2299,2.2327,2.2321,3.8505,3.9166,4.0047,4.1001,4.3424,4.5773,4.7388,4.8893,4.9774,4.9591,4.9407,4.9003,4.8159,4.7498,4.6728,4.5736,4.5076,4.4343,4.3466,4.3251,4.263,4.1497,4.0206,3.8204,3.5456,3.2995,3.0912,2.9228,2.7097,2.571,2.4997,2.4997,2.4357,2.3241,2.3071,2.3342,2.3849,2.3823,2.4467,2.5545,2.5614,2.6017,2.6485,2.6206,2.6063,2.5954,2.5659,2.5508,2.5394,2.5013,2.4895,2.4974,2.5323,2.5589,2.5811,2.6134,2.6347,2.6486,2.6555,2.6657,2.6691,2.6691,2.6691,2.6691,2.6691,2.6691,2.6691,2.6691,2.6691,2.6522,2.5947,2.4763,2.368,2.3013,2.2169,2.1204,2.009,1.997,1.9844,1.9384,1.971,1.9703,1.901,1.9026,1.9007,1.891,1.8234,1.7839,1.7905,1.7961,1.8369,1.919,1.9247,1.9567,2.0264,2.0068,1.9891,1.9658,2.0172,2.0326,2.0148,2.0734,2.099,2.0958,2.0761,2.0728,2.086,2.1309,2.1587,2.1768,2.2094,2.2214,2.2242,2.2299,2.2327,2.2355,4.1846,4.2506,4.3534,4.5076,4.6214,4.7462,4.9114,5.0105,5.0398,4.9591,4.8857,4.8122,4.7315,4.713,4.6507,4.4966,4.4745,4.4378,4.3534,4.3322,4.2705,4.1612,4.0289,3.8289,3.5461,3.3515,3.1696,3.0006,2.8383,2.7232,2.6488,2.6488,2.642,2.6251,2.5609,2.5338,2.5406,2.5406,2.5441,2.5644,2.6286,2.659,2.6589,2.6418,2.6314,2.6208,2.6026,2.5954,2.5954,2.5848,2.5626,2.5362,2.5589,2.5811,2.5994,2.6241,2.6417,2.6589,2.6623,2.6657,2.6691,2.6691,2.6691,2.6691,2.6691,2.6691,2.6691,2.6691,2.6691,2.6657,2.659,2.5947,2.5372,2.5272,2.412,2.3346,2.3793,2.218,2.1143,2.163,2.125,2.0639,1.9866,1.985,1.9596,1.8944,1.8268,1.7905,1.7983,1.8126,1.8521,1.9255,1.9369,1.9737,2.0443,2.0336,2.0216,2.0118,2.0605,2.0783,2.0648,2.1319,2.1556,2.1432,2.1309,2.1214,2.1277,2.1617,2.1827,2.1882,2.218,2.2299,2.2299,2.2327,2.2327,2.2321,4.4452,4.5112,4.603,4.7131,4.8049,4.9003,5.0141,5.0178,4.9774,4.8893,4.8489,4.8012,4.7205,4.625,4.5406,4.4782,4.4268,4.383,4.3465,4.2813,4.1905,4.0741,3.942,3.7386,3.4683,3.3259,3.172,3.0108,2.9025,2.7909,2.6691,2.7165,2.7131,2.6657,2.5947,2.5845,2.6218,2.5778,2.5879,2.6285,2.659,2.6657,2.6657,2.6555,2.6486,2.6452,2.6347,2.6277,2.6277,2.6277,2.6099,2.5917,2.6066,2.6208,2.6382,2.6487,2.659,2.6657,2.6657,2.6657,2.6691,2.6691,2.6691,2.6691,2.6691,2.6691,2.6691,2.6691,2.6691,2.6691,2.6691,2.6454,2.6116,2.5676,2.5101,2.4357,2.3313,2.2372,2.1562,2.0868,2.0591,2.0145,1.9369,1.9326,1.907,1.837,1.8053,1.7949,1.8126,1.8218,1.8467,1.8929,1.9004,1.9623,2.0859,2.0771,2.1092,2.1863,2.1996,2.1949,2.1847,2.2006,2.1998,2.1849,2.1705,2.1675,2.1735,2.1853,2.2003,2.2094,2.2237,2.2327,2.2327,2.2327,2.2355,2.2377,4.7278,4.7609,4.8086,4.8893,4.9334,4.9774,5.0362,4.9738,4.8893,4.8086,4.7535,4.7058,4.6471,4.5406,4.4599,4.4378,4.3793,4.3428,4.3359,4.2377,4.1252,4.0047,3.8762,3.6806,3.4076,3.3248,3.2021,3.0412,2.9905,2.8958,2.7706,2.801,2.801,2.7672,2.6691,2.6556,2.6996,2.6251,2.6218,2.6691,2.6691,2.6691,2.6691,2.6657,2.6623,2.6623,2.6589,2.6555,2.6555,2.6555,2.6452,2.6382,2.6452,2.6521,2.6589,2.6657,2.6691,2.6691,2.6691,2.6691,2.6691,2.6691,2.6691,2.6691,2.6691,2.6691,2.6691,2.6691,2.6691,2.6691,2.6691,2.6691,2.6454,2.5744,2.5609,2.5,2.3207,2.2767,2.2084,2.0568,2.0416,1.9966,1.8801,1.8869,1.8722,1.8039,1.7992,1.8078,1.8239,1.8348,1.8545,1.877,1.8843,1.9524,2.0888,2.1064,2.1704,2.2823,2.2937,2.2927,2.2721,2.2527,2.2392,2.2226,2.2118,2.2061,2.2056,2.2061,2.2089,2.2214,2.2265,2.2327,2.2327,2.2293,2.2349,2.246,5.0582,5.0105,4.9811,5.0618,5.0105,4.9591,4.9591,4.8893,4.8049,4.7241,4.5736,4.4745,4.4745,4.4709,4.4378,4.3571,4.3465,4.3322,4.3214,4.2195,4.1065,3.9854,3.8637,3.6725,3.3957,3.368,3.2802,3.119,3.119,3.0784,3.004,2.9296,2.9364,3.0006,2.8484,2.7772,2.7739,2.6996,2.6691,2.6691,2.6691,2.6691,2.6691,2.6691,2.6691,2.6691,2.6691,2.6691,2.6691,2.6691,2.6691,2.6657,2.6623,2.6623,2.6589,2.6657,2.6691,2.6691,2.6691,2.6691,2.6691,2.6691,2.6691,2.6691,2.6691,2.6691,2.6691,2.6691,2.6691,2.6691,2.6691,2.6691,2.6454,2.5744,2.5609,2.5338,2.4591,2.3875,2.2949,2.146,2.1327,2.0504,1.8332,1.8822,1.8982,1.8258,1.8246,1.8328,1.8403,1.8584,1.8789,1.9002,1.9067,1.9534,2.0388,2.1116,2.182,2.2431,2.3163,2.3341,2.3077,2.2876,2.2694,2.2596,2.246,2.2321,2.2209,2.218,2.2214,2.2214,2.2265,2.2327,2.2293,2.2377,2.2432,2.2542,5.0655,5.0141,4.9848,5.0655,5.0105,4.937,4.8783,4.8012,4.7021,4.5663,4.5039,4.4488,4.3938,4.3864,4.3791,4.3497,4.3465,4.3067,4.2232,4.1178,4.0009,3.8637,3.7463,3.5835,3.3748,3.3549,3.272,3.119,3.119,3.0548,2.933,2.9093,2.8822,2.8518,2.8009,2.7772,2.7739,2.6996,2.6691,2.6691,2.6691,2.6691,2.6691,2.6691,2.6691,2.6691,2.6691,2.6691,2.6691,2.6691,2.6691,2.6691,2.6657,2.6691,2.6657,2.6691,2.6691,2.6691,2.6691,2.6691,2.6691,2.6691,2.6691,2.6691,2.6691,2.6691,2.6691,2.6691,2.6691,2.6691,2.6691,2.6285,2.5879,2.5642,2.5169,2.4625,2.3939,2.3215,2.2248,2.0847,2.0749,2.0327,1.9182,1.976,2.0174,1.9983,1.9535,1.9014,1.8506,1.8661,1.8896,1.9137,1.9266,1.9696,2.0535,2.138,2.2063,2.2679,2.3417,2.3667,2.3445,2.3307,2.3223,2.3126,2.2902,2.2721,2.2588,2.2515,2.2405,2.2321,2.2349,2.2321,2.2293,2.2377,2.2515,2.2676,5.1132,5.0362,4.9738,5.0251,4.9407,4.8489,4.7939,4.6911,4.5847,4.4856,4.4452,4.4048,4.3534,4.3497,4.3497,4.3497,4.3358,4.2814,4.1723,4.0556,3.9345,3.8123,3.6908,3.5511,3.383,3.359,3.272,3.1269,3.0959,3.0311,2.9397,2.8822,2.8281,2.7772,2.7537,2.7402,2.7368,2.6894,2.6691,2.6691,2.6691,2.6691,2.6691,2.6691,2.6691,2.6691,2.6691,2.6691,2.6691,2.6691,2.6691,2.6691,2.6691,2.6691,2.6691,2.6691,2.6691,2.6691,2.6691,2.6691,2.6691,2.6691,2.6691,2.6691,2.6691,2.6691,2.6691,2.6691,2.6691,2.6623,2.6353,2.5913,2.5439,2.4864,2.4391,2.3846,2.3158,2.2487,2.1696,2.0614,2.0604,2.0425,1.9738,2.0435,2.0958,2.0986,2.0566,2.0143,1.9663,1.9452,1.9613,2.016,2.0326,2.0625,2.1152,2.202,2.2621,2.296,2.3614,2.3858,2.3732,2.3638,2.3526,2.3435,2.3175,2.3003,2.2876,2.2721,2.2649,2.2569,2.2542,2.2487,2.246,2.2569,2.2729,2.2876,5.183,5.0582,4.9481,4.9444,4.8159,4.7057,4.6985,4.5663,4.4672,4.4635,4.3975,4.3497,4.3497,4.3497,4.3461,4.3424,4.3142,4.2595,4.1576,4.0292,3.9075,3.8169,3.6915,3.5559,3.4111,3.3721,3.2808,3.1312,3.0484,3.0074,3.0006,2.8518,2.7739,2.7671,2.6996,2.6691,2.6691,2.6691,2.6691,2.6691,2.6691,2.6691,2.6691,2.6691,2.6691,2.6691,2.6691,2.6691,2.6691,2.6691,2.6691,2.6691,2.6691,2.6691,2.6691,2.6691,2.6691,2.6691,2.6691,2.6691,2.6691,2.6691,2.6691,2.6691,2.6691,2.6691,2.6691,2.6691,2.6691,2.6454,2.5744,2.5575,2.5067,2.3613,2.3342,2.31,2.2507,2.191,2.133,2.079,2.0943,2.0871,2.0256,2.0963,2.149,2.149,2.1475,2.155,2.166,2.0916,2.086,2.1762,2.1935,2.203,2.2107,2.2958,2.3359,2.3283,2.3804,2.3996,2.3935,2.3789,2.3682,2.3616,2.3342,2.3199,2.3102,2.2927,2.2825,2.2799,2.2747,2.2694,2.2721,2.285,2.2977,2.3151,5.0141,4.9334,4.8416,4.7792,4.7388,4.6691,4.548,4.4966,4.4488,4.3864,4.3608,4.3463,4.3429,4.3429,4.3138,4.2339,4.2232,4.176,4.0708,3.9506,3.838,3.7325,3.6277,3.5169,3.4111,3.3254,3.2304,3.123,3.0446,2.9803,2.9228,2.8281,2.7503,2.6962,2.6759,2.6691,2.6691,2.6691,2.6691,2.6691,2.6691,2.6691,2.6691,2.6691,2.6691,2.6691,2.6691,2.6691,2.6691,2.6691,2.6691,2.6691,2.6691,2.6691,2.6691,2.6691,2.6691,2.6691,2.6691,2.6691,2.6691,2.6691,2.6691,2.6691,2.6691,2.6691,2.6691,2.6691,2.6691,2.6454,2.5744,2.5135,2.4458,2.3545,2.2994,2.2609,2.2576,2.209,2.1744,2.1799,2.2018,2.2114,2.207,2.2761,2.3216,2.3293,2.2732,2.2698,2.3451,2.2721,2.2118,2.1748,2.1865,2.1946,2.203,2.2896,2.3553,2.4044,2.41,2.4153,2.4132,2.4016,2.3955,2.3894,2.371,2.358,2.3481,2.3389,2.3223,2.3028,2.3003,2.2927,2.285,2.3003,2.3126,2.3295,4.9077,4.8343,4.7498,4.6691,4.625,4.5736,4.4856,4.4378,4.3975,4.3534,4.3497,4.3463,4.3429,4.303,4.2485,4.1833,4.176,4.1216,3.9841,3.9042,3.8247,3.7352,3.6274,3.5346,3.4539,3.3356,3.2252,3.119,3.0108,2.9397,2.8958,2.7841,2.7097,2.6691,2.6691,2.6691,2.6691,2.6691,2.6691,2.6691,2.6691,2.6691,2.6691,2.6691,2.6691,2.6691,2.6691,2.6691,2.6691,2.6691,2.6691,2.6691,2.6691,2.6691,2.6691,2.6691,2.6691,2.6691,2.6691,2.6691,2.6691,2.6691,2.6691,2.6691,2.6691,2.6691,2.6691,2.6691,2.6691,2.6353,2.5304,2.4763,2.412,2.3071,2.2621,2.246,2.2623,2.2156,2.2095,2.2745,2.3034,2.3381,2.3846,2.4595,2.509,2.5132,2.473,2.4714,2.5214,2.4811,2.406,2.2904,2.2938,2.3024,2.3145,2.3587,2.3999,2.4321,2.4284,2.421,2.419,2.4132,2.4056,2.4036,2.3878,2.3795,2.3747,2.3624,2.3491,2.3353,2.333,2.3283,2.3236,2.333,2.3445,2.358,4.8231,4.7498,4.6691,4.5847,4.5149,4.4672,4.4562,4.3938,4.3497,4.3497,4.3497,4.3428,4.3359,4.2485,4.176,4.1394,4.1248,4.0562,3.9157,3.8722,3.829,3.7757,3.6504,3.5579,3.5049,3.3519,3.2158,3.1021,2.9668,2.8924,2.8789,2.7368,2.6691,2.6691,2.6691,2.6691,2.6691,2.6691,2.6691,2.6691,2.6691,2.6691,2.6691,2.6691,2.6691,2.6691,2.6691,2.6691,2.6691,2.6691,2.6691,2.6691,2.6691,2.6691,2.6691,2.6691,2.6691,2.6691,2.6691,2.6691,2.6691,2.6691,2.6691,2.6691,2.6691,2.6691,2.6691,2.6691,2.6691,2.6251,2.4794,2.4523,2.4019,2.2564,2.2248,2.2351,2.2668,2.2384,2.2551,2.3665,2.4121,2.4673,2.5413,2.6188,2.6612,2.6612,2.6612,2.6612,2.6612,2.6612,2.5972,2.4615,2.4524,2.4487,2.4482,2.4462,2.4445,2.4376,2.4303,2.4284,2.419,2.4151,2.4132,2.4132,2.3996,2.3955,2.3935,2.3816,2.3753,2.3732,2.3653,2.3631,2.3631,2.3732,2.3816,2.3939,4.7314,4.6654,4.5847,4.5039,4.4782,4.4488,4.3791,4.3571,4.3497,4.3497,4.3428,4.3359,4.3178,4.2157,4.1173,4.0298,3.9542,3.9042,3.894,3.8367,3.7971,3.7967,3.6358,3.5328,3.5118,3.2925,3.1295,3.0277,2.9397,2.8653,2.7977,2.7097,2.6691,2.6691,2.6691,2.6691,2.6691,2.6691,2.6691,2.6691,2.6691,2.6691,2.6691,2.6691,2.6691,2.6691,2.6691,2.6691,2.6691,2.6691,2.6691,2.6691,2.6691,2.6691,2.6691,2.6691,2.6691,2.6691,2.6691,2.6691,2.6691,2.6691,2.6691,2.6691,2.6691,2.6691,2.6691,2.6691,2.6691,2.6251,2.4794,2.4523,2.4019,2.2564,2.1888,2.1833,2.2678,2.3034,2.362,2.4568,2.5536,2.6197,2.6371,2.6539,2.6612,2.6612,2.6612,2.6612,2.6612,2.6612,2.6502,2.6245,2.5608,2.5004,2.4358,2.4321,2.4303,2.4247,2.4229,2.421,2.419,2.419,2.417,2.417,2.417,2.4132,2.4056,2.4036,2.3976,2.3858,2.3858,2.3816,2.3795,2.3935,2.3996,2.4095,4.6469,4.5773,4.4967,4.4195,4.4048,4.3938,4.3534,4.3497,4.3497,4.3497,4.3428,4.3323,4.3031,4.1609,4.0444,3.985,3.8638,3.8037,3.8259,3.8079,3.8036,3.8238,3.6519,3.493,3.3565,3.2367,3.1239,3.0149,2.944,2.8623,2.7772,2.7063,2.6691,2.6691,2.6691,2.6691,2.6691,2.6691,2.6691,2.6691,2.6691,2.6691,2.6691,2.6691,2.6691,2.6691,2.6691,2.6691,2.6691,2.6691,2.6691,2.6691,2.6691,2.6691,2.6691,2.6691,2.6691,2.6691,2.6691,2.6691,2.6691,2.6691,2.6691,2.6691,2.6691,2.6691,2.6691,2.6691,2.6691,2.6353,2.527,2.5101,2.4594,2.3139,2.3107,2.333,2.3476,2.4201,2.5135,2.6139,2.6781,2.7317,2.7838,2.7897,2.7897,2.7897,2.7897,2.7897,2.7897,2.7897,2.7897,2.7897,2.6344,2.5316,2.4967,2.4506,2.4266,2.4173,2.4173,2.4191,2.419,2.419,2.419,2.419,2.419,2.417,2.4151,2.4151,2.4132,2.4056,2.4056,2.4056,2.4019,2.4134,2.4229,2.4357,4.5588,4.4858,4.4162,4.3608,4.3497,4.3497,4.3497,4.3497,4.3497,4.3463,4.3358,4.3178,4.288,4.1133,3.9896,3.962,3.8241,3.7503,3.7721,3.7787,3.7881,3.8109,3.6327,3.436,3.2267,3.202,3.1349,3.019,2.9442,2.8659,2.7772,2.7063,2.6691,2.6691,2.6691,2.6725,2.6759,2.6759,2.6759,2.6758,2.6725,2.6759,2.6759,2.6759,2.6759,2.6759,2.6758,2.6758,2.6758,2.6725,2.6759,2.6725,2.6691,2.6691,2.6691,2.6691,2.6725,2.6725,2.6691,2.6691,2.6691,2.6691,2.6691,2.6691,2.6691,2.6691,2.6691,2.6691,2.6691,2.6454,2.5744,2.5609,2.5169,2.3849,2.4193,2.4591,2.4398,2.5242,2.6236,2.7272,2.7752,2.8256,2.8938,2.8975,2.8975,2.8975,2.8975,2.8975,2.8975,2.8975,2.8975,2.8975,2.7059,2.5939,2.5755,2.4948,2.4542,2.4468,2.4284,2.4191,2.419,2.419,2.419,2.419,2.419,2.419,2.419,2.419,2.419,2.419,2.419,2.4191,2.4229,2.4284,2.441,2.4547,4.4784,4.4053,4.3503,4.3497,4.3497,4.3497,4.3497,4.3497,4.3463,4.3429,4.3251,4.2992,4.2649,4.086,3.962,3.9615,3.8199,3.7503,3.7967,3.7482,3.7212,3.7307,3.5367,3.3657,3.2232,3.202,3.1349,3.019,2.9442,2.8659,2.7772,2.7063,2.6691,2.6691,2.6691,2.6792,2.6893,2.6893,2.6926,2.6992,2.6926,2.6893,2.6893,2.6893,2.6893,2.6893,2.6959,2.6992,2.6992,2.6926,2.6893,2.6859,2.6725,2.6691,2.6691,2.6691,2.6792,2.6859,2.6725,2.6691,2.6691,2.6691,2.6691,2.6691,2.6691,2.6691,2.6691,2.6691,2.6691,2.6454,2.5744,2.5609,2.5338,2.4526,2.4115,2.4171,2.5025,2.5664,2.6417,2.7272,2.831,2.8938,2.8975,2.8975,2.8975,2.8975,2.8975,2.8975,2.8975,2.8975,2.8975,2.8975,2.8117,2.7273,2.6539,2.5715,2.5311,2.5311,2.4576,2.419,2.419,2.419,2.419,2.419,2.419,2.419,2.419,2.419,2.419,2.419,2.419,2.4191,2.4229,2.4358,2.45,2.4596,4.4336,4.3651,4.3178,4.3393,4.3465,4.3428,4.3497,4.3497,4.3463,4.3429,4.3251,4.3031,4.2649,4.0978,3.9854,3.9736,3.8431,3.7721,3.8034,3.754,3.676,3.5715,3.4722,3.3618,3.2472,3.2197,3.153,3.0375,2.9621,2.8799,2.7912,2.7199,2.6825,2.6892,2.6892,2.6925,2.7023,2.7023,2.7055,2.712,2.712,2.7087,2.7087,2.7087,2.7152,2.7184,2.7152,2.712,2.712,2.7024,2.6926,2.6893,2.6725,2.6691,2.6725,2.6859,2.699,2.7087,2.7152,2.7023,2.6892,2.6923,2.6892,2.6825,2.6825,2.6759,2.6826,2.73,2.7029,2.6759,2.6928,2.659,2.6081,2.5368,2.5617,2.5957,2.6072,2.6925,2.7716,2.8154,2.8675,2.8975,2.8975,2.8975,2.8975,2.8975,2.8975,2.8975,2.8975,2.8975,2.8975,2.8975,2.8705,2.8154,2.7346,2.6025,2.5421,2.5384,2.4557,2.419,2.419,2.419,2.419,2.419,2.419,2.419,2.419,2.419,2.419,2.419,2.419,2.4247,2.4266,2.4376,2.4497,2.4676,4.3704,4.3281,4.3031,4.3359,4.3394,4.3429,4.3497,4.3497,4.3463,4.3322,4.3214,4.3031,4.2649,4.1094,4.0085,3.9932,3.869,3.7857,3.7805,3.7015,3.5981,3.4768,3.4176,3.3498,3.2705,3.2404,3.1672,3.0592,2.9763,2.8904,2.8049,2.7333,2.699,2.7154,2.7154,2.7184,2.7244,2.7244,2.7276,2.7369,2.7338,2.7307,2.7307,2.7338,2.74,2.7461,2.74,2.7369,2.7338,2.7152,2.7023,2.6925,2.6758,2.6725,2.6859,2.7055,2.7215,2.7369,2.7522,2.743,2.7244,2.7181,2.7087,2.6957,2.6959,2.6825,2.6962,2.7672,2.7402,2.7199,2.7705,2.7402,2.6928,2.6486,2.7087,2.7612,2.7636,2.8307,2.8871,2.905,2.9028,2.9085,2.9342,2.9379,2.9379,2.9379,2.9379,2.9269,2.9012,2.8975,2.8975,2.8975,2.8975,2.8741,2.8191,2.6576,2.5768,2.5768,2.4704,2.419,2.419,2.419,2.419,2.419,2.419,2.419,2.419,2.419,2.419,2.419,2.419,2.4247,2.4284,2.4321,2.4479,2.4692,4.2757,4.2806,4.2995,4.3359,4.3394,4.3429,4.3497,4.3497,4.3428,4.3251,4.3142,4.2992,4.2649,4.1171,4.02,4.02,3.8939,3.7842,3.7202,3.5754,3.4877,3.4819,3.3755,3.3117,3.2898,3.247,3.1812,3.0803,2.9834,2.8973,2.8185,2.7463,2.7181,2.7404,2.7404,2.7465,2.7617,2.7617,2.7647,2.7701,2.7647,2.7617,2.7617,2.7672,2.7701,2.773,2.7789,2.776,2.7642,2.7307,2.7149,2.7053,2.6791,2.6859,2.7023,2.731,2.7496,2.7677,2.7926,2.7954,2.7811,2.7496,2.7276,2.7149,2.7023,2.6959,2.7063,2.7672,2.7772,2.7772,2.7806,2.7806,2.7841,2.7981,2.8319,2.8856,2.9846,2.9833,2.9755,2.9886,2.9393,2.9329,3.0136,3.021,3.021,3.021,3.021,2.9843,2.9049,2.8975,2.8975,2.8975,2.8975,2.8975,2.8975,2.742,2.6612,2.6612,2.4997,2.4226,2.419,2.419,2.419,2.419,2.419,2.419,2.419,2.419,2.419,2.419,2.419,2.4191,2.4229,2.4284,2.4428,2.4596,4.2311,4.2414,4.2652,4.2994,4.3178,4.3286,4.3393,4.3463,4.3428,4.3251,4.3178,4.3068,4.2765,4.1432,4.0528,4.042,3.9179,3.788,3.6655,3.6164,3.5357,3.4156,3.3619,3.3274,3.3024,3.2204,3.1456,3.0872,2.9453,2.866,2.8418,2.775,2.7522,2.7672,2.773,2.7818,2.794,2.794,2.7996,2.8045,2.8081,2.8109,2.8109,2.8156,2.821,2.8237,2.8191,2.8045,2.784,2.7582,2.7307,2.7053,2.6892,2.699,2.7181,2.7465,2.7795,2.8081,2.821,2.8317,2.8291,2.7933,2.7612,2.7373,2.7149,2.7023,2.7199,2.8418,2.8213,2.811,2.9228,2.8991,2.8691,2.8799,2.9076,2.948,3.011,3.042,3.0613,3.08,3.0734,3.076,3.1017,3.1017,3.1017,3.1017,3.0503,3.0099,2.9843,2.9329,2.8975,2.8975,2.8975,2.8975,2.8975,2.797,2.742,2.742,2.6392,2.5585,2.5054,2.5054,2.474,2.419,2.419,2.419,2.419,2.419,2.419,2.419,2.419,2.4191,2.4229,2.4284,2.4428,2.4613,4.198,4.2205,4.245,4.2729,4.2956,4.3142,4.3286,4.3358,4.3322,4.3178,4.3105,4.2886,4.2371,4.1325,4.0524,4.0162,3.8871,3.7564,3.6376,3.5973,3.5202,3.3844,3.3615,3.327,3.2798,3.2031,3.115,3.0199,2.9161,2.8537,2.8219,2.7882,2.7847,2.8017,2.8128,2.8183,2.83,2.83,2.8327,2.838,2.8406,2.8432,2.8432,2.8474,2.8525,2.8587,2.8458,2.8327,2.8101,2.776,2.7369,2.7055,2.699,2.7152,2.74,2.7672,2.8017,2.8353,2.851,2.8612,2.8612,2.8344,2.7954,2.7642,2.74,2.7184,2.7332,2.8422,2.8489,2.8659,2.9576,2.961,2.9581,2.9796,3.0007,3.0449,3.1154,3.1339,3.1473,3.1664,3.1528,3.1531,3.1825,3.1861,3.1861,3.1861,3.1127,3.054,3.0186,2.9685,2.9282,2.8942,2.8905,2.8905,2.8905,2.8476,2.8095,2.7787,2.6979,2.6355,2.5841,2.5568,2.5127,2.4667,2.4337,2.419,2.419,2.419,2.419,2.419,2.419,2.4209,2.4191,2.4247,2.4393,2.458,4.1692,4.2037,4.2328,4.253,4.2729,4.2957,4.3178,4.3214,4.3178,4.3104,4.2921,4.2482,4.1647,4.0926,4.0233,3.9644,3.8376,3.7257,3.645,3.5605,3.4761,3.3954,3.3789,3.3241,3.2229,3.1881,3.0862,2.9101,2.8916,2.8463,2.7818,2.7989,2.8183,2.8406,2.851,2.8562,2.8612,2.8612,2.8612,2.8612,2.8612,2.8637,2.8637,2.8712,2.8737,2.8737,2.8637,2.8536,2.8327,2.7847,2.7369,2.699,2.712,2.7338,2.7677,2.7926,2.8264,2.8562,2.8761,2.881,2.881,2.8737,2.8396,2.7989,2.7672,2.7434,2.7422,2.8014,2.8733,2.9246,2.9315,2.9964,3.0585,3.0765,3.1046,3.1561,3.2563,3.2505,3.2355,3.2393,3.1895,3.1813,3.2522,3.2669,3.2706,3.2706,3.1971,3.1139,3.0332,3.0149,2.9698,2.8907,2.8822,2.8785,2.8761,2.8834,2.8562,2.7897,2.7163,2.6796,2.6686,2.5878,2.5495,2.5348,2.4557,2.419,2.419,2.419,2.419,2.419,2.419,2.419,2.419,2.421,2.432,2.451,4.13,4.1613,4.1995,4.2169,4.2494,4.2844,4.3068,4.3178,4.3178,4.3104,4.2375,4.1793,4.1461,4.0275,3.9514,3.9506,3.8862,3.8102,3.7294,3.645,3.5642,3.4798,3.411,3.303,3.1472,3.1137,3.0413,2.9189,2.8557,2.8202,2.8025,2.8264,2.8458,2.8562,2.8687,2.8737,2.8761,2.8761,2.8761,2.8761,2.881,2.8834,2.8858,2.8905,2.8929,2.8905,2.8785,2.8637,2.8344,2.7672,2.731,2.712,2.7149,2.74,2.776,2.8101,2.8458,2.8712,2.8858,2.8905,2.8929,2.8881,2.8687,2.8344,2.7876,2.7582,2.7612,2.828,2.9005,2.9696,3.0283,3.1042,3.1633,3.1775,3.2022,3.2362,3.2766,3.3123,3.3085,3.2547,3.2474,3.2539,3.2672,3.3209,3.355,3.355,3.2763,3.2135,3.1909,3.068,2.9839,2.9528,2.8938,2.8612,2.8587,2.8637,2.8652,2.8672,2.8535,2.8154,2.7493,2.6722,2.5988,2.5348,2.4557,2.419,2.419,2.419,2.419,2.419,2.419,2.419,2.4209,2.4321,2.441,2.4559,4.1105,4.138,4.1648,4.1823,4.221,4.2573,4.2804,4.2918,4.2956,4.2842,4.2003,4.1166,4.073,3.9769,3.9082,3.9024,3.8816,3.8212,3.7,3.6523,3.5752,3.4504,3.4027,3.2957,3.119,3.0966,3.0196,2.8762,2.8433,2.8219,2.8191,2.8484,2.8637,2.8687,2.8834,2.8881,2.8881,2.8881,2.8881,2.8881,2.8929,2.8952,2.8952,2.8975,2.8975,2.8975,2.8834,2.8587,2.8246,2.7677,2.7434,2.7338,2.7369,2.7672,2.8045,2.8353,2.8612,2.8834,2.8929,2.8975,2.9085,2.9405,2.9101,2.8587,2.8183,2.7904,2.7871,2.8167,2.9117,3.0059,3.0447,3.1427,3.2301,3.237,3.2573,3.2802,3.3024,3.3386,3.3378,3.2653,3.2723,3.2822,3.281,3.3103,3.3419,3.3823,3.335,3.2876,3.2365,3.112,3.0089,2.9538,2.8748,2.8327,2.8237,2.8317,2.8484,2.8551,2.8737,2.8615,2.82,2.7396,2.6615,2.5873,2.5067,2.4537,2.419,2.419,2.4209,2.4191,2.4191,2.4247,2.4303,2.4393,2.4559,2.4804,4.1,4.1198,4.138,4.156,4.1995,4.2369,4.2609,4.2727,4.2691,4.2429,4.1515,4.057,3.975,3.9191,3.8757,3.8501,3.8627,3.8065,3.6597,3.6376,3.5605,3.4037,3.3853,3.293,3.1111,3.1048,3.0116,2.83,2.838,2.838,2.8353,2.8612,2.8761,2.881,2.8929,2.8975,2.8975,2.8975,2.8975,2.8975,2.8975,2.8975,2.8975,2.8975,2.8975,2.8975,2.8834,2.851,2.8053,2.7736,2.7647,2.7647,2.7677,2.7933,2.8353,2.8562,2.8761,2.8929,2.8998,2.9021,2.9219,2.9941,2.9576,2.8943,2.8742,2.8398,2.8172,2.8187,2.9396,3.0462,3.0569,3.1777,3.2702,3.2766,3.2925,3.3117,3.3238,3.353,3.3486,3.282,3.2711,3.2733,3.2733,3.2748,3.308,3.3891,3.3807,3.3378,3.2556,3.1473,3.0456,2.9519,2.8514,2.7996,2.7811,2.7989,2.8109,2.8109,2.8327,2.8536,2.8651,2.7852,2.7196,2.6615,2.5847,2.5084,2.441,2.4429,2.4338,2.4229,2.4211,2.4321,2.4447,2.453,2.476,2.5056,4.068,4.0953,4.1233,4.156,4.1995,4.2409,4.2688,4.2802,4.2474,4.1677,4.0653,3.9672,3.8851,3.8438,3.8244,3.8401,3.8596,3.8322,3.7404,3.667,3.5834,3.4788,3.4092,3.2885,3.103,3.1048,3.0179,2.83,2.8432,2.8484,2.8484,2.8761,2.8881,2.8905,2.8952,2.8975,2.8975,2.8975,2.8975,2.8975,2.8975,2.8975,2.8975,2.8975,2.8975,2.8975,2.8834,2.8536,2.8164,2.7876,2.776,2.7789,2.784,2.8128,2.8458,2.8712,2.8858,2.8998,2.9134,2.9112,2.9287,3.006,3.0099,2.993,2.988,2.9134,2.8639,2.9323,3.0188,3.1052,3.1737,3.2565,3.3111,3.3111,3.3238,3.3364,3.3452,3.3698,3.3618,3.2884,3.2358,3.2045,3.2045,3.265,3.3337,3.4018,3.3965,3.3733,3.3441,3.1771,3.0621,3.0183,2.8588,2.7672,2.7557,2.7587,2.7617,2.7677,2.7736,2.7989,2.85,2.7755,2.7416,2.741,2.6651,2.591,2.5237,2.5314,2.4911,2.4284,2.4355,2.4425,2.453,2.4685,2.4929,2.5198,4.0905,4.1059,4.129,4.1648,4.2037,4.2369,4.2649,4.2327,4.1818,4.1264,3.9961,3.8876,3.8483,3.8223,3.7987,3.7781,3.79,3.7477,3.6135,3.5695,3.5089,3.417,3.3368,3.2274,3.0928,3.0505,2.9656,2.8353,2.8536,2.8612,2.8562,2.881,2.8905,2.8905,2.8952,2.8975,2.8975,2.8975,2.8975,2.8975,2.8975,2.8975,2.8975,2.8975,2.8975,2.8975,2.881,2.8587,2.8353,2.8101,2.8073,2.8128,2.8183,2.8396,2.8662,2.8858,2.8998,2.9112,2.9259,2.9243,2.9502,3.0752,3.0706,3.0438,3.0809,3.0222,2.9613,2.9828,3.0503,3.1302,3.2101,3.29,3.3415,3.3415,3.3473,3.3538,3.353,3.3698,3.3607,3.3082,3.2142,3.1694,3.2183,3.2486,3.2931,3.3649,3.3966,3.4067,3.3834,3.1974,3.0772,3.041,2.8956,2.8154,2.8031,2.8414,2.862,2.8752,2.8844,2.8694,2.8273,2.7994,2.7716,2.7536,2.7287,2.6753,2.6086,2.5724,2.5356,2.5022,2.4679,2.4639,2.4804,2.4955,2.5138,2.5303]},{"header":{"parameterUnit":"m.s-1","parameterCategory":1,"la1":30.6,"la2":28.766,"lo1":-90.7593,"lo2":-88.6598,"dy":0.0162,"dx":0.0183,"nx":116,"ny":114,"refTime":"2023-08-29T12:00:00:Z","depth":0,"parameterNumber":3,"parameterNumberName":"V-component_of_WINDS"},"data":[0.0,0.0,0.0,0.0,0.0,0.0,0.0,0.0,0.0,0.0,0.0,0.0,0.0,0.0,0.0,0.0,0.0,0.0,0.0,0.0,0.0,0.0,0.0,0.0,0.0,0.0,0.0,0.0,0.0,0.0,0.0,0.0,0.0,0.0,0.0,0.0,0.0,0.0,0.0,0.0,0.0,0.0,0.0,0.0,0.0,0.0,0.0,0.0,0.0,0.0,0.0,0.0,0.0,0.0,0.0,0.0,0.0,0.0,0.0,0.0,0.0,0.0,0.0,0.0,0.0,0.0,0.0,0.0,0.0,0.0,0.0,0.0,0.0,0.0,0.0,0.0,0.0,0.0,0.0,0.0,0.0,0.0,0.0,0.0,0.0,0.0,0.0,0.0,0.0,0.0,0.0,0.0,0.0,0.0,0.0,0.0,0.0,0.0,0.0,0.0,0.0,0.0,0.0,0.0,0.0,0.0,0.0,0.0,0.0,0.0,0.0,0.0,0.0,0.0,0.0,0.0,0.0,0.0,0.0,0.0,0.0,0.0,0.0,0.0,0.0,0.0,0.0,0.0,0.0,0.0,0.0,0.0,0.0,0.0,0.0,0.0,0.0,0.0,0.0,0.0,0.0,0.0,0.0,0.0,0.0,0.0,0.0,0.0,0.0,0.0,0.0,0.0,0.0,0.0,0.0,0.0,0.0,0.0,0.0,0.0,0.0,0.0,0.0,0.0,0.0,0.0,0.0,0.0,0.0,0.0,0.0,0.0,0.0,0.0,0.0,0.0,0.0,0.0,0.0,0.0,0.0,0.0,0.0,0.0,0.0,0.0,0.0,0.0,0.0,0.0,0.0,0.0,0.0,0.0,0.0,0.0,0.0,0.0,0.0,0.0,0.0,0.0,0.0,0.0,0.0,0.0,0.0,0.0,0.0,0.0,0.0,0.0,0.0,0.0,0.0,0.0,0.0,0.0,0.0,0.0,0.0,0.0,0.0,0.0,0.0,0.0,0.0,0.0,0.0,0.0,0.0,0.0,0.0,0.0,0.0,0.0,0.0,0.0,0.0,0.0,0.0,0.0,0.0,0.0,0.0,0.0,0.0,0.0,0.0,0.0,0.0,0.0,0.0,0.0,0.0,0.0,0.0,0.0,0.0,0.0,0.0,0.0,0.0,0.0,0.0,0.0,0.0,0.0,0.0,0.0,0.0,0.0,0.0,0.0,0.0,0.0,0.0,0.0,0.0,0.0,0.0,0.0,0.0,0.0,0.0,0.0,0.0,0.0,0.0,0.0,0.0,0.0,0.0,0.0,0.0,0.0,0.0,0.0,0.0,0.0,0.0,0.0,0.0,0.0,0.0,0.0,0.0,0.0,0.0,0.0,0.0,0.0,0.0,0.0,0.0,0.0,0.0,0.0,0.0,0.0,0.0,0.0,0.0,0.0,0.0,0.0,0.0,0.0,0.0,0.0,0.0,0.0,0.0,0.0,0.0,0.0,0.0,0.0,0.0,0.0,0.0,0.0,0.0,0.0,0.0,0.0,0.0,0.0,0.0,0.0,0.0,0.0,0.0,0.0,0.0,0.0,0.0,0.0,0.0,0.0,0.0,0.0,0.0,0.0,0.0,0.0,0.0,0.0,0.0,0.0,0.0,0.0,0.0,0.0,0.0,0.0,0.0,0.0,0.0,0.0,0.0,0.0,0.0,0.0,0.0,0.0,0.0,0.0,0.0,0.0,0.0,0.0,0.0,0.0,0.0,0.0,0.0,0.0,0.0,0.0,0.0,0.0,0.0,0.0,0.0,0.0,0.0,0.0,0.0,0.0,0.0,0.0,0.0,0.0,0.0,0.0,0.0,0.0,0.0,0.0,0.0,0.0,0.0,0.0,0.0,0.0,0.0,0.0,0.0,0.0,0.0,0.0,0.0,0.0,0.0,0.0,0.0,0.0,0.0,0.0,0.0,0.0,0.0,0.0,0.0,0.0,0.0,0.0,0.0,0.0,0.0,0.0,0.0,0.0,0.0,0.0,0.0,0.0,0.0,0.0,0.0,0.0,0.0,0.0,0.0,0.0,0.0,0.0,0.0,0.0,0.0,0.0,0.0,0.0,0.0,0.0,0.0,0.0,0.0,0.0,0.0,0.0,0.0,0.0,0.0,0.0,0.0,0.0,0.0,0.0,0.0,0.0,0.0,0.0,0.0,0.0,0.0,0.0,0.0,0.0,0.0,0.0,0.0,0.0,0.0,0.0,0.0,0.0,0.0,0.0,0.0,0.0,0.0,0.0,0.0,0.0,0.0,0.0,0.0,0.0,0.0,0.0,0.0,0.0,0.0,0.0,0.0,0.0,0.0,0.0,0.0,0.0,0.0,0.0,0.0,0.0,0.0,0.0,0.0,0.0,0.0,0.0,0.0,0.0,0.0,0.0,0.0,0.0,0.0,0.0,0.0,0.0,0.0,0.0,0.0,0.0,0.0,0.0,0.0,0.0,0.0,0.0,0.0,0.0,0.0,0.0,0.0,0.0,0.0,0.0,0.0,0.0,0.0,0.0,0.0,0.0,0.0,0.0,0.0,0.0,0.0,0.0,0.0,0.0,0.0,0.0,0.0,0.0,0.0,0.0,0.0,0.0,0.0,0.0,0.0,0.0,0.0,0.0,0.0,0.0,0.0,0.0,0.0,0.0,0.0,0.0,0.0,0.0,0.0,0.0,0.0,0.0,0.0,0.0,0.0,0.0,0.0,0.0,0.0,0.0,0.0,0.0,0.0,0.0,0.0,0.0,0.0,0.0,0.0,0.0,0.0,0.0,0.0,0.0,0.0,0.0,0.0,0.0,0.0,0.0,0.0,0.0,0.0,0.0,0.0,0.0,0.0,0.0,0.0,0.0,0.0,0.0,0.0,0.0,0.0,0.0,0.0,0.0,0.0,0.0,0.0,0.0,0.0,0.0,0.0,0.0,0.0,0.0,0.0,0.0,0.0,0.0,0.0,0.0,0.0,0.0,0.0,0.0,0.0,0.0,0.0,0.0,0.0,0.0,0.0,0.0,0.0,0.0,0.0,0.0,0.0,0.0,0.0,0.0,0.0,0.0,0.0,0.0,0.0,0.0,0.0,0.0,0.0,0.0,0.0,0.0,0.0,0.0,0.0,0.0,0.0,0.0,0.0,0.0,0.0,0.0,0.0,0.0,0.0,0.0,0.0,0.0,0.0,0.0,0.0,0.0,0.0,0.0,0.0,0.0,0.0,0.0,0.0,0.0,0.0,0.0,0.0,0.0,0.0,0.0,0.0,0.0,0.0,0.0,0.0,0.0,0.0,0.0,0.0,0.0,0.0,0.0,0.0,0.0,0.0,0.0,0.0,0.0,0.0,0.0,0.0,0.0,0.0,0.0,0.0,0.0,0.0,0.0,0.0,0.0,0.0,0.0,0.0,0.0,0.0,0.0,0.0,0.0,0.0,0.0,0.0,0.0,0.0,0.0,0.0,0.0,0.0,0.0,0.0,0.0,0.0,0.0,0.0,0.0,0.0,0.0,0.0,0.0,0.0,0.0,0.0,0.0,0.0,0.0,0.0,0.0,0.0,0.0,0.0,0.0,0.0,0.0,0.0,0.0,0.0,0.0,0.0,0.0,0.0,0.0,0.0,0.0,0.0,0.0,0.0,0.0,0.0,0.0,0.0,0.0,0.0,0.0,0.0,0.0,0.0,0.0,0.0,0.0,0.0,0.0,0.0,0.0,0.0,0.0,0.0,0.0,0.0,0.0,0.0,0.0,0.0,0.0,0.0,0.0,0.0,0.0,0.0,0.0,0.0,0.0,0.0,0.0,0.0,0.0,0.0,0.0,0.0,0.0,0.0,0.0,0.0,0.0,0.0,0.0,0.0,0.0,0.0,0.0,0.0,0.0,0.0,0.0,0.0,0.0,0.0,0.0,0.0,0.0,0.0,0.0,0.0,0.0,0.0,0.0,0.0,0.0,0.0,0.0,0.0,0.0,0.0,0.0,0.0,0.0,0.0,0.0,0.0,0.0,0.0,0.0,0.0,0.0,0.0,0.0,0.0,0.0,0.0,0.0,0.0,0.0,0.0,0.0,0.0,0.0,0.0,0.0,0.0,0.0,0.0,0.0,0.0,0.0,0.0,0.0,0.0,0.0,0.0,0.0,0.0,0.0,0.0,0.0,0.0,0.0,0.0,0.0,0.0,0.0,0.0,0.0,0.0,0.0,0.0,0.0,0.0,0.0,0.0,0.0,0.0,0.0,0.0,0.0,0.0,0.0,0.0,0.0,0.0,0.0,0.0,0.0,0.0,0.0,0.0,0.0,0.0,0.0,0.0,0.0,0.0,0.0,0.0,0.0,0.0,0.0,0.0,0.0,0.0,0.0,0.0,0.0,0.0,0.0,0.0,0.0,0.0,0.0,0.0,0.0,0.0,0.0,0.0,0.0,0.0,0.0,0.0,0.0,0.0,0.0,0.0,0.0,0.0,0.0,0.0,0.0,0.0,0.0,0.0,0.0,0.0,0.0,0.0,0.0,0.0,0.0,0.0,0.0,0.0,0.0,0.0,0.0,0.0,0.0,0.0,0.0,0.0,0.0,0.0,0.0,0.0,0.0,0.0,0.0,0.0,0.0,0.0,0.0,0.0,0.0,0.0,0.0,0.0,0.0,0.0,0.0,0.0,0.0,0.0,0.0,0.0,0.0,0.0,0.0,0.0,0.0,0.0,0.0,0.0,0.0,0.0,0.0,0.0,0.0,0.0,0.0,0.0,0.0,0.0,0.0,0.0,0.0,0.0,0.0,0.0,0.0,0.0,0.0,0.0,0.0,0.0,0.0,0.0,0.0,0.0,0.0,0.0,0.0,0.0,0.0,0.0,0.0,0.0,0.0,0.0,0.0,0.0,0.0,0.0,0.0,0.0,0.0,0.0,0.0,0.0,0.0,0.0,0.0,0.0,0.0,0.0,0.0,0.0,0.0,0.0,0.0,0.0,0.0,0.0,0.0,0.0,0.0,0.0,0.0,0.0,0.0,0.0,0.0,0.0,0.0,0.0,0.0,0.0,0.0,0.0,0.0,0.0,0.0,0.0,0.0,0.0,0.0,0.0,0.0,0.0,0.0,0.0,0.0,0.0,0.0,0.0,0.0,0.0,0.0,0.0,0.0,0.0,0.0,0.0,0.0,0.0,0.0,0.0,0.0,0.0,0.0,0.0,0.0,0.0,0.0,0.0,0.0,0.0,0.0,0.0,0.0,0.0,0.0,0.0,0.0,0.0,0.0,0.0,0.0,0.0,0.0,0.0,0.0,0.0,0.0,0.0,0.0,0.0,0.0,0.0,0.0,0.0,0.0,0.0,0.0,0.0,0.0,0.0,0.0,0.0,0.0,0.0,0.0,0.0,0.0,0.0,0.0,0.0,0.0,0.0,0.0,0.0,0.0,0.0,0.0,0.0,0.0,0.0,0.0,0.0,0.0,0.0,0.0,0.0,0.0,0.0,0.0,0.0,0.0,0.0,0.0,0.0,0.0,0.0,0.0,0.0,0.0,0.0,0.0,0.0,0.0,0.0,0.0,0.0,0.0,0.0,0.0,0.0,0.0,0.0,0.0,0.0,0.0,0.0,0.0,0.0,0.0,0.0,0.0,0.0,0.0,0.0,0.0,0.0,0.0,0.0,0.0,0.0,0.0,0.0,0.0,0.0,0.0,0.0,0.0,0.0,0.0,0.0,0.0,0.0,0.0,0.0,0.0,0.0,0.0,0.0,0.0,0.0,0.0,0.0,0.0,0.0,0.0,0.0,0.0,0.0,0.0,0.0,0.0,0.0,0.0,0.0,0.0,0.0,0.0,0.0,0.0,0.0,0.0,0.0,0.0,0.0,0.0,0.0,0.0,0.0,0.0,0.0,0.0,0.0,0.0,0.0,0.0,0.0,0.0,0.0,0.0,0.0,0.0,0.0,0.0,0.0,0.0,0.0,0.0,0.0,0.0,0.0,0.0,0.0,0.0,0.0,0.0,0.0,0.0,0.0,0.0,0.0,0.0,0.0,0.0,0.0,0.0,0.0,0.0,0.0,0.0,0.0,0.0,0.0,0.0,0.0,0.0,0.0,0.0,0.0,0.0,1.0109,0.9456,0.0,0.0,0.0,0.0,0.0,0.0,0.0,0.0,0.0,0.0,0.0,0.0,0.0,0.0,0.0,0.0,0.0,0.0,0.0,0.0,0.0,0.0,0.0,0.0,0.0,0.0,0.0,0.0,0.0,0.0,0.0,0.0,0.0,0.0,0.0,0.0,0.0,0.8804,0.9085,0.9626,1.0375,1.0816,1.0901,1.0759,0.0,0.0,0.0,0.0,0.0,0.0,0.0,0.0,0.0,0.0,0.0,0.0,0.0,0.0,0.0,0.0,0.0,0.0,0.0,0.0,0.0,0.0,0.0,0.0,0.0,0.0,0.0,0.0,0.0,0.0,0.0,0.0,0.0,0.0,0.0,0.0,0.0,0.0,0.0,0.0,0.0,0.0,0.0,0.0,0.0,0.0,0.0,0.0,0.0,0.0,0.0,0.0,0.0,0.0,0.0,0.0,0.0,0.0,0.0,0.0,0.0,0.0,0.0,0.0,0.0,0.0,0.0,0.0,0.0,0.0,1.1585,1.095,0.0,0.0,0.0,0.0,0.0,0.0,0.0,0.0,0.0,0.0,0.0,0.0,0.0,0.0,0.0,0.0,0.0,0.0,0.0,0.0,0.0,0.0,0.0,0.8123,0.847,0.8524,0.8751,0.8778,0.0,0.0,0.0,0.0,0.0,0.0,0.8377,0.843,0.8669,0.9018,0.9874,1.0954,1.2333,1.3319,1.355,1.3134,1.2691,0.0,0.0,0.0,0.0,0.0,0.0,0.0,0.0,0.0,0.0,0.0,0.0,0.0,0.0,0.0,0.0,0.0,0.0,0.0,0.0,0.0,0.0,0.0,0.0,0.0,0.0,0.0,0.0,0.0,0.0,0.0,0.0,0.0,0.0,0.0,0.0,0.0,0.0,0.0,0.0,0.0,0.0,0.0,0.0,0.0,0.0,0.0,0.0,0.0,0.0,0.0,0.0,0.0,0.0,0.0,0.0,0.0,0.0,0.0,0.0,0.0,0.0,0.0,1.4148,1.4309,1.4549,1.4549,1.4696,1.4897,1.3373,1.2868,1.3015,1.2018,0.0,0.0,0.0,0.0,0.0,0.0,0.0,0.0,0.0,0.0,0.0,0.0,0.0,0.0,0.0,0.0,0.0,0.0,0.0,0.0,0.0,0.855,0.8844,0.9044,0.911,0.911,0.907,0.0,0.0,0.0,0.0,0.0,0.8377,0.8617,0.9126,0.9852,1.1632,1.3241,1.4668,1.5498,1.6669,1.8095,1.6244,1.5632,1.5873,0.0,0.0,0.0,0.0,0.0,0.0,0.0,0.0,0.0,0.0,0.0,0.0,0.0,0.0,0.0,0.0,0.0,0.0,0.0,0.0,0.0,0.0,0.0,0.0,0.0,0.0,0.0,0.0,0.0,0.0,0.0,0.0,0.0,0.0,0.0,0.0,0.0,0.0,0.0,0.0,0.0,1.0501,1.0835,0.0,0.0,0.0,0.0,0.0,0.0,0.0,0.0,0.0,0.0,0.0,0.0,0.0,1.3975,1.4603,1.515,1.5591,1.5925,1.6179,1.6326,1.6366,1.6366,1.6526,1.678,1.6286,0.0,1.3935,1.3439,0.0,0.0,0.0,0.0,0.0,0.0,0.0,0.0,0.0,0.0,0.0,0.0,0.0,0.0,0.0,0.0,0.0,0.0,0.0,0.0,0.0,0.9072,0.9659,0.9953,1.0274,1.0261,0.9766,0.9339,0.0,0.0,0.0,0.8203,0.8377,0.8923,1.0231,1.2415,1.3863,1.5592,1.7616,1.8749,2.0024,2.1257,2.0979,2.0039,1.8602,1.8428,0.0,0.0,0.0,0.0,0.0,0.0,0.0,0.0,0.0,0.0,0.0,0.0,0.0,0.0,0.0,0.0,0.0,0.0,0.0,0.0,0.0,0.0,0.0,0.0,0.0,0.0,0.0,0.0,0.0,0.0,0.0,0.0,0.0,0.0,0.0,0.0,0.0,0.0,0.0,1.0354,1.0915,1.1196,1.1383,1.1423,0.0,0.0,0.0,0.0,0.0,0.0,0.0,0.0,0.0,1.4933,1.5363,1.6047,1.7036,1.7264,1.7612,1.8287,1.8211,1.836,1.8741,1.8632,1.87,1.8933,1.8687,1.7898,1.6742,1.508,1.4055,1.3494,0.0,0.0,0.0,0.0,1.2426,1.2441,0.0,0.0,0.0,0.0,0.0,0.0,0.0,0.0,0.0,0.0,0.0,0.0,0.8871,0.998,1.0822,1.1209,1.1637,1.1503,1.0621,1.0154,0.9486,0.8524,0.835,0.8337,0.8535,0.9953,1.2072,1.4942,1.6413,1.8209,2.0466,2.1907,2.3087,2.4053,2.5077,2.401,2.1577,2.1006,1.9949,1.8471,0.0,0.0,0.0,0.0,0.0,0.0,0.0,0.0,0.0,0.0,0.0,0.0,0.0,0.0,0.0,0.0,0.0,0.0,0.0,0.0,0.0,0.0,0.0,0.0,0.0,0.0,0.0,0.0,0.0,0.0,0.0,0.0,0.0,0.0,0.0,0.0,0.0,1.1088,1.1749,1.2123,1.2512,1.264,0.0,0.0,0.0,0.0,0.0,0.0,1.4866,1.5545,1.6245,1.7194,1.7626,1.8189,1.9213,1.9287,1.971,2.0402,2.0245,2.0413,2.0872,2.0639,2.0639,2.0872,2.0639,2.0099,1.9445,1.6792,1.5484,1.5003,1.4282,1.3948,1.3895,1.3961,1.405,1.4163,0.0,0.0,0.0,0.0,0.0,0.0,0.0,0.0,0.0,0.0,0.0,0.9192,1.0389,1.149,1.2438,1.3026,1.3106,1.2746,1.1837,1.1048,0.9993,0.8831,0.9031,0.9099,0.8988,1.2173,1.4801,1.6732,1.9301,2.1423,2.3015,2.459,2.5815,2.6683,2.7439,2.655,2.4444,2.3209,2.2112,2.0914,1.848,0.0,0.0,0.0,0.0,0.0,0.0,0.0,0.0,0.0,0.0,0.0,0.0,0.0,0.0,0.0,0.0,0.0,0.0,0.0,0.0,0.0,0.0,0.0,0.0,0.0,0.0,0.0,0.0,0.0,0.0,0.0,0.0,0.0,0.0,0.0,0.0,0.0,0.0,1.4255,1.4781,0.0,0.0,0.0,0.0,1.4379,1.5217,1.614,1.7046,1.798,1.8818,1.9775,2.0332,2.07,2.0759,2.1377,2.1715,2.1744,2.1935,2.2081,2.2096,2.2096,2.2096,2.2096,2.2096,2.1787,2.1031,1.881,1.7355,1.6567,1.6246,1.5952,1.5725,1.6019,1.6126,1.6179,0.0,0.0,0.0,0.0,0.0,0.0,0.0,0.0,0.7455,0.7835,0.8764,0.982,1.0982,1.2655,1.3926,1.4538,1.5122,1.496,1.3839,1.2718,1.1653,1.0629,1.0117,1.0604,1.2282,1.4778,1.7368,2.0008,2.2171,2.4079,2.5711,2.6886,2.7701,2.8339,2.8823,2.8552,2.7748,2.5877,2.4074,2.2407,2.0755,1.8765,0.0,0.0,0.0,0.0,0.0,0.0,0.0,0.0,0.0,0.0,0.0,0.0,0.0,0.0,0.0,0.0,0.0,0.0,0.0,0.0,0.0,0.0,0.0,0.0,0.0,0.0,0.0,0.0,0.0,0.0,0.0,0.0,0.0,0.0,0.0,0.0,0.0,1.5539,1.6516,0.0,1.6952,1.7371,1.7594,1.772,1.837,1.9271,2.0574,2.1495,2.2386,2.3403,2.3882,2.4243,2.4739,2.4374,2.4499,2.4987,2.4389,2.4342,2.4706,2.4221,2.4342,2.4722,2.4221,2.3777,2.3303,2.1891,2.0231,1.8428,1.8129,1.7725,1.7275,1.7382,1.7408,1.7395,0.0,0.0,0.0,0.0,0.0,0.0,0.0,0.0,0.7655,0.8163,0.9395,1.0816,1.2303,1.431,1.5894,1.6612,1.7266,1.6915,1.5503,1.4301,1.3129,1.2022,1.1814,1.2952,1.5557,1.7714,2.0121,2.2832,2.4838,2.6467,2.7767,2.8872,2.9389,2.9698,3.0198,3.0293,2.9922,2.834,2.6426,2.4336,2.2785,2.0854,1.8762,0.0,0.0,0.0,0.0,0.0,0.0,0.0,0.0,0.0,0.0,0.0,0.0,0.0,0.0,0.0,0.0,0.0,0.0,0.0,0.0,0.0,0.0,0.0,0.0,0.0,0.0,0.0,0.0,0.0,0.0,0.0,0.0,0.0,0.0,1.5007,1.6742,1.7882,1.9437,2.0326,2.0416,2.1001,2.1267,2.0981,2.1651,2.2511,2.3541,2.4392,2.532,2.6399,2.6653,2.7027,2.7668,2.691,2.6827,2.7322,2.6461,2.6294,2.6796,2.6294,2.6294,2.6675,2.6294,2.5781,2.5326,2.4738,2.323,2.1235,2.0373,1.9864,1.9444,1.9222,1.9084,1.9015,0.0,0.0,0.0,0.0,0.0,0.0,0.6985,0.7281,0.7802,0.8711,1.0356,1.2248,1.4296,1.643,1.8134,1.9273,1.9286,1.855,1.6814,1.5725,1.4421,1.2879,1.4103,1.6021,1.8543,2.087,2.3082,2.5277,2.7243,2.8516,2.918,3.0412,3.0937,3.0976,3.1797,3.1719,3.0898,3.043,2.9043,2.6934,2.4336,2.2668,2.153,0.0,0.0,0.0,0.0,0.0,0.0,0.0,0.0,0.0,0.0,0.0,0.0,0.0,0.0,0.0,0.0,0.0,0.0,0.0,0.0,0.0,0.0,0.0,0.0,0.0,0.0,0.0,0.0,0.0,0.0,0.0,0.0,0.0,1.5113,1.7355,1.976,2.1417,2.3492,2.4872,2.5036,2.5508,2.5264,2.4138,2.4923,2.56,2.5994,2.6603,2.7577,2.8832,2.8957,2.9083,2.9351,2.8923,2.8709,2.8692,2.8318,2.814,2.814,2.8122,2.8122,2.8122,2.8104,2.7744,2.7021,2.7021,2.6294,2.5008,2.3022,2.2289,2.2125,2.1582,2.1334,2.1117,0.0,0.0,0.0,0.0,0.0,0.0,0.6985,0.7468,0.8203,0.9299,1.0985,1.3028,1.5571,1.7867,1.9613,2.0481,2.0854,2.0265,1.8394,1.7106,1.6,1.51,1.6941,1.9042,2.1182,2.3233,2.5307,2.7281,2.8993,3.0045,3.0431,3.1406,3.1816,3.1816,3.207,3.2031,3.1797,3.1348,3.082,3.0059,2.7461,2.5527,2.401,0.0,0.0,0.0,0.0,0.0,0.0,0.0,0.0,0.0,0.0,0.0,0.0,0.0,0.0,0.0,0.0,0.0,0.0,0.0,0.0,0.0,0.0,0.0,0.0,0.0,0.0,0.0,0.0,0.0,0.0,0.0,1.6353,1.7993,1.7088,1.9433,2.1744,2.334,2.5477,2.7046,2.7287,2.789,2.8051,2.7811,2.8044,2.8604,2.9524,3.0048,3.0809,3.1909,3.1634,3.1617,3.2022,3.1043,3.0673,3.0922,3.0267,3.0082,3.0307,2.9767,2.9638,2.986,2.9305,2.8938,2.8701,2.8224,2.7864,2.7366,2.5214,2.39,2.3187,2.2977,2.2409,2.1482,0.0,0.0,0.0,0.0,0.0,0.0,0.6985,0.749,0.8404,0.9874,1.1622,1.3887,1.686,1.9043,2.0857,2.1876,2.1946,2.1319,1.9677,1.8365,1.7848,1.8197,2.0024,2.2053,2.429,2.6069,2.777,2.9298,3.0586,3.1287,3.1445,3.2129,3.2519,3.2695,3.2891,3.2969,3.2949,3.2695,3.248,3.2187,3.0684,2.8711,2.6621,2.5819,2.4179,2.2342,2.158,2.055,1.9334,1.8231,0.0,0.0,0.0,0.0,0.0,0.0,0.0,0.0,0.0,0.0,0.0,0.0,0.0,0.0,0.0,0.0,0.0,0.0,0.0,0.0,0.0,0.0,0.0,0.0,1.8859,2.0953,2.1292,2.3006,2.4713,2.6251,2.8217,2.9592,3.0204,3.0692,3.1021,3.0827,3.092,3.1267,3.1854,3.2152,3.2618,3.3653,3.3294,3.3348,3.3566,3.2638,3.2199,3.2152,3.1608,3.1417,3.1642,3.0978,3.0787,3.0888,3.0329,2.9903,2.9785,2.9431,2.9076,2.8719,0.0,0.0,0.0,0.0,2.3504,2.2195,0.0,0.0,0.0,0.0,0.0,0.0,0.6985,0.749,0.8508,1.0237,1.2183,1.4647,1.7918,2.0038,2.1727,2.3149,2.2779,2.1844,2.0558,1.9728,1.9975,2.1571,2.3279,2.5181,2.7356,2.8823,3.0179,3.1223,3.1891,3.2266,3.2324,3.2734,3.3164,3.3574,3.3965,3.418,3.4219,3.416,3.3945,3.3633,3.3594,3.1855,2.9199,2.8183,2.6705,2.516,2.4355,2.354,2.2528,2.153,0.0,0.0,0.0,0.0,0.0,0.0,0.0,0.0,0.0,0.0,0.0,0.0,0.0,0.0,0.0,0.0,0.0,0.0,0.0,0.0,0.0,0.0,0.0,0.0,2.1572,2.4007,2.657,2.7535,2.8395,2.9529,3.1095,3.2416,3.3177,3.3513,3.3666,3.3369,3.3406,3.3425,3.3481,3.3481,0.0,0.0,0.0,3.4347,3.4219,3.375,3.3301,3.293,3.2519,3.2305,3.2285,3.1855,3.1641,3.1562,3.1152,3.0801,3.0509,3.0509,3.0138,2.9431,2.8462,2.8104,2.7896,2.6299,2.4763,2.3399,0.0,0.0,0.0,0.0,0.0,0.0,0.6985,0.749,0.8508,1.0223,1.2064,1.4456,1.7741,2.0012,2.1613,2.2565,2.2465,2.1858,2.0693,2.1315,2.2422,2.3767,2.5737,2.7587,2.9259,3.0315,3.1146,3.2051,3.2461,3.2851,3.3184,3.3613,3.4043,3.4453,3.4531,3.4785,3.5117,3.4726,3.4746,3.498,3.4609,3.3281,3.1484,3.0976,2.9575,2.8019,2.7591,2.6473,2.5139,2.407,2.2962,2.1585,1.9454,1.7899,0.0,0.0,0.0,0.0,0.0,0.0,0.0,0.0,0.0,0.0,0.0,0.0,0.0,0.0,0.0,0.0,0.0,0.0,0.0,2.1525,2.4878,2.7779,2.9133,3.1176,3.2078,3.128,3.2637,3.3743,3.3915,3.4309,3.4478,3.4425,3.4444,3.4599,3.4968,3.4987,3.5142,3.5626,3.5296,3.5215,3.5137,3.4336,3.3906,3.3828,3.3379,0.0,3.3164,3.2734,3.2363,3.2012,3.1582,3.1191,3.0762,3.0762,3.0762,3.0528,2.9331,2.8856,2.8628,2.7133,2.6203,2.5554,0.0,0.0,0.0,0.0,0.0,0.0,0.6985,0.749,0.845,0.9981,1.1721,1.397,1.6911,1.8938,2.053,2.1471,2.1741,2.1755,2.1543,2.2717,2.4368,2.6299,2.7999,2.9505,3.0936,3.1789,3.2552,3.3125,3.3535,3.3848,3.4062,3.4556,3.5008,3.5618,3.5884,3.6261,3.6876,3.6638,3.6677,3.6583,3.613,3.5171,3.3984,3.2891,3.168,3.0469,2.9824,2.8933,2.7951,2.6872,2.5939,2.4881,2.2945,2.121,1.9441,0.0,0.0,0.0,0.0,0.0,0.0,0.0,0.0,0.0,0.0,0.0,0.0,0.0,0.0,1.7022,1.8632,0.0,2.2767,2.5127,2.7868,3.028,3.1724,3.3293,3.3956,3.2992,3.3783,3.4522,3.4754,3.4906,3.5137,3.5351,3.5351,3.5469,3.5703,3.5703,3.5801,3.6016,3.582,3.5605,3.5391,3.4961,3.4512,3.4082,3.3848,3.3633,3.3398,3.2988,3.2676,3.2441,3.1797,3.1406,3.1191,3.0976,3.0898,3.0898,3.0176,2.9804,2.9592,2.8288,2.7518,2.6936,0.0,0.0,0.0,0.0,0.0,0.0,0.0,0.7495,0.8358,0.9746,1.1331,1.3298,1.5786,1.7614,1.9136,2.0292,2.0798,2.1504,2.2441,2.4023,2.6016,2.8437,2.9844,3.1152,3.2383,3.3164,3.3769,3.4199,3.4531,3.4785,3.5073,3.5488,3.623,3.7069,3.7476,3.8057,3.8807,3.8865,3.8606,3.8247,3.7629,3.7054,3.6112,3.4524,3.3164,3.2168,3.1328,3.0605,2.9961,2.8959,2.825,2.7651,2.6021,2.4291,2.2281,1.9985,1.7968,0.0,0.0,0.0,0.0,0.0,0.0,0.0,0.0,1.662,1.7492,1.7991,1.8973,2.033,2.2104,2.3974,2.603,2.8616,3.057,3.2206,3.3741,3.4623,3.4931,3.4487,3.477,3.5098,3.5488,3.5508,3.5664,3.5996,3.6016,3.6016,3.6016,3.6016,3.6016,3.6016,3.6016,3.5859,3.5527,3.543,3.5039,3.4316,3.4238,3.3965,3.3535,3.3203,3.2949,3.2754,3.1894,3.1523,3.1484,3.1055,3.0898,3.0898,3.0898,3.0762,3.0412,2.9298,2.8521,2.7881,0.0,0.0,0.0,0.0,0.0,0.0,0.0,0.0,0.8077,0.9415,1.0855,1.2543,1.4592,1.636,1.7807,1.8744,1.998,2.1172,2.2441,2.5156,2.7539,2.9355,3.1055,3.2363,3.3262,3.375,3.4199,3.4629,3.4668,3.523,3.64,3.6804,3.7556,3.8779,3.9467,3.9896,3.9956,3.9938,3.9744,3.9414,3.8647,3.8064,3.7425,3.6063,3.4418,3.2617,3.1758,3.0664,2.957,2.9082,2.8398,2.7532,2.6801,2.5424,2.3805,2.2091,2.0105,1.8189,1.7157,1.6602,1.6324,1.6465,1.7064,1.7788,0.0,1.9205,2.0327,2.0965,2.2847,2.4617,2.579,2.7815,2.9801,3.1037,3.2726,3.4107,3.4662,3.5433,3.5646,3.5371,3.5644,3.5898,3.5937,3.5957,3.5976,3.6016,3.6016,3.6016,3.6016,3.6016,3.6016,3.6016,3.6016,3.5996,3.5957,3.5586,3.5351,3.5234,3.4824,3.4414,3.4004,3.3945,3.3516,3.2754,3.1894,3.1523,3.1484,3.1055,3.0898,3.0898,3.0898,3.0898,3.0704,2.9987,2.9336,2.884,0.0,0.0,0.0,0.0,0.0,0.0,0.0,0.0,0.0,0.8951,1.0182,1.1551,1.3009,1.4514,1.5826,1.6747,1.8414,2.0255,2.2213,2.5373,2.8155,3.0596,3.2354,3.3559,3.4425,3.5361,3.607,3.6515,3.6884,3.7597,3.8391,3.8957,3.9836,4.07,4.1525,4.2058,4.2492,4.2297,4.1925,4.1215,4.0063,3.9089,3.8146,3.6456,3.4544,3.2635,3.1523,3.0148,0.0,2.8447,2.7793,2.7305,2.7279,2.6203,2.4622,2.3271,2.1429,1.9733,1.8802,1.8679,1.8938,1.9843,2.0812,2.1811,2.3049,2.4042,2.5086,2.6045,2.7159,2.823,2.9264,3.0829,3.2211,3.3063,3.4467,3.5333,3.551,3.5549,3.5586,3.541,3.5312,3.5351,3.5625,3.5664,3.5762,3.5996,3.6016,3.6016,3.6016,3.6016,3.6016,3.6016,3.6016,3.6016,3.6016,3.584,3.5625,3.5391,3.5195,3.4863,3.4434,3.418,3.3613,3.2754,3.2148,3.1758,3.1484,3.1055,3.0898,3.0898,3.0898,3.0898,3.084,3.0256,2.9715,2.9288,0.0,0.0,0.0,0.0,0.0,0.0,0.0,0.0,0.0,0.0,0.9642,1.0764,1.2009,1.3077,1.4128,1.52,1.6899,1.9165,2.1832,2.516,2.8213,3.1047,3.3072,3.4639,3.5834,3.6912,3.7852,3.8502,3.9164,3.9833,4.0393,4.1079,4.1841,4.2826,4.3668,4.4279,4.4732,4.4618,4.393,4.3149,4.1791,4.0494,3.9108,3.6725,3.4427,3.2292,3.073,2.9203,2.7811,2.7055,2.6484,2.6191,2.6504,2.5781,2.4562,2.3635,2.2372,2.1134,2.0518,2.0905,2.1873,2.3243,2.4579,2.5878,2.7531,2.8537,2.9252,3.023,3.0828,3.1429,3.1924,3.3077,3.4139,3.4431,3.5295,3.6053,3.5898,3.5469,3.5117,3.4883,3.4453,3.4316,3.4648,3.5,3.5371,3.582,3.584,3.5898,3.6016,3.6016,3.6016,3.6016,3.6016,3.6016,3.6016,3.6016,3.5859,3.5566,3.5566,3.5254,3.4687,3.4141,3.3555,3.293,3.2402,3.1992,3.166,3.1113,3.0898,3.0898,3.0898,3.0898,3.0859,3.0508,3.0039,2.9531,0.0,0.0,0.0,0.0,0.0,0.0,0.0,0.0,0.0,0.0,0.0,0.0,0.0,1.2482,1.3077,1.4337,1.5753,1.7962,2.1186,2.4333,2.7539,3.0551,3.3135,3.5428,3.7535,3.8298,3.9368,4.0665,4.0707,4.1216,4.2354,4.2764,4.369,4.5255,4.5955,4.6248,4.6358,4.6271,4.5843,4.5096,4.3509,4.1926,4.0298,3.7374,3.4307,3.1445,2.9586,2.7657,2.6051,2.4898,2.4238,2.3887,2.3906,2.3594,2.3242,2.3203,2.2882,2.2391,2.2353,2.3533,2.5135,2.6646,2.8063,2.9398,3.0636,3.1542,3.2114,3.2556,3.3545,3.3997,3.3233,3.4334,3.5316,3.4912,3.5472,3.5898,3.5469,3.5019,3.4414,3.3574,3.3105,3.2851,3.2871,3.4004,3.4922,3.5371,3.541,3.5586,3.5996,3.6016,3.6016,3.6016,3.6016,3.6016,3.6016,3.6016,3.6016,3.5996,3.5996,3.5547,3.4668,3.3828,3.3437,3.3359,3.2519,3.2168,3.209,3.123,3.0898,3.0898,3.0898,3.0898,3.0898,3.0879,3.0312,2.957,0.0,0.0,0.0,0.0,0.0,0.0,0.0,0.0,0.0,0.0,0.0,0.0,0.0,0.0,0.0,0.0,1.3909,1.5936,1.8826,2.2385,2.578,2.8705,3.1856,3.4304,3.6146,3.7802,3.93,4.0628,4.1611,4.2564,4.3402,4.414,4.4921,4.561,4.6179,4.6569,4.6674,4.6439,4.5964,4.4889,4.3275,4.1194,3.8799,3.5457,3.2189,2.8934,0.0,2.4075,2.3293,2.2487,2.1816,2.1367,2.2246,2.2031,2.1543,2.1961,2.2755,2.3875,2.5013,2.6654,2.8314,3.0111,3.1598,3.2906,3.403,3.4471,3.472,3.4873,3.4585,3.3931,3.3085,3.3521,3.4031,3.3475,3.4362,3.5098,3.4961,3.4316,3.375,3.3457,3.2812,3.2383,3.2383,3.3281,3.4043,3.4492,3.5059,3.5449,3.5605,3.5859,3.6016,3.6016,3.6016,3.6016,3.6016,3.6016,3.6016,3.6016,3.5742,3.5137,3.4277,3.3984,3.3555,3.2969,3.2422,3.2012,3.1699,3.1133,3.0898,3.0898,3.0898,3.0898,3.0898,3.0898,3.0508,2.9941,0.0,0.0,0.0,0.0,0.0,0.0,0.0,0.0,0.0,0.0,0.0,0.0,0.0,0.0,0.0,0.0,0.0,1.4288,1.7065,2.0292,2.3461,2.6613,2.9843,3.249,3.4398,3.6545,3.8371,3.9659,4.0814,4.1853,4.2555,4.3322,4.3831,4.4326,4.4473,4.4719,4.5086,4.4596,4.3916,4.2783,4.1141,3.8896,3.626,3.29,2.9576,0.0,2.2959,2.1136,2.0206,2.0232,1.9922,1.9668,2.082,2.1211,2.1367,2.1768,2.357,2.5819,2.7583,2.9468,3.1296,3.3262,3.4425,3.5336,3.6309,3.6367,3.6113,3.5644,3.4512,3.3262,3.209,3.2226,3.2422,3.2168,3.332,3.4238,3.4238,3.3769,3.3359,3.3223,3.2598,3.2168,3.2168,3.2793,3.3379,3.3809,3.4648,3.5215,3.5391,3.5801,3.6016,3.6016,3.6016,3.6016,3.6016,3.6016,3.5937,3.5781,3.5195,3.4629,3.4062,3.375,3.332,3.2754,3.2187,3.1777,3.1484,3.1055,3.0898,3.0898,3.0898,3.0898,3.0898,3.0898,3.0586,3.0137,0.0,0.0,0.0,0.0,0.0,0.0,0.0,0.0,0.0,0.0,0.0,0.0,0.0,0.0,0.0,0.0,0.0,0.0,1.5926,1.804,2.068,2.421,2.7212,2.9942,3.2347,3.4334,3.6084,3.7713,3.8256,3.8911,3.9906,4.0206,4.0697,4.1314,4.1063,4.1177,4.1403,4.0812,3.9985,3.8933,3.719,3.5132,3.2868,2.951,2.6469,2.3595,2.1021,1.8785,1.7169,1.8213,1.8652,1.8887,1.9805,2.1269,2.2656,2.2754,2.5176,2.8203,2.9961,3.1992,3.4023,3.5723,3.6465,3.6855,3.7187,3.6894,3.6152,3.4824,3.3457,3.1973,3.0273,3.0312,3.0605,3.0684,3.2129,3.3281,3.334,3.3379,3.3242,3.2851,3.2441,3.2207,3.2207,3.2598,3.3027,3.3418,3.4219,3.4902,3.5371,3.5801,3.6016,3.6016,3.6016,3.6016,3.5996,3.5957,3.5742,3.5312,3.4473,3.4043,3.3984,3.3164,3.2773,3.2676,3.1875,3.1504,3.1445,3.1055,3.0898,3.0898,3.0898,3.0898,3.0898,3.0898,3.0586,3.0137,0.0,0.0,0.0,0.0,0.0,0.0,0.0,0.0,0.0,0.0,0.0,0.0,0.0,0.0,0.0,0.0,0.0,0.0,1.3629,1.5956,1.8222,2.0575,2.3247,2.553,2.7367,2.9375,3.0949,3.2117,3.3433,3.4535,3.5357,3.5692,3.615,3.6614,3.6411,3.6411,3.6488,3.5901,3.5349,3.4509,3.2606,3.0734,2.8641,2.5516,2.2972,2.0765,1.8609,1.7347,1.6899,1.748,1.8769,2.0332,2.1855,2.3301,2.4668,2.5977,2.8125,3.0586,3.291,3.4902,3.6562,3.7656,3.8008,3.7871,3.7031,3.5742,3.4277,3.2656,3.0273,2.8164,2.707,2.6699,2.6875,2.7851,2.9687,3.1367,3.2344,3.2754,3.291,3.2812,3.2695,3.2637,3.2637,3.3301,3.3789,3.3906,3.4394,3.4902,3.5371,3.5801,3.6016,3.6016,3.6016,3.5879,3.5566,3.5215,3.4824,3.4414,3.418,3.373,3.3105,3.2891,3.2441,3.1836,3.1621,3.1348,3.1055,3.0937,3.0898,3.0898,3.0898,3.0898,3.0898,3.0898,3.0586,3.0137,0.0,0.0,0.0,0.0,0.0,0.0,0.0,0.0,0.0,0.0,0.0,0.0,0.0,0.0,0.0,0.0,0.0,0.0,0.0,1.4063,1.5875,1.764,1.9918,2.1764,2.295,2.4876,2.6294,2.7143,2.8426,2.9332,3.0025,3.0295,3.0612,3.0785,3.0519,3.043,3.0407,2.995,2.919,0.0,0.0,2.5301,2.3486,2.125,1.961,1.8359,1.6918,1.6766,1.7559,1.9336,2.0957,2.2559,2.4297,2.5977,2.7578,2.8965,3.1016,3.3301,3.5293,3.6953,3.8242,3.873,3.8574,3.7851,3.6191,3.4336,3.2305,3.0019,2.7441,2.5332,2.4473,2.4277,2.4785,2.6465,2.8535,3.0449,3.1953,3.2695,3.3066,3.3066,3.3242,3.3359,3.3359,3.3965,3.4564,3.4871,3.5107,3.5362,3.5618,3.6321,3.6694,3.6694,3.6629,3.631,3.5739,3.504,3.4556,3.432,3.4123,3.369,3.304,3.2966,3.2512,3.1742,3.1545,3.1211,3.0898,3.0898,3.0898,3.0898,3.0898,3.0898,3.0859,3.0664,3.043,3.0117,0.0,0.0,0.0,0.0,0.0,0.0,0.0,0.0,0.0,0.0,0.0,0.0,0.0,0.0,0.0,0.0,0.0,0.0,0.0,0.0,1.3938,1.5345,1.7143,1.8362,1.8978,2.0789,2.195,2.2344,2.3189,2.3838,2.4397,2.4494,2.4596,2.4566,2.4265,2.4038,2.4038,2.3591,2.2626,2.1458,2.0874,1.9791,1.8424,0.0,1.665,1.6335,1.5899,1.6806,1.8711,2.2168,2.3965,2.5117,2.7148,2.9219,3.1074,3.2012,3.3965,3.6074,3.7305,3.8457,3.9277,3.9219,3.8476,3.7148,3.4805,3.2578,3.0137,2.7051,2.4707,2.2969,2.2227,2.2441,2.3418,2.5527,2.7715,2.9746,3.1484,3.2559,3.3203,3.332,3.3828,3.416,3.4289,3.472,3.5284,3.6077,3.623,3.623,3.623,3.7125,3.7729,3.7668,3.748,3.7027,3.6295,3.5228,3.4624,3.4624,3.4226,3.3789,3.3311,3.3155,3.2714,3.1998,3.1503,3.1112,3.0898,3.0898,3.0898,3.0898,3.0898,3.0859,3.0762,3.0351,3.0137,2.9922,0.0,0.0,0.0,0.0,0.0,0.0,0.0,0.0,0.0,0.0,0.6998,0.7094,0.0,0.0,0.0,0.0,0.0,0.0,0.0,0.0,0.0,1.3828,1.4807,1.5457,1.5891,1.6706,1.7275,1.7522,1.8071,1.8599,1.9122,1.8986,1.9122,1.9468,1.9233,1.9169,1.9126,1.8617,1.83,1.7964,1.6984,1.6446,1.6063,1.5219,0.0,0.0,1.5723,1.737,1.959,2.3047,2.5254,2.7168,3.0684,3.3027,3.4726,3.5937,3.7109,3.8223,3.918,3.9609,3.9687,3.9297,3.8027,3.6035,3.2812,3.0137,2.7383,2.3984,2.1582,2.0019,1.9883,2.0195,2.1074,2.2891,2.5293,2.7539,2.9238,3.084,3.2109,3.2812,3.3906,3.472,3.5001,3.5712,3.6455,3.7226,3.7893,3.8026,3.7739,3.8221,3.836,3.8224,3.791,3.7318,3.6457,3.5644,3.5169,3.4919,3.4713,3.437,3.3577,3.3496,3.291,3.1772,3.148,3.1112,3.0898,3.0898,3.0898,3.0898,3.0898,3.0644,3.0312,3.0234,2.9746,2.9121,0.0,0.0,0.0,0.0,0.0,0.0,0.0,0.6248,0.6601,0.6894,0.7119,0.725,0.715,0.7388,0.7548,0.0,0.0,0.0,0.0,0.0,0.0,1.2965,1.3748,1.4154,1.4212,1.4997,1.5353,1.5278,0.0,1.6006,1.6237,1.6071,1.614,1.6348,1.6177,1.6063,1.6063,1.5705,1.5482,1.5239,1.4707,1.4405,1.4132,1.3779,0.0,0.0,1.5331,1.6836,1.8828,2.2266,2.4883,2.7402,3.1504,3.4297,3.623,3.7051,3.8223,3.9394,4.0039,4.0215,4.0059,3.9375,3.7598,3.5098,3.1621,2.832,2.5059,2.1918,1.9777,1.8498,1.8854,1.9555,2.0643,2.2394,2.4781,2.6973,2.8672,3.0525,3.2076,3.2942,3.4366,3.536,3.5751,3.6729,3.7595,3.8639,3.932,3.9451,3.8904,3.9715,4.0113,4.0128,3.941,3.8552,3.7702,3.6853,3.6258,3.589,3.6135,3.5528,3.4526,3.4858,3.4117,3.2457,3.2342,3.1787,3.1112,3.1112,3.0995,3.0898,3.0898,3.0605,3.0176,2.9941,2.9473,2.8887,0.0,0.0,0.0,0.0,0.0,0.0,0.0,0.5867,0.6379,0.6936,0.7376,0.763,0.7542,0.7498,0.7392,0.0,0.0,0.0,0.0,0.0,0.0,0.0,0.0,0.0,1.319,0.0,0.0,1.3861,1.4205,0.0,0.0,0.0,0.0,0.0,1.4148,1.4096,1.4044,1.392,1.3672,0.0,0.0,1.3184,1.2891,0.0,0.0,0.0,0.0,1.6055,1.7734,2.0898,2.3613,2.6348,3.0098,3.3516,3.6269,3.707,3.8398,3.9746,4.0351,4.0449,4.0156,3.916,3.6934,3.4004,3.0351,2.666,2.3212,2.0321,1.8486,1.7576,1.8046,1.9074,2.0301,2.1769,2.3879,2.6016,2.7819,2.9865,3.1679,3.2974,3.4655,3.593,3.6722,3.7695,3.8786,4.0192,4.0902,4.0963,4.032,4.1125,4.1737,4.1707,4.0828,4.0029,3.9167,3.8194,3.7594,3.7352,3.7594,3.7132,3.5947,3.6418,3.5545,3.3607,3.3275,3.2457,3.1441,3.1325,3.1112,3.0898,3.0898,3.0605,3.0137,2.9726,2.9297,2.8848,0.0,0.0,0.0,0.0,0.0,0.0,0.0,0.5729,0.6454,0.7167,0.7764,0.8134,0.8201,0.7806,0.7392,0.0,0.0,0.0,0.0,0.0,0.0,0.0,0.0,0.0,0.0,0.0,0.0,1.2487,1.2772,0.0,0.0,0.0,0.0,0.0,0.0,1.3057,1.3057,1.2988,0.0,0.0,0.0,0.0,0.0,0.0,0.0,0.0,0.0,1.5352,1.7129,1.9394,2.1621,2.3789,2.5762,3.0039,3.4707,3.6719,3.7949,3.8965,4.0195,4.0234,3.9648,3.8359,3.5801,3.25,2.8475,2.5071,2.2006,1.8899,1.7531,1.686,1.6981,1.789,1.8794,1.9211,2.0938,2.2977,2.4888,2.7362,2.9829,3.2509,3.4523,3.6558,3.8456,3.9104,4.0096,4.1865,4.2732,4.2966,4.2226,4.2468,4.2305,4.1897,4.1731,4.121,4.0106,3.9732,3.9144,3.8693,3.8908,3.8612,3.7834,3.7359,3.6407,3.4989,3.365,3.2571,3.1672,3.1441,3.1112,3.0898,3.0898,3.0605,3.0137,2.9726,2.9297,2.8848,0.0,0.0,0.0,0.0,0.0,0.0,0.4892,0.5489,0.6197,0.7074,0.7664,0.7979,0.7847,0.7758,0.7629,0.7409,0.0,0.0,0.0,0.0,0.0,0.0,0.0,0.0,0.0,0.0,1.2017,1.2067,1.2234,0.0,0.0,0.0,0.0,0.0,0.0,1.2891,1.2891,1.2891,0.0,0.0,0.0,0.0,0.0,0.0,0.0,0.0,0.0,0.0,1.5449,1.7363,1.8906,2.041,2.2402,2.5098,2.8379,3.2891,3.5547,3.7383,3.8926,3.9414,3.9101,3.7559,3.5098,3.1914,2.7806,2.4445,2.1449,1.9044,1.7572,1.6937,1.7387,1.7989,1.8487,1.873,2.0305,2.2095,2.3811,2.6613,2.9312,3.1671,3.4296,3.6648,3.8358,3.9499,4.0866,4.2705,4.3214,4.3277,4.3041,4.3081,4.3094,4.2988,4.2553,4.194,4.1378,4.1009,4.0663,4.0199,4.0548,4.0263,3.9514,3.8883,3.7808,3.6297,3.5023,3.3909,3.2799,3.2342,3.2018,3.1672,3.1325,3.0836,3.0403,2.9839,2.9297,2.8848,0.0,0.0,0.0,0.0,0.0,0.425,0.4782,0.5362,0.6097,0.7127,0.7676,0.7955,0.7834,0.7837,0.7802,0.754,0.7459,0.0,0.0,0.0,0.0,0.0,0.0,0.0,0.0,0.0,1.1414,1.1519,1.1769,1.2067,0.0,0.0,1.2667,1.2647,0.0,0.0,0.0,0.0,0.0,0.0,0.0,0.0,0.0,0.0,0.0,0.0,0.0,0.0,0.0,0.0,0.0,1.7383,1.9297,2.0703,2.2852,2.9023,3.2578,3.4922,3.6894,3.7734,3.7734,3.6269,3.375,3.0741,2.6981,2.356,2.0751,1.9038,1.7701,1.7027,1.7521,1.7775,1.8006,1.8328,1.9581,2.1155,2.2792,2.5685,2.8446,3.0772,3.3959,3.6789,3.8526,4.0568,4.2103,4.3179,4.3325,4.3373,4.3223,4.3223,4.3337,4.3564,4.2962,4.2513,4.2174,4.1948,4.172,4.1378,4.172,4.1428,4.0692,4.0048,3.8832,3.7321,3.6022,3.4914,3.3797,3.3346,3.2799,3.2457,3.1883,3.1492,3.0923,3.001,2.9486,2.9023,0.0,0.0,0.0,0.0,0.0,0.0,0.4701,0.5414,0.6307,0.7458,0.7955,0.8275,0.8474,0.8121,0.7802,0.754,0.733,0.0,0.0,0.0,0.0,0.0,0.0,0.0,0.0,0.0,1.0499,1.0726,1.1217,1.1619,1.1918,1.2332,1.2349,1.2014,0.0,0.0,0.0,0.0,0.0,0.0,0.0,0.0,0.0,0.0,0.0,0.0,0.0,0.0,0.0,0.0,0.0,0.0,0.0,1.7363,1.9336,2.582,2.9258,3.1504,3.4043,3.5078,3.5215,3.4316,3.1504,2.827,2.563,2.2452,1.9725,1.8594,1.7621,1.7011,1.7011,1.7017,1.7142,1.7472,1.8368,1.9696,2.1556,2.428,2.706,3.0001,3.3683,3.6979,3.9354,4.2315,4.3929,4.3382,4.3562,4.3564,4.3011,4.2986,4.2986,4.2986,4.2986,4.2849,4.2513,4.2513,4.2312,4.211,4.2312,4.2015,4.1274,4.0514,3.9296,3.7762,3.6351,3.5245,3.4469,3.4134,3.3685,3.3006,3.2799,3.2342,3.1667,3.0465,2.9793,2.9564,0.0,0.0,0.0,0.0,0.0,0.0,0.0,0.5199,0.5912,0.6756,0.7262,0.7585,0.7685,0.763,0.7495,0.7188,0.7179,0.0,0.0,0.0,0.0,0.0,0.0,0.0,0.0,0.0,0.9684,0.9956,1.0495,1.1065,1.1619,1.2017,1.2156,1.1995,1.227,1.2187,0.0,0.0,0.0,0.0,0.0,0.0,1.1352,0.0,0.0,0.0,0.0,0.0,0.0,0.0,0.0,0.0,0.0,0.0,0.0,2.0117,2.3848,2.7402,2.9707,3.1055,3.1562,3.041,2.8652,2.6427,2.3441,2.1104,1.9254,1.8226,1.7499,1.7067,1.729,1.6914,1.6873,1.7967,1.8751,1.9992,2.2255,2.5059,2.7811,3.0125,3.4857,3.8745,4.0557,4.2326,4.3325,4.3125,4.3237,4.3162,4.2986,4.2986,4.2986,4.2986,4.2986,4.2986,4.2874,4.2499,4.2188,4.2188,4.1813,4.1538,4.1255,4.0301,3.9393,3.8743,3.7355,3.658,3.6254,3.5466,3.5135,3.4869,3.3544,3.2881,3.235,3.0997,3.0343,3.0242,0.0,0.0,0.0,0.0,0.0,0.0,0.0,0.5144,0.5795,0.646,0.7038,0.738,0.7373,0.7468,0.7348,0.7054,0.707,0.0,0.0,0.0,0.0,0.0,0.0,0.0,0.8473,0.8631,0.8912,0.9308,0.9853,1.0543,1.1422,1.184,1.1962,1.1836,1.2088,1.1895,0.0,0.0,0.0,0.0,0.0,0.0,1.0454,0.0,0.0,0.0,0.0,0.0,0.0,0.0,0.0,0.0,0.0,0.0,0.0,0.0,1.8984,2.2109,2.5254,2.6816,2.7344,2.6543,2.5254,2.3585,2.1174,1.9404,1.7999,1.7217,1.6871,1.6743,1.6829,1.6728,1.702,1.8009,1.921,2.0665,2.2681,2.5555,2.8824,3.2298,3.6502,3.9854,4.1697,4.2585,4.2986,4.2986,4.2986,4.2986,4.2986,4.2785,4.266,4.266,4.2861,4.2886,4.266,4.2333,4.2057,4.1856,4.1505,4.1229,4.1028,4.0252,3.9554,3.8989,3.8011,3.7548,0.0,3.6904,3.6356,3.5825,3.4728,3.3748,3.2987,3.1678,3.1063,3.0893,0.0,0.0,0.0,0.0,0.0,0.0,0.0,0.5096,0.586,0.6486,0.708,0.7423,0.7468,0.7442,0.7321,0.6999,0.0,0.0,0.0,0.0,0.0,0.0,0.0,0.0,0.7575,0.7781,0.8179,0.8771,0.9323,1.016,1.1214,1.1746,1.1822,1.1593,1.1995,1.1674,0.0,0.0,0.0,0.0,0.0,0.0,0.0,0.0,0.0,0.0,0.0,0.0,0.0,0.0,0.0,0.0,0.0,0.0,0.0,0.0,0.0,0.0,0.0,2.2305,2.2773,2.2773,2.1543,2.0075,1.8942,1.7491,0.0,1.5718,1.5945,1.6151,1.5787,1.6591,1.7471,1.7823,1.9762,2.1707,2.2947,2.5939,3.0129,3.5987,3.8212,4.0259,4.271,4.2911,4.2911,4.2911,4.2886,4.2861,4.2861,4.2384,4.2108,4.2108,4.2585,4.261,4.2108,4.2057,4.1781,4.1279,4.1229,4.0953,4.045,4.0134,3.9625,3.8841,3.8526,3.8291,3.808,3.8056,3.7426,3.6344,3.604,3.4872,3.3493,3.2647,3.2054,3.157,0.0,0.0,0.0,0.0,0.0,0.0,0.0,0.0,0.0,0.0,0.6419,0.6749,0.7019,0.6933,0.6907,0.0,0.0,0.0,0.0,0.0,0.0,0.0,0.0,0.0,0.7134,0.7436,0.7884,0.8399,0.9277,1.0291,1.1461,1.2236,1.2443,1.2194,1.2176,1.1475,0.0,0.0,0.0,0.0,0.0,0.0,0.0,0.0,0.0,0.0,0.9803,1.0313,0.0,0.0,0.0,0.0,0.0,0.0,0.0,0.0,1.3145,1.3789,1.5234,0.0,1.9219,1.9219,1.8672,1.7939,0.0,1.6098,1.5279,1.5042,1.5517,1.5887,1.5587,1.6494,1.7448,1.8175,2.0364,2.2462,2.3862,2.8339,3.2889,3.6948,3.8885,4.0533,4.2208,4.2359,4.2359,4.2359,4.1957,4.1731,4.1731,4.1605,4.153,4.153,4.1656,4.1656,4.153,4.1103,4.0852,4.0701,4.0275,4.0023,3.9898,3.9561,3.9382,3.9154,3.8841,3.8841,3.8921,3.8295,3.7843,3.7442,3.6189,3.5301,3.4707,3.387,3.3461,3.3338,0.0,0.0,0.0,0.0,0.0,0.0,0.0,0.0,0.0,0.0,0.0,0.0,0.0,0.0,0.0,0.0,0.0,0.0,0.0,0.0,0.0,0.0,0.0,0.6985,0.6985,0.7308,0.7752,0.8207,0.9321,1.0408,1.1546,1.2514,1.2787,1.2557,1.1815,1.0837,0.0,0.0,0.0,0.0,0.825,0.0,0.0,0.0,0.0,0.0,0.933,0.9812,0.0,1.0818,1.1142,1.1332,0.0,0.0,0.0,0.0,1.2227,1.2676,1.3105,1.4844,1.6523,1.6523,1.6367,1.6076,1.5448,1.4779,1.4241,1.3961,1.474,1.5362,1.5215,1.6658,1.8035,1.8651,2.1167,2.4153,2.7125,3.1207,3.4755,3.7217,3.8916,4.037,4.1329,4.1404,4.1505,4.1756,4.1505,4.1329,4.1329,4.1103,4.0953,4.0953,4.0701,4.0701,4.0953,4.0676,4.04,4.0149,3.9848,3.9697,3.9697,3.9594,3.9465,3.9465,3.9258,3.9237,3.9091,3.8587,3.8039,3.7318,3.653,3.5745,3.511,3.4724,3.4507,3.4409,0.0,0.0,0.0,0.0,0.0,0.0,0.0,0.0,0.0,0.0,0.0,0.0,0.0,0.0,0.0,0.0,0.0,0.0,0.0,0.0,0.0,0.0,0.6985,0.6985,0.6985,0.7365,0.7779,0.8276,0.9591,1.0817,1.1947,1.2919,1.3168,1.273,1.1292,1.021,0.0,0.0,0.0,0.0,0.7795,0.0,0.0,0.0,0.0,0.0,0.0,0.0,0.0,1.05,1.0738,1.0879,1.1292,0.0,0.0,0.0,0.0,0.0,1.2559,1.3613,1.4629,1.4746,1.4785,1.4687,1.4316,1.3906,1.3496,1.3145,1.4043,1.4883,1.4883,1.6894,1.8771,1.9184,2.2331,2.6348,3.0941,3.3769,3.5849,3.7412,3.8894,4.0049,4.0601,4.0576,4.0701,4.1178,4.1128,4.1078,4.1078,4.0651,4.04,4.04,3.9948,3.9873,4.0249,4.035,4.0149,3.9697,3.9697,3.9697,3.9594,3.9594,3.9594,3.9594,3.9494,3.9193,3.8843,3.8693,3.7941,3.687,3.6796,3.6183,3.5404,3.5404,3.5162,3.4897,0.0,0.0,0.0,0.0,0.0,0.0,0.0,0.0,0.0,0.0,0.0,0.0,0.0,0.0,0.0,0.0,0.0,0.0,0.0,0.0,0.0,0.6985,0.6985,0.6985,0.6985,0.7453,0.8073,0.894,1.0532,1.1979,1.3399,1.4351,1.4053,1.2685,1.1415,1.0276,0.9226,0.0,0.0,0.0,0.7587,0.0,0.0,0.0,0.0,0.0,0.0,0.0,0.0,1.0116,1.0293,1.0391,1.0489,0.0,0.0,0.0,0.0,0.0,1.1685,1.2715,1.3887,1.4609,1.4785,1.4766,1.4707,1.4355,1.397,1.3912,1.4668,1.5312,1.5312,1.7093,1.8907,1.9868,2.4006,2.8533,3.248,3.4527,3.6527,3.9069,3.9948,4.0601,4.1153,4.0802,4.0551,4.0651,4.0199,3.9948,3.9948,3.9873,3.9823,3.9823,3.9747,3.9521,3.912,3.9597,3.9772,3.9697,3.9697,3.9594,3.9362,3.9362,3.9154,3.8921,3.8761,3.8589,3.844,3.7715,3.7337,3.7136,3.6659,3.6338,3.6263,3.6263,3.5868,3.5326,0.0,0.0,0.0,0.0,0.0,0.0,0.0,0.0,0.0,0.0,0.0,0.0,0.0,0.0,0.0,0.0,0.0,0.0,0.0,0.0,0.6914,0.6985,0.7174,0.7268,0.7268,0.7861,0.8616,0.9475,1.1287,1.2695,1.3812,1.4469,1.3941,1.2472,1.1205,0.9969,0.8805,0.8332,0.7919,0.7628,0.0,0.0,0.0,0.0,0.0,0.0,0.0,0.0,0.0,0.0,1.0235,1.0273,1.0273,0.0,0.0,0.0,0.0,0.0,1.1738,1.2695,1.3711,1.457,1.4785,1.4844,1.5078,1.4785,1.4551,1.4785,1.5332,1.5978,1.6572,1.8275,2.0427,2.2655,2.6023,2.9195,3.1685,3.4606,3.7023,3.8869,3.9448,3.9722,3.9973,3.9772,3.9747,4.0049,3.9848,3.9697,3.9697,3.9421,3.9245,3.9245,3.8944,3.8668,3.8417,3.8668,3.8944,3.9245,3.9245,3.9293,3.9258,3.9154,3.8841,3.8607,3.8148,3.7857,3.7715,3.7219,3.6914,3.6709,3.6458,3.6358,3.6332,3.6031,3.5579,3.5077,0.0,0.0,0.0,0.0,0.0,0.0,0.0,0.0,0.0,0.0,0.0,0.0,0.0,0.0,0.0,0.0,0.0,0.0,0.0,0.0,0.6914,0.6985,0.7285,0.7446,0.7558,0.8366,0.9263,1.0181,1.2145,1.3525,1.4357,1.4316,1.3594,1.2127,1.0831,0.9537,0.8398,0.7987,0.7628,0.7335,0.0,0.0,0.0,0.0,0.0,0.0,0.0,0.0,0.0,0.0,0.0,0.0,0.0,0.0,0.0,1.0273,1.0508,1.0957,1.1836,1.2637,1.3437,1.4394,1.4863,1.5195,1.5625,1.5547,1.5508,1.5937,1.6289,1.6821,1.7784,1.997,2.2551,2.5235,2.7886,3.0281,3.2362,3.5346,3.7717,3.8742,3.8969,3.9069,3.9069,3.9069,3.9195,3.9471,3.9496,3.9446,3.9295,3.8894,3.8668,3.8668,3.8241,3.7939,3.7814,3.7715,3.7991,3.8567,3.8567,3.8564,3.8551,3.824,3.7927,3.7589,3.7266,3.701,3.6897,3.6725,3.6543,3.6358,3.6207,3.6081,3.5906,3.5353,3.4901,3.45,0.0,0.0,0.0,0.0,0.0,0.0,0.0,0.0,0.0,0.0,0.0,0.0,0.0,0.0,0.0,0.0,0.0,0.0,0.0,0.0,0.6787,0.6985,0.7139,0.7373,0.7661,0.882,1.0052,1.1368,1.3235,1.4666,1.5632,1.4542,1.3208,1.1621,1.0259,0.9115,0.8177,0.7724,0.7405,0.7209,0.707,0.0,0.0,0.0,0.0,0.0,0.0,0.0,0.0,0.0,0.0,0.0,0.0,0.0,1.0273,1.0273,1.0312,1.0508,1.141,1.1953,1.2569,1.3815,1.5078,1.6094,1.6543,1.6934,1.7324,1.7734,1.7852,1.8076,1.8755,2.2113,2.5167,2.6417,2.9393,3.2963,3.6976,3.7857,3.8463,3.9521,3.9622,3.9647,3.9647,3.9647,3.9446,3.8969,3.8919,3.8693,3.8165,3.809,3.8065,3.8065,3.804,3.7764,3.7236,3.7042,3.7121,3.7643,3.7643,3.7167,3.62,3.62,3.5892,3.5455,3.5348,3.5613,3.6038,3.6084,3.6218,3.6307,3.5805,3.5278,3.4776,3.4223,3.3997,3.3897,0.0,0.0,0.0,0.0,0.0,0.0,0.0,0.0,0.0,0.0,0.0,0.0,0.0,0.0,0.0,0.0,0.0,0.0,0.0,0.6587,0.6787,0.6985,0.7301,0.7709,0.8289,0.9283,1.0432,1.1672,1.3584,1.4828,1.5288,1.3974,1.2651,1.1255,0.9826,0.8733,0.7863,0.7503,0.7196,0.707,0.7027,0.7182,0.0,0.0,0.0,0.0,0.0,0.0,0.0,0.0,1.0273,1.0273,1.0273,1.0273,1.0273,1.0273,1.0273,1.0508,1.1371,1.1895,1.2492,1.3756,1.5098,1.6328,1.7305,1.8066,1.8848,1.9824,2.0151,2.0596,2.1839,2.464,2.7273,2.8755,3.1591,3.4973,3.858,3.9113,3.8988,3.8689,3.8841,3.8893,3.8668,3.8642,3.8567,3.8341,3.8341,3.8241,3.8015,3.7688,3.7487,3.7487,3.7161,3.6789,3.6493,3.6205,3.5892,3.5622,3.6135,3.605,3.5442,3.5362,3.5051,3.4716,3.4722,3.4928,3.5162,3.523,3.5282,3.5328,3.5127,3.47,3.4198,3.3972,3.3445,3.2817,0.0,0.0,0.0,0.0,0.0,0.0,0.0,0.0,0.0,0.0,0.0,0.0,0.0,0.0,0.0,0.0,0.0,0.0,0.6276,0.6587,0.6787,0.6985,0.7358,0.7914,0.8594,0.9637,1.0846,1.2287,1.4023,1.4828,1.4659,1.3242,1.1938,1.0795,0.9377,0.8327,0.7628,0.7335,0.7125,0.6985,0.6985,0.7238,0.0,0.0,0.0,0.0,0.0,0.0,0.0,0.0,1.0273,1.0273,1.0273,1.0273,1.0273,1.0273,1.0273,1.0508,1.1371,1.1895,1.2531,1.3984,1.5312,1.6719,1.8418,1.9277,2.0098,2.1543,2.2264,2.298,2.4033,2.6388,2.8466,2.9657,3.2522,3.5771,3.922,3.9676,3.9297,3.8141,3.8091,3.8241,3.804,3.8015,3.7939,3.7764,3.7739,3.7663,3.7487,3.696,3.6659,3.6659,3.6132,3.5762,3.5506,3.5276,3.4679,3.3879,3.4275,3.4396,3.4234,3.3947,3.3844,3.3718,3.383,3.4209,3.4607,3.4666,3.4487,3.4198,3.3997,3.3596,3.3093,3.3093,3.2616,3.1964,0.0,0.0,0.0,0.0,0.0,0.0,0.0,0.0,0.0,0.0,0.0,0.0,0.0,0.0,0.0,0.0,0.0,0.0,0.6136,0.6489,0.6787,0.6985,0.7308,0.7759,0.84,0.9861,1.149,1.3292,1.4578,1.4753,1.3961,1.2325,1.1149,1.0238,0.8828,0.7931,0.7489,0.7293,0.7125,0.6985,0.6985,0.728,0.7712,0.0,0.0,0.0,0.0,0.0,0.0,0.0,1.0273,1.0273,1.0273,1.0273,1.0273,1.0273,1.0273,1.0508,1.1371,1.1895,1.2656,1.4355,1.5762,1.7402,1.998,2.0586,2.1074,2.2793,2.4115,2.498,2.504,2.7151,2.8924,2.8849,3.18,3.543,3.9092,3.9693,3.9213,3.8139,3.7667,3.7642,3.7965,3.799,3.7764,3.7211,3.7161,3.691,3.6383,3.583,3.5437,3.5437,3.5002,3.4635,3.4388,3.4141,3.3529,3.2734,3.2274,3.2015,3.2015,3.2015,3.2117,3.2376,3.2695,3.3457,3.436,3.4262,3.3781,3.2993,3.2416,3.1863,3.1386,3.1386,3.1386,3.1386,0.0,0.0,0.0,0.0,0.0,0.0,0.0,0.0,0.0,0.0,0.0,0.0,0.0,0.0,0.0,0.0,0.0,0.0,0.6019,0.6331,0.6617,0.6914,0.7238,0.7773,0.8532,1.0583,1.2313,1.3571,1.3446,1.3189,1.277,1.1527,1.0559,0.9786,0.8885,0.8222,0.7773,0.739,0.7125,0.6985,0.6985,0.728,0.7712,0.0,0.0,0.0,0.0,0.0,0.0,0.0,0.0,0.0,1.0273,1.0273,1.0273,1.0273,1.0273,1.0508,1.1371,1.2109,1.3105,1.4805,1.6211,1.7871,2.0449,2.1504,2.2591,2.4796,2.5717,2.6375,2.7303,2.8924,2.9847,2.8992,3.203,3.5258,3.7169,3.7369,3.722,3.6945,3.6773,3.6771,3.686,3.6508,3.6207,3.6056,3.568,3.5378,3.5203,3.5052,3.4886,3.4703,3.4554,3.4089,3.3329,3.3124,3.2415,3.124,3.0931,3.0799,3.0925,3.1127,3.123,3.1367,3.2175,3.265,3.2901,3.2912,3.2689,3.2275,3.226,3.2026,3.1574,3.1574,3.1241,3.0859,0.0,0.0,0.0,0.0,0.0,0.0,0.0,0.0,0.0,0.0,0.0,0.0,0.0,0.0,0.0,0.0,0.0,0.0,0.0,0.6116,0.6404,0.6829,0.7196,0.7928,0.9055,1.0532,1.1777,1.2676,1.2654,1.2339,1.1732,1.094,1.0256,0.9649,0.8907,0.8371,0.7944,0.7432,0.7125,0.7027,0.707,0.7335,0.7753,0.0,0.0,0.0,0.0,0.0,0.0,0.0,0.0,0.0,1.0273,1.0391,1.0527,1.0527,1.0527,1.0723,1.1582,1.2578,1.3789,1.5508,1.7051,1.8828,2.1406,2.293,2.4224,2.5837,2.6775,2.7619,2.8878,3.0217,3.0928,3.0348,3.2676,3.4969,3.6205,3.6376,3.6422,3.6413,3.6018,3.5769,3.5923,3.5454,3.5228,3.5228,3.47,3.4399,3.4399,3.3972,3.3633,3.3394,3.3083,3.2519,3.1717,3.1454,3.0813,2.988,2.9796,2.9759,2.9773,3.046,3.0829,3.1081,3.1896,3.2235,3.2122,3.214,3.2097,3.1992,3.1915,3.1681,3.1393,3.1236,3.0874,3.036,0.0,0.0,0.0,0.0,0.0,0.0,0.0,0.0,0.0,0.0,0.0,0.0,0.0,0.0,0.0,0.0,0.0,0.0,0.0,0.0,0.6136,0.6647,0.7224,0.8234,0.9716,0.998,1.0392,1.0922,1.2006,1.1931,1.0857,1.0633,1.029,0.9835,0.9043,0.8489,0.8165,0.7517,0.7167,0.707,0.7167,0.7419,0.7795,0.825,0.0,0.0,0.0,0.0,0.0,0.0,0.0,0.0,1.0273,1.0566,1.0918,1.0918,1.0918,1.1113,1.1947,1.3134,1.4554,1.6367,1.8223,2.0254,2.2617,2.4434,2.572,2.6162,2.7303,2.8625,2.9873,3.1019,3.2038,3.2604,3.3473,3.4563,3.6157,3.6405,3.6319,3.6125,3.5193,3.4726,3.5057,3.4791,3.4575,3.4575,3.4022,3.3671,3.3671,3.2692,3.2056,3.1829,3.1082,3.0396,2.9725,2.9509,2.9124,2.8612,2.8854,2.8832,2.8701,2.9902,3.0661,3.1225,3.1835,3.206,3.2012,3.1915,3.1988,3.2061,3.158,3.122,3.097,3.0519,3.0266,2.9935,0.0,0.0,0.0,0.0,0.0,0.0,0.0,0.0,0.0,0.0,0.0,0.0,0.0,0.0,0.0,0.0,0.0,0.0,0.0,0.0,0.575,0.6447,0.7405,0.8348,0.929,0.9795,0.9933,0.9699,1.0544,1.086,1.0588,1.0543,1.0383,1.0169,0.976,0.9295,0.8853,0.8089,0.7614,0.7391,0.7447,0.7655,0.7987,0.8357,0.8886,0.0,0.0,0.0,0.0,0.0,0.0,0.0,1.0273,1.0566,1.0918,1.0918,1.0918,1.1113,1.1947,1.3418,1.5059,1.6816,1.9805,2.2461,2.3027,2.4146,2.5331,2.6689,2.7526,2.8704,3.0744,3.1619,3.2544,3.4089,3.4537,3.5011,3.6197,3.6405,3.5734,3.4008,3.3605,3.3506,3.3531,3.3482,3.342,3.342,3.2491,3.1938,3.1938,3.1687,3.1422,3.1033,3.0553,2.9785,2.8958,2.8751,2.8361,2.7833,2.8451,2.8692,2.8861,2.9507,3.0261,3.1027,3.1266,3.1707,3.2326,3.2415,3.2536,3.2581,3.2588,3.1901,3.0922,3.0513,2.9861,2.9108,0.0,0.0,0.0,0.0,0.0,0.0,0.0,0.0,0.0,0.0,0.0,0.0,0.0,0.0,0.0,0.0,0.0,0.0,0.0,0.0,0.5653,0.6732,0.7558,0.8316,0.9024,0.9377,0.9377,0.899,0.9459,0.9716,0.9863,1.0186,1.0389,1.0398,1.0031,0.9681,0.9266,0.8361,0.7863,0.7724,0.7724,0.7931,0.8275,0.8683,0.9128,0.9625,0.9862,0.0,0.0,0.0,0.0,0.0,0.0,0.0,1.0918,1.0918,1.0918,1.1152,1.2246,1.3633,1.5449,1.8223,2.1035,2.3144,2.3339,2.4167,2.5289,2.6681,2.7487,2.8685,3.109,3.1865,3.2495,3.3727,3.397,3.4022,3.3972,3.4463,3.4423,3.3246,3.3133,3.2846,3.2364,3.2456,3.2508,3.2265,3.1486,3.1009,3.1009,3.0678,3.0288,2.9991,2.9479,2.8881,2.8133,2.7905,2.7736,2.7567,2.8156,2.874,2.9316,2.9762,3.025,3.0934,3.0804,3.1123,3.1836,3.2026,3.2193,3.233,3.2466,3.1969,3.1158,3.0223,2.9512,2.8778,0.0,0.0,0.0,0.0,0.0,0.0,0.0,0.0,0.0,0.0,0.0,0.0,0.0,0.0,0.0,0.0,0.0,0.0,0.0,0.0,0.0,0.714,0.7724,0.8275,0.8879,0.8943,0.8846,0.8643,0.8717,0.8919,0.9233,0.99,1.0394,1.066,1.0314,1.0001,0.9662,0.8601,0.8152,0.8152,0.8152,0.8316,0.8683,0.9088,0.9466,0.9802,1.0,1.0196,1.0273,1.0273,0.0,0.0,0.0,0.0,1.0918,1.0918,1.0918,1.1172,1.2441,1.3926,1.5977,1.957,2.1641,2.2852,2.3268,2.4215,2.5206,2.6267,2.7298,2.8656,3.0921,3.156,3.1981,3.2711,3.2796,3.2471,3.1479,3.2097,3.265,3.2516,3.2644,3.2363,3.1386,3.1574,3.1655,3.126,3.0758,3.0482,3.0482,2.977,2.9341,2.9131,2.8498,2.8018,2.7615,2.7256,2.7209,2.7452,2.7941,2.8626,2.9605,2.9852,3.0259,3.0675,3.0446,3.0646,3.1252,3.1506,3.1772,3.2098,3.2098,3.1825,3.1282,2.9959,2.9104,2.8438,0.0,0.0,0.0,0.0,0.0,0.0,0.0,0.0,0.0,0.0,0.0,0.0,0.0,0.0,0.0,0.0,0.0,0.0,0.4316,0.0,0.0,0.714,0.7724,0.8275,0.8879,0.8805,0.8643,0.8455,0.88,0.9113,0.9387,0.9918,1.0608,1.1314,1.0835,1.0543,1.0311,0.9291,0.8822,0.87,0.87,0.8846,0.9128,0.9368,0.9646,0.998,1.0079,1.0196,1.0273,1.0273,1.0273,0.0,0.0,0.0,1.0918,1.0918,1.0918,1.1113,1.2051,1.4355,1.7051,1.9414,2.0742,2.168,2.278,2.3527,2.4492,2.5958,2.6976,2.8141,2.9644,3.0302,3.0866,3.1497,3.1637,3.148,3.1034,3.1116,3.0934,3.0278,3.0753,3.1123,3.0966,3.0854,3.0733,3.0708,3.0206,2.9905,2.9905,2.9546,2.9341,2.9131,2.8498,2.8099,2.7881,2.7172,2.6939,2.7309,2.7648,2.8126,2.8568,2.913,2.9704,3.0341,3.0351,3.0788,3.1565,3.2098,3.2483,3.2864,3.2864,3.1973,3.0589,2.9854,2.8657,2.7291,0.0,0.0,0.0,0.0,0.0,0.0,0.0,0.0,0.0,0.0,0.0,0.0,0.0,0.0,0.0,0.3581,0.3663,0.3965,0.4666,0.5577,0.6392,0.7056,0.7655,0.8152,0.8618,0.8578,0.8398,0.8152,0.876,0.9204,0.9588,1.0565,1.1318,1.1782,1.15,1.1139,1.0686,0.9811,0.9377,0.9168,0.9128,0.9248,0.9545,0.9725,0.9902,1.0059,1.0157,1.0235,1.0273,1.0273,1.0273,1.0273,1.0273,0.0,0.0,0.0,1.0547,1.09,1.2319,1.4651,1.7116,1.8834,1.9859,2.0891,2.2412,2.3161,2.3892,2.537,2.6355,2.751,2.9487,3.0129,3.0449,3.0879,3.0708,3.0357,2.9824,2.9749,2.9521,2.9197,2.9274,2.9274,2.9046,2.8973,2.8975,2.9202,2.8976,2.885,2.885,2.8524,2.8297,2.8221,2.7609,2.7323,2.7323,2.7008,2.6952,2.7237,2.7229,2.7449,2.8006,2.8076,2.8849,3.0104,2.9874,3.0183,3.0825,3.0626,3.069,3.0954,3.0954,3.0454,2.9723,2.8684,2.7736,2.6798,0.0,0.0,0.0,0.0,0.0,0.0,0.0,0.0,0.0,0.0,0.0,0.0,0.0,0.0,0.0,0.0,0.3707,0.4184,0.5101,0.5836,0.6477,0.707,0.7572,0.8002,0.8332,0.8332,0.8193,0.8013,0.8715,0.9313,0.98,1.1112,1.1885,1.2132,1.2049,1.1682,1.1165,1.0342,0.9902,0.9753,0.9563,0.9646,0.9902,0.998,1.0155,1.0311,1.041,1.0449,1.0449,1.0449,1.0371,1.0273,1.0273,1.0273,0.0,0.0,0.0,1.0843,1.2351,1.4284,1.6246,1.7593,1.8532,1.9602,2.1627,2.2381,2.3123,2.474,2.5582,2.6681,2.8626,2.9322,2.9696,2.9902,2.9628,2.9227,2.8775,2.8499,2.8348,2.8341,2.799,2.7573,2.7329,2.7329,2.7426,2.767,2.7695,2.7598,2.7598,2.7261,2.7042,2.7115,2.6576,2.6428,2.66,2.6627,2.6623,2.671,2.6485,2.6749,2.7379,2.731,2.8075,2.9465,2.9226,2.9448,2.9869,2.9398,2.9237,2.9401,2.9401,2.9282,2.8966,2.7813,2.7085,2.6469,0.0,0.0,0.0,0.0,0.0,0.0,0.0,0.0,0.0,0.0,0.0,0.0,0.3581,0.3581,0.3581,0.3581,0.3891,0.4543,0.5588,0.6019,0.6562,0.7335,0.7587,0.0,0.8209,0.807,0.8028,0.8013,0.8655,0.9345,0.9995,1.1232,1.2044,1.2568,1.2369,1.2167,1.1972,1.097,1.0526,1.0529,1.0132,1.0019,1.0079,1.0079,1.0408,1.0879,1.0879,1.0879,1.0879,1.0879,1.0605,1.0273,1.0273,1.0273,1.0273,0.0,0.0,0.0,1.1784,1.2787,1.4039,1.5471,1.6208,1.7238,1.9825,2.0924,2.1935,2.3925,2.504,2.5798,2.6177,2.7185,2.7953,2.8174,2.8222,2.8172,2.8147,2.7695,2.7344,2.7344,2.6936,2.6609,2.654,2.654,2.654,2.6609,2.6402,2.6308,2.6308,2.5984,2.5868,2.5984,2.5773,2.5679,2.5889,2.5741,2.5552,2.532,2.5651,2.5975,2.647,2.6991,2.7555,2.8224,2.8369,2.8711,2.9131,2.9237,2.9401,2.9594,2.9594,2.9205,2.8532,2.791,2.7126,2.615,0.0,0.0,0.0,0.0,0.0,0.0,0.0,0.0,0.0,0.0,0.0,0.0,0.0,0.3619,0.3663,0.3663,0.4272,0.4971,0.5707,0.6136,0.6605,0.7112,0.7377,0.7587,0.7739,0.778,0.7863,0.8013,0.8834,0.9516,1.0081,1.1213,1.184,1.2048,1.2488,1.248,1.203,1.1318,1.0875,1.0673,1.0251,1.0291,1.0622,1.0954,1.1324,1.1752,1.207,1.1816,1.1328,1.1328,1.0859,1.0273,1.0273,1.0273,1.0273,1.0273,1.0746,1.1287,1.1613,1.2633,1.379,1.4844,1.5437,1.6317,1.84,1.9,1.9636,2.151,2.2471,2.3179,2.3617,2.5453,2.6997,2.7042,2.7042,2.6917,2.654,2.6314,2.5937,2.5259,2.531,2.5259,2.4908,2.5209,2.541,2.541,2.5278,2.5145,2.4962,2.4652,2.4474,2.4541,2.4111,2.3969,2.4204,2.4086,2.4064,2.4242,2.4076,2.4338,2.4941,2.5292,2.5716,2.6236,2.6389,2.7247,2.8581,2.83,2.8226,2.8359,2.8359,2.8106,2.7743,2.7243,2.6619,2.5879,0.0,0.0,0.0,0.0,0.0,0.0,0.0,0.0,0.0,0.3581,0.0,0.0,0.0,0.0,0.3877,0.4132,0.4744,0.5351,0.5964,0.6307,0.6647,0.7027,0.7251,0.7377,0.7447,0.7628,0.778,0.8013,0.8818,0.9504,1.0055,1.0882,1.1388,1.1601,1.2167,1.2206,1.1927,1.1503,1.1137,1.0816,1.0485,1.0583,1.0957,1.143,1.1934,1.248,1.2773,1.2547,1.2057,1.2057,1.1328,1.0488,1.0488,1.043,1.0351,1.039,1.0744,1.1225,1.1423,1.2187,1.3167,1.3998,1.4471,1.5154,1.6885,1.7282,1.7711,1.9449,2.0426,2.1092,2.1663,2.3427,2.4908,2.5285,2.5335,2.5209,2.4833,2.4607,2.423,2.3527,2.3577,2.3552,2.3201,2.3441,2.3641,2.3641,2.3331,2.3144,2.2994,2.2678,2.2552,2.2805,2.259,2.259,2.2949,2.2963,2.3199,2.3717,2.3521,2.3742,2.4326,2.4525,2.482,2.5283,2.5349,2.6139,2.7378,2.7031,2.6901,2.6901,2.6901,2.6882,2.6683,2.6199,2.5878,2.5408,0.0,0.0,0.0,0.0,0.0,0.0,0.0,0.0,0.3581,0.3581,0.0,0.0,0.0,0.0,0.0,0.4961,0.5221,0.561,0.6373,0.6489,0.6702,0.7167,0.7209,0.7251,0.7377,0.7587,0.778,0.8013,0.8545,0.9178,0.9913,1.0233,1.0752,1.1387,1.1387,1.1475,1.1567,1.1587,1.1309,1.0918,1.0918,1.0918,1.0996,1.1469,1.2194,1.293,1.293,1.293,1.291,1.291,1.2031,1.0918,1.0898,1.0645,1.0408,1.0544,1.0736,1.0964,0.0,0.0,0.0,1.2796,1.3141,1.3697,1.5286,1.5776,1.6345,1.8069,1.898,1.9756,2.0464,2.1016,2.1744,2.2824,2.299,2.3015,2.3015,2.2623,2.2272,2.2272,2.1794,2.1493,2.1468,2.1381,2.1294,2.1294,2.0701,2.0413,2.0355,2.0041,2.0134,2.0742,2.1219,2.172,2.2268,2.2511,2.3041,2.3636,2.3969,2.4319,2.4791,2.4859,2.5099,2.5307,2.5307,2.5384,2.5525,2.5585,2.5615,2.5615,2.5615,2.5521,2.5349,2.4917,2.4797,2.4685,0.0,0.0,0.0,0.0,0.0,0.0,0.3581,0.3581,0.3581,0.0,0.0,0.0,0.3832,0.4272,0.4797,0.5458,0.5674,0.605,0.6562,0.6745,0.6872,0.7027,0.707,0.707,0.7112,0.7405,0.7697,0.8013,0.8643,0.9238,0.9767,1.0071,1.0328,1.0624,1.0916,1.0877,1.0704,1.0957,1.1191,1.139,1.1035,1.1289,1.1914,1.2344,1.3047,1.3828,1.4141,1.4062,1.3789,1.3789,1.2715,1.1312,1.0725,1.0527,0.0,1.0659,1.0791,1.1057,1.1394,0.0,0.0,0.0,0.0,0.0,1.422,1.471,1.5225,1.6145,1.7148,1.7937,1.8254,1.8731,1.9208,1.951,2.0916,2.1945,2.1945,2.182,2.1568,2.1167,2.1287,2.1176,2.0832,2.0934,2.0986,2.0986,2.0471,2.0065,1.9889,1.9807,1.9819,1.9873,2.0593,2.1064,2.1195,2.1848,2.2436,2.2942,2.3241,2.3518,2.3836,2.3393,2.3317,2.3447,2.3447,2.349,2.361,2.5016,2.5615,2.5615,2.5615,2.5444,2.5206,2.482,2.4311,2.3681,0.0,0.0,0.0,0.0,0.0,0.3602,0.3656,0.3715,0.3788,0.0,0.0,0.0,0.4638,0.519,0.5692,0.6192,0.6462,0.6732,0.7077,0.7179,0.7216,0.7214,0.7201,0.7148,0.6985,0.7405,0.7739,0.8013,0.8765,0.9346,0.9723,1.0019,1.0235,1.0293,1.0547,0.0,1.0293,1.0547,1.0898,1.1289,1.1211,1.1602,1.2239,1.2715,1.3301,1.3926,1.4355,1.4355,1.4107,1.4355,1.3312,1.1792,1.0825,1.0639,1.0812,1.0964,1.1153,1.1394,1.1726,1.2054,1.2401,1.2756,0.0,0.0,1.3492,1.3989,1.4535,1.5122,1.5961,1.6754,1.73,1.7652,1.7928,1.8154,1.9284,2.0188,2.0439,2.0464,2.0338,2.0012,1.9957,1.9877,1.9726,1.9702,1.9751,1.9777,1.9182,1.8782,1.8587,1.8839,1.9043,1.9183,2.0023,2.0605,2.0894,2.1376,2.1868,2.2275,2.2367,2.2549,2.2748,2.236,2.2222,2.2263,2.2263,2.2413,2.2813,2.3909,2.4537,2.4777,2.4777,2.464,2.4334,2.396,2.3428,2.2742,0.0,0.0,0.3581,0.3581,0.364,0.3688,0.3818,0.3954,0.4113,0.0,0.4618,0.5063,0.5741,0.6277,0.6713,0.7038,0.729,0.7529,0.7719,0.7719,0.7649,0.7535,0.7527,0.7348,0.7081,0.7475,0.778,0.8013,0.8869,0.9448,0.9723,1.0098,1.0273,1.0273,1.0273,0.0,1.0293,1.0332,1.0625,1.1094,1.1484,1.1953,1.2433,1.2871,1.3281,1.3691,1.4082,1.4238,1.4316,1.4606,1.3748,1.2363,1.1247,1.0988,1.1115,1.1427,1.1667,1.1895,1.2077,1.233,1.2615,1.2861,1.3025,0.0,1.3198,1.3659,1.4223,1.4727,1.5255,1.5919,1.6923,1.7099,1.7275,1.7752,1.7928,1.8229,1.8857,1.8883,1.8883,1.8883,1.8336,1.8091,1.8436,1.8082,1.7913,1.807,1.7412,1.6915,1.6804,1.7357,1.7955,1.8567,1.9354,2.0115,2.0806,2.1001,2.1336,2.1787,2.1568,2.1535,2.1655,2.1565,2.1535,2.1575,2.1575,2.1904,2.2473,2.2664,2.3041,2.361,2.361,2.348,2.3216,2.2785,2.2384,2.1891,0.0,0.3581,0.3581,0.3581,0.3767,0.3951,0.3979,0.4286,0.4628,0.4759,0.53,0.5888,0.646,0.675,0.705,0.7446,0.7576,0.7719,0.7828,0.7875,0.7848,0.7842,0.7602,0.7486,0.7419,0.7589,0.778,0.8013,0.8869,0.9448,0.9723,1.0098,1.0273,1.0273,1.0273,1.0273,1.0312,1.0645,1.125,1.1927,1.207,1.2725,1.3717,1.3815,1.416,1.4551,1.4629,1.4995,1.5266,1.438,1.375,1.3211,1.2402,1.1808,1.1518,1.2102,1.2174,1.2113,1.2365,1.2579,1.2791,1.299,1.3129,0.0,1.3198,1.3659,1.4123,1.4223,1.4676,1.509,1.5356,1.5407,1.5432,1.5558,1.6271,1.72,1.8229,1.838,1.8307,1.8211,1.7895,1.763,1.7556,1.7085,1.6756,1.6695,1.6025,1.5606,1.5553,1.5973,1.6542,1.7326,1.8142,1.8909,1.9634,2.0246,2.0756,2.1095,2.1199,2.1344,2.1465,2.0813,2.0587,2.0742,2.0742,2.087,2.1186,2.2233,2.3041,2.361,2.3523,2.3348,2.3038,2.2402,2.163,2.0777,0.3581,0.3581,0.3581,0.3581,0.3841,0.4062,0.423,0.4783,0.5234,0.5431,0.6113,0.677,0.7228,0.7532,0.7797,0.8049,0.8213,0.8263,0.8363,0.8363,0.831,0.8163,0.8003,0.7822,0.7571,0.7773,0.8,0.8193,0.8967,0.9448,0.9744,1.0137,1.0273,1.0273,1.0273,1.0391,1.0605,1.082,1.1543,1.2559,1.2559,1.3184,1.4087,1.4087,1.4277,1.4492,1.4763,1.5342,1.579,1.487,1.4541,1.4363,1.3497,1.3079,1.2958,1.2865,1.284,1.2841,1.2722,1.2826,1.299,1.3129,1.3163,0.0,0.0,1.3659,1.4097,1.4097,1.4299,1.4576,1.4853,1.4676,1.4601,1.4878,1.5567,1.6296,1.6873,1.7426,1.7731,1.7613,1.7134,1.6761,1.6645,1.6184,1.5803,1.5464,1.5122,1.4966,1.5091,1.5536,1.6149,1.6971,1.7773,1.8528,1.9197,1.9565,1.9894,2.0157,2.0045,2.0059,2.0069,1.9711,1.9642,1.9794,1.987,2.0152,2.0584,2.1307,2.1891,2.2473,2.3155,2.3216,2.2756,2.1759,2.0968,2.0168,0.3626,0.3581,0.3588,0.3615,0.3929,0.423,0.4592,0.5354,0.6051,0.6478,0.7257,0.7886,0.8269,0.8593,0.8809,0.8961,0.9084,0.9098,0.8978,0.8978,0.8844,0.855,0.8481,0.8274,0.7921,0.8103,0.828,0.851,0.9082,0.9487,0.9823,1.0118,1.0273,1.0273,1.0273,1.0508,1.0918,1.1094,1.1836,1.2891,1.3066,1.3535,1.4087,1.4087,1.4126,1.4316,1.5044,1.5588,1.6028,1.5574,1.5442,1.5315,1.4562,1.4357,1.4359,1.3721,1.3574,1.3496,1.3007,1.2955,1.3025,1.3094,1.3094,1.3094,0.0,0.0,0.0,1.3885,1.3885,1.4036,1.4488,1.4223,1.4072,1.4488,1.5015,1.5367,1.5367,1.6245,1.6929,1.6995,1.6357,1.5879,1.58,1.5236,1.4671,1.4195,1.4164,1.4286,1.4542,1.5113,1.5808,1.6617,1.7384,1.8058,1.8692,1.8762,1.8893,1.9111,1.8793,1.8616,1.8683,1.8721,1.8798,1.8988,1.9101,1.9505,2.0118,2.0235,2.0538,2.1012,2.2307,2.2571,2.2083,2.09,2.0125,1.9434,0.367,0.3581,0.3615,0.3744,0.423,0.4699,0.4976,0.6091,0.7327,0.8329,0.892,0.9367,0.9667,0.9901,1.0168,1.0354,1.0354,1.014,0.9619,0.9579,0.9446,0.9097,0.8748,0.871,0.8992,0.8665,0.8604,0.892,0.9284,0.9607,0.9823,1.0118,1.0273,1.0273,1.0273,1.0508,1.0957,1.1694,1.2383,1.2949,1.3691,1.399,1.4087,1.4087,1.4375,1.4821,1.5822,1.6078,1.603,1.5938,1.5831,1.5694,1.5656,1.5266,1.4735,1.4785,1.4189,1.3422,1.3007,1.2826,1.2745,1.285,1.2815,1.278,1.285,0.0,1.2994,1.3194,0.0,1.3253,1.3373,0.0,0.0,1.3373,1.3885,1.4274,1.4274,1.4701,1.533,1.6219,1.5893,1.5468,1.5085,1.3976,1.3078,1.2682,1.2656,1.2795,1.3047,1.3773,1.4573,1.5269,1.5903,1.6542,1.7229,1.7512,1.7855,1.8178,1.7975,1.8055,1.8282,1.8055,1.8147,1.8577,1.8655,1.8827,1.9132,1.9681,1.989,1.9843,2.0793,2.0884,2.0354,1.9476,1.8512,1.7605,0.4017,0.3891,0.3988,0.4237,0.4646,0.5123,0.5569,0.6802,0.8039,0.8783,0.9279,0.9693,1.0279,1.0425,1.0637,1.1035,1.1062,1.0889,1.0474,1.0127,0.9806,0.9512,0.9098,0.895,0.9134,0.9182,0.9279,0.9384,0.9795,0.9966,0.998,1.0448,1.0645,1.0664,1.0918,1.127,1.1699,1.2025,1.248,1.2959,1.3362,1.3708,1.4049,1.4149,1.4686,1.5401,1.63,1.6565,1.6589,1.7134,1.71,1.6888,1.7187,1.674,1.61,1.5616,1.4742,1.3852,1.3598,1.3273,1.3021,1.3034,1.3021,1.2925,1.2782,1.2745,1.278,1.2885,0.0,0.0,0.0,0.0,0.0,0.0,1.3638,1.3988,1.3914,1.4348,1.4765,1.511,1.4869,1.434,1.3521,1.278,1.228,1.2014,1.2252,1.2508,1.2847,1.3605,1.4326,1.4949,1.549,1.6064,1.671,1.6989,1.7282,1.7544,1.7488,1.7529,1.7611,1.757,1.7747,1.8028,1.8108,1.8266,1.8517,1.881,1.8775,1.8602,1.881,1.9278,1.9591,1.8435,1.7641,1.6947,0.4887,0.4562,0.4529,0.4805,0.5184,0.5783,0.6648,0.7869,0.8891,0.9584,1.0128,1.0692,1.1236,1.1423,1.1703,1.2118,1.2078,1.1877,1.1503,1.0929,1.0474,1.018,0.974,0.9531,0.9672,0.9915,1.0058,1.0083,1.0385,1.0522,1.0464,1.0896,1.1094,1.1094,1.1289,1.1641,1.2051,1.2051,1.2363,1.2939,1.3155,1.3701,1.4328,1.4566,1.5111,1.5842,1.6637,1.695,1.7111,1.7954,1.8078,1.7903,1.813,1.779,1.7215,1.636,1.5389,1.4505,1.428,1.3802,1.3304,1.3182,1.3043,1.2811,1.2483,1.2401,1.2437,1.2615,1.265,0.0,0.0,0.0,1.3025,1.3025,0.0,1.3582,1.3509,1.3814,1.4118,1.4332,1.3997,1.3406,1.251,1.2003,1.1729,1.1558,1.1999,1.2333,1.2477,1.3432,1.4122,1.4586,1.5151,1.5712,1.6281,1.6607,1.6863,1.7073,1.7073,1.7073,1.7115,1.7199,1.7323,1.7529,1.7585,1.7774,1.7975,1.7975,1.7814,1.7544,1.7338,1.7738,1.8286,1.7269,1.6594,1.6064,0.6412,0.5819,0.5345,0.5551,0.5897,0.6744,0.8467,0.9334,1.0187,1.1208,1.2371,1.3106,1.312,1.3641,1.3975,1.4001,1.3734,1.332,1.2808,1.2217,1.1677,1.1383,1.0968,1.084,1.1152,1.1001,1.1012,1.1066,1.1221,1.1324,1.133,1.1499,1.1587,1.1567,1.1113,1.1172,1.1626,1.1626,1.2135,1.2959,1.3471,1.4297,1.5195,1.555,1.5737,1.5985,1.6915,1.7256,1.7358,1.7871,1.8154,1.8333,1.8256,1.7977,1.7655,1.7038,1.621,1.535,1.4994,1.4272,1.3564,1.3145,1.2641,1.2118,1.1726,1.1653,1.1763,1.2126,1.2198,1.2365,1.272,1.2815,1.2826,1.2896,1.2885,0.0,0.0,1.2698,1.301,1.4156,1.361,1.2951,1.2468,1.1799,1.1369,1.1205,1.1669,1.1772,1.147,1.2941,1.3786,1.3718,1.4631,1.5311,1.5844,1.6126,1.6454,1.6718,1.6718,1.6761,1.6931,1.6761,1.6846,1.7031,1.7157,1.7323,1.7447,1.7447,1.7256,1.7005,1.6795,1.6392,1.5869,1.5712,1.513,1.4385,0.7407,0.7189,0.696,0.6689,0.6832,0.7495,0.8907,1.0059,1.1005,1.1663,1.2759,1.3641,1.4041,1.4429,1.475,1.4937,1.4856,1.4469,1.3681,1.308,1.2607,1.2254,1.1507,1.1385,1.2073,1.1732,1.1609,1.1816,1.179,1.1676,1.1519,1.1875,1.2012,1.2012,1.2148,1.2129,1.2012,1.2012,1.239,1.3173,1.4348,1.5151,1.5674,1.6148,1.6375,1.6579,1.7389,1.7687,1.7819,1.8538,1.8727,1.8709,1.8797,1.8366,1.7697,1.71,1.6059,1.5165,1.507,1.4435,1.3814,1.3643,1.3108,1.2479,1.2118,1.1708,1.1555,1.215,1.2294,1.2431,1.2808,1.292,1.2912,1.2663,1.2615,1.2579,0.0,1.2473,1.2579,1.2873,1.2507,1.2048,1.158,1.1238,1.1038,1.0921,1.1328,1.1695,1.1964,1.2751,1.3432,1.3903,1.4378,1.4926,1.5445,1.58,1.6132,1.6479,1.6522,1.6607,1.665,1.6565,1.665,1.6803,1.6846,1.6973,1.7073,1.7073,1.6905,1.6625,1.6324,1.5932,1.5445,1.5311,1.4766,1.401,0.8416,0.8366,0.8135,0.77,0.78,0.8373,0.9517,1.081,1.1933,1.2585,1.3868,1.487,1.5257,1.5565,1.5778,1.5858,1.5671,1.5311,1.4838,1.4223,1.3695,1.3579,1.2942,1.2825,1.3108,1.2957,1.2805,1.2661,1.2597,1.2367,1.2077,1.2324,1.2461,1.2461,1.2598,1.2402,1.1992,1.1816,1.2279,1.329,1.5174,1.5998,1.6142,1.6891,1.7011,1.6953,1.7716,1.807,1.8334,1.896,1.9175,1.9106,1.9169,1.863,1.7845,1.7314,1.6444,1.5561,1.5562,1.4977,1.4304,1.4138,1.3653,1.3099,1.2658,1.2236,1.2088,1.2485,1.2459,1.2407,1.2664,1.2636,1.2579,1.234,1.233,1.2365,0.0,1.2365,1.233,1.2162,1.1945,1.1638,1.125,1.1061,1.0947,1.0812,1.1184,1.1491,1.1675,1.2271,1.2751,1.3076,1.3515,1.4071,1.4788,1.5186,1.5676,1.6262,1.6392,1.6479,1.6522,1.6522,1.6522,1.6633,1.6633,1.6675,1.6735,1.6735,1.6607,1.6306,1.6001,1.5558,1.5062,1.488,1.432,1.352,0.9401,0.9258,0.8989,0.8595,0.8862,0.9402,1.0275,1.1663,1.2989,1.4041,1.5658,1.6727,1.6727,1.6994,1.7048,1.6727,1.6192,1.5953,1.6197,1.5376,1.5019,1.5147,1.5158,1.4937,1.4412,1.4634,1.4405,1.3569,1.3561,1.332,1.291,1.2891,1.2891,1.2871,1.2441,1.2012,1.1606,1.1152,1.1787,1.333,1.5924,1.6721,1.6589,1.7639,1.758,1.7059,1.7847,1.841,1.8839,1.9133,1.9396,1.9552,1.9291,1.8815,1.8224,1.781,1.7145,1.6581,1.6431,1.5818,1.5094,1.4653,1.4212,1.3771,1.333,1.323,1.3137,1.3057,1.2648,1.2341,1.2323,1.2074,1.1867,1.1872,1.1982,1.2113,1.2198,1.2294,1.233,1.215,1.1932,1.1675,1.1421,1.1195,1.1044,1.0812,1.1163,1.1145,1.0681,1.1469,1.1836,1.1511,1.2173,1.2915,1.3872,1.435,1.5038,1.6001,1.6262,1.6436,1.6522,1.6522,1.6522,1.6522,1.6522,1.6522,1.6522,1.6522,1.6306,1.5957,1.5668,1.5153,1.4534,1.4233,1.3675,1.2875,0.9615,0.992,1.0226,1.0312,1.0417,1.0718,1.1381,1.2895,1.4223,1.4977,1.6219,1.7034,1.7034,1.7301,1.7261,1.6754,1.6567,1.6303,1.5937,1.5846,1.5913,1.6386,1.6098,1.6057,1.6343,1.578,1.5216,1.4773,1.4192,1.375,1.334,1.3027,1.2891,1.2871,1.2754,1.2461,1.2051,1.1934,1.2497,1.3697,1.5297,1.6046,1.6188,1.7089,1.7338,1.7375,1.8277,1.8839,1.9133,1.9396,1.9604,1.9708,1.9344,1.8975,1.8518,1.759,1.6976,1.6524,1.6029,1.5479,1.5044,1.4869,1.438,1.3851,1.3731,1.3352,1.3173,1.3589,1.3314,1.294,1.2778,1.2552,1.22,1.154,1.1638,1.1881,1.2186,1.2186,1.2186,1.2162,1.1945,1.1675,1.1421,1.1271,1.1061,1.0812,1.0897,1.1001,1.1105,1.1246,1.1486,1.1877,1.2064,1.2635,1.3586,1.4177,1.4908,1.5869,1.6219,1.6436,1.6522,1.6522,1.6522,1.6522,1.6522,1.6479,1.6436,1.6436,1.6132,1.5691,1.5379,1.4582,1.3695,1.3505,1.325,1.2868,1.0234,1.0621,1.1035,1.1329,1.181,1.2225,1.2425,1.3748,1.5017,1.5858,1.6887,1.7542,1.7542,1.7689,1.7542,1.6954,1.678,1.6643,1.6292,1.6406,1.6733,1.7219,1.7202,1.7299,1.7464,1.6754,1.5992,1.5484,1.4538,1.3873,1.3496,1.3086,1.2891,1.2891,1.2891,1.2637,1.22,1.2516,1.3017,1.3745,1.5203,1.5911,0.0,1.7042,1.7512,1.7748,1.8531,1.8999,1.9239,1.9448,1.9604,1.9656,1.9239,1.8869,1.841,1.759,1.692,1.6353,1.5914,1.5484,1.5172,1.5172,1.4873,1.4572,1.4572,1.432,1.409,1.4327,1.4021,1.3571,1.3091,1.283,1.2382,1.1637,1.1491,1.1623,1.1945,1.2187,1.2196,1.2077,1.2076,1.1881,1.1346,1.1174,1.0947,1.0659,1.0621,1.0703,1.0865,1.0805,1.1003,1.1482,1.1608,1.2086,1.2978,1.3496,1.4144,1.4915,1.5539,1.5916,1.6044,1.6336,1.6479,1.6479,1.6479,1.6479,1.6392,1.6349,1.6001,1.54,1.472,1.4025,1.3362,1.3142,1.2968,1.2763,1.1102,1.1396,1.1703,1.2037,1.3026,1.3721,1.3627,1.4509,1.5565,1.662,1.7475,1.7983,1.7983,1.7983,1.7742,1.7141,1.686,1.6765,1.6912,1.6933,1.7316,1.7931,1.8249,1.8297,1.8099,1.7515,1.6797,1.5908,1.4751,1.4004,1.3574,1.3105,1.2891,1.2891,1.2891,1.2676,1.2344,1.3062,1.3435,1.3682,1.5342,1.6051,1.6202,1.7247,1.77,1.7897,1.8518,1.8946,1.9239,1.9368,1.9473,1.9448,1.9105,1.8655,1.817,1.7623,1.6899,1.6239,1.5972,1.5662,1.541,1.541,1.541,1.541,1.541,1.541,1.5312,1.511,1.4696,1.4143,1.3432,1.2977,1.2511,1.2027,1.152,1.1411,1.1852,1.2157,1.2262,1.2024,1.2185,0.0,1.1403,1.1065,1.0753,1.0408,1.039,1.039,1.0273,1.0273,1.0469,1.0898,1.1041,1.1468,1.2254,1.2679,1.3181,1.3732,1.4642,1.5181,1.5372,1.6015,1.6306,1.6306,1.6392,1.6392,1.6306,1.6175,1.5736,1.504,1.3978,1.3478,1.3334,1.3017,1.2842,1.2676,1.2011,1.2318,1.2692,1.324,1.3908,1.4683,1.5591,1.6112,1.6567,1.7007,1.7422,1.7662,1.7662,1.7662,1.7422,1.6834,1.674,1.6585,1.6334,1.6725,1.7326,1.7995,1.8467,1.8684,1.8665,1.8156,1.7415,1.6558,1.5312,1.4453,1.3951,1.3242,1.2891,1.2891,1.2891,1.2832,1.2793,1.3372,1.3701,1.3952,1.5042,1.567,1.6006,1.6838,1.729,1.7623,1.817,1.8732,1.921,1.9368,1.9344,1.9239,1.8946,1.8494,1.8038,1.7401,1.6807,1.6239,1.5972,1.5662,1.541,1.541,1.541,1.541,1.541,1.541,1.5391,1.5312,1.5017,1.4566,1.4057,1.3135,1.2463,1.2528,1.19,1.1632,1.244,1.1901,1.1746,1.2622,1.2165,1.1858,1.1943,1.1323,1.0753,1.0408,1.039,1.039,1.0273,1.0273,1.0469,1.0898,1.1041,1.1406,1.2126,1.2595,1.3015,1.3388,1.4308,1.4862,1.4989,1.5627,1.5913,1.5913,1.6044,1.6001,1.5804,1.5736,1.5175,1.4305,1.3552,1.3238,1.3113,1.2968,1.2891,1.2774,1.2973,1.324,1.3587,1.4015,1.4843,1.5725,1.6593,1.7114,1.7448,1.7595,1.7729,1.7756,1.7595,1.7448,1.7181,1.674,1.6567,1.6397,1.6252,1.6697,1.7267,1.7827,1.8402,1.8633,1.8547,1.7953,1.7369,1.6675,1.543,1.457,1.4068,1.3711,1.3301,1.2891,1.2891,1.3008,1.3223,1.357,1.3977,1.454,1.5069,1.5538,1.5951,1.6553,1.6955,1.72,1.7678,1.8139,1.8464,1.8839,1.8869,1.8655,1.8224,1.7843,1.7435,1.6899,1.6467,1.6066,1.5856,1.5604,1.541,1.541,1.541,1.541,1.541,1.541,1.541,1.541,1.5254,1.498,1.4551,1.3665,1.2977,1.2882,1.2348,1.1956,1.2027,1.1798,1.1797,1.213,1.2006,1.184,1.1632,1.1247,1.0924,1.0685,1.0469,1.0312,1.0196,1.0196,1.035,1.0669,1.0753,1.1049,1.163,1.204,1.2404,1.2784,1.3714,1.4221,1.4413,1.5101,1.5424,1.5424,1.5647,1.5647,1.5447,1.5062,1.4536,1.3952,1.3382,1.3113,1.3085,1.2939,1.2891,1.2822,1.4015,1.4255,1.4576,1.4923,1.5805,1.666,1.7248,1.7796,1.8116,1.805,1.7983,1.7836,1.7528,1.7288,1.7007,1.6647,1.6406,1.6249,1.6143,1.6602,1.7115,1.7508,1.8217,1.853,1.8261,1.7821,1.7312,1.6875,1.5644,1.4844,1.436,1.436,1.4062,1.3418,1.332,1.3477,1.3769,1.3893,1.434,1.4972,1.5163,1.5479,1.5914,1.6296,1.6524,1.6694,1.7145,1.7368,1.7534,1.8007,1.817,1.8061,1.7567,1.7179,1.6842,1.641,1.6066,1.5836,1.572,1.5546,1.541,1.541,1.541,1.541,1.541,1.541,1.541,1.541,1.541,1.5312,1.498,1.4297,1.3672,1.3421,1.2929,1.249,1.2071,1.2118,1.2101,1.1879,1.2019,1.1956,1.1366,1.1263,1.114,1.0918,1.0527,1.0196,1.0079,1.0059,1.013,1.0419,1.0396,1.0624,1.106,1.1412,1.1717,1.2105,1.2975,1.3453,1.3718,1.4451,1.4834,1.488,1.5153,1.5198,1.5017,1.4373,1.3952,1.3668,1.321,1.3085,1.3036,1.2939,1.2891,1.2842,1.5231,1.5471,1.5845,1.6406,1.682,1.7275,1.7876,1.8237,1.8343,1.805,1.7782,1.7515,1.7221,1.7271,1.6927,1.6366,1.6286,1.6152,1.5845,1.6305,1.6822,1.713,1.7938,1.8263,1.8166,1.8008,1.7751,1.7324,1.6387,1.5723,1.5293,1.5293,1.5254,1.5156,1.4785,1.4629,1.4668,1.4668,1.4763,1.488,1.5253,1.5507,1.574,1.5874,1.6046,1.6218,1.6581,1.6694,1.6694,1.6786,1.7123,1.7512,1.7179,1.6842,1.656,1.6239,1.5951,1.574,1.5682,1.5546,1.541,1.541,1.541,1.541,1.541,1.541,1.541,1.541,1.541,1.5391,1.5352,1.498,1.4648,1.4665,1.3926,1.3547,1.3945,1.3065,1.2517,1.2997,1.2642,1.2218,1.176,1.1634,1.1371,1.0937,1.0388,1.0079,1.0019,0.9841,0.9848,1.0131,1.0083,1.022,1.0642,1.0927,1.1148,1.1324,1.2198,1.2736,1.3028,1.3647,1.3999,1.4118,1.4373,1.4512,1.4419,1.3905,1.3573,1.3409,1.3065,1.2939,1.2939,1.2891,1.2891,1.2822,1.6179,1.642,1.6754,1.7154,1.7488,1.7836,1.825,1.8263,1.8116,1.7796,1.7649,1.7475,1.7181,1.6834,1.6526,1.6299,1.6112,1.6061,1.6035,1.6327,1.6718,1.7189,1.7965,1.8336,1.8055,1.8152,1.7946,1.7383,1.6758,1.6113,1.541,1.5684,1.5664,1.5391,1.498,1.4922,1.5137,1.4883,1.4941,1.5176,1.5352,1.5468,1.5546,1.572,1.5836,1.5894,1.6066,1.6181,1.6181,1.6181,1.6467,1.6751,1.6446,1.6218,1.6009,1.5758,1.5584,1.5546,1.5546,1.5468,1.541,1.541,1.541,1.541,1.541,1.541,1.541,1.541,1.541,1.541,1.541,1.5273,1.5078,1.4824,1.4492,1.4062,1.3527,1.3047,1.2575,1.2292,1.2069,1.1748,1.1296,1.1214,1.0954,1.0446,1.0214,1.0,0.9841,0.9585,0.9359,0.913,0.9064,0.9307,0.9893,1.0075,1.0573,1.1381,1.1881,1.2292,1.255,1.2898,1.3218,1.3389,1.3695,1.3742,1.3647,1.3457,1.3286,1.321,1.2968,1.2891,1.2891,1.2891,1.2842,1.2725,1.7208,1.7328,1.7502,1.7796,1.7956,1.8116,1.833,1.8103,1.7796,1.7502,1.7301,1.7128,1.6914,1.6526,1.6233,1.6152,1.6048,1.6021,1.6319,1.648,1.6876,1.7517,1.8178,1.8451,1.8119,1.8335,1.8209,1.7559,1.7266,1.6719,1.5996,1.6172,1.6172,1.5977,1.541,1.5332,1.5586,1.5156,1.5137,1.541,1.541,1.541,1.541,1.5546,1.5604,1.5604,1.574,1.572,1.572,1.572,1.5894,1.6009,1.5894,1.5778,1.5662,1.5468,1.541,1.541,1.541,1.541,1.541,1.541,1.541,1.541,1.541,1.541,1.541,1.541,1.541,1.541,1.541,1.541,1.5273,1.4863,1.4785,1.4434,1.3398,1.3145,1.2686,1.1875,1.1669,1.1354,1.0637,1.0676,1.0539,0.9999,0.9922,0.9765,0.9545,0.9248,0.8846,0.8357,0.8193,0.8388,0.8974,0.9159,0.9834,1.0947,1.1249,1.1619,1.2017,1.2295,1.254,1.2832,1.3094,1.319,1.3122,1.319,1.3142,1.3085,1.292,1.2891,1.2891,1.2871,1.2774,1.2578,1.841,1.8237,1.813,1.8424,1.8237,1.805,1.805,1.7796,1.7488,1.7194,1.6647,1.6286,1.6286,1.6273,1.6152,1.5858,1.6035,1.6305,1.6588,1.6941,1.7325,1.7953,1.8532,1.8612,1.8341,1.8765,1.8653,1.8008,1.8008,1.7773,1.7344,1.6914,1.6953,1.7324,1.6445,1.6115,1.6096,1.5586,1.541,1.541,1.541,1.541,1.541,1.541,1.541,1.541,1.541,1.541,1.541,1.541,1.541,1.5468,1.5604,1.5682,1.5662,1.5468,1.541,1.541,1.541,1.541,1.541,1.541,1.541,1.541,1.541,1.541,1.541,1.541,1.541,1.541,1.541,1.541,1.5273,1.4863,1.4785,1.4629,1.4126,1.3646,1.2984,1.2204,1.1883,1.1191,0.9953,1.0113,1.0146,0.9759,0.9448,0.9288,0.9226,0.8765,0.8316,0.7919,0.7655,0.7645,0.7928,0.8318,0.8871,0.9637,1.0012,1.0576,1.1318,1.1719,1.2067,1.2332,1.2578,1.2822,1.3017,1.3065,1.3085,1.3085,1.292,1.2891,1.2871,1.2725,1.2627,1.2431,1.8437,1.825,1.8143,1.8437,1.8237,1.7969,1.7756,1.7475,1.7114,1.662,1.6393,1.6192,1.5992,1.5965,1.5939,1.5832,1.6035,1.6317,1.6742,1.7056,1.7604,1.8532,1.8883,1.9054,1.8803,1.9078,1.8796,1.8008,1.8008,1.7637,1.6934,1.6797,1.6641,1.6465,1.6253,1.6115,1.6096,1.5586,1.541,1.541,1.541,1.541,1.541,1.541,1.541,1.541,1.541,1.541,1.541,1.541,1.541,1.541,1.5468,1.5488,1.5468,1.541,1.541,1.541,1.541,1.541,1.541,1.541,1.541,1.541,1.541,1.541,1.541,1.541,1.541,1.541,1.541,1.5176,1.4941,1.4805,1.4531,1.4145,1.3613,1.3068,1.2396,1.1378,1.1149,1.0695,0.9933,1.0177,1.0224,0.9909,0.9581,0.9223,0.8926,0.8504,0.807,0.7587,0.7251,0.7217,0.7424,0.7729,0.8249,0.8933,0.9402,0.9925,1.0438,1.0744,1.1015,1.1217,1.1669,1.2017,1.2264,1.248,1.2676,1.2822,1.2774,1.2822,1.2871,1.2725,1.248,1.2184,1.8611,1.833,1.8103,1.829,1.7983,1.7649,1.7448,1.7074,1.6687,1.6326,1.6179,1.6032,1.5845,1.5832,1.5832,1.5832,1.6211,1.6649,1.6857,1.7424,1.8034,1.8697,1.9111,1.9081,1.8656,1.9004,1.8796,1.7872,1.7784,1.75,1.6973,1.6641,1.6328,1.6115,1.5898,1.582,1.5801,1.5527,1.541,1.541,1.541,1.541,1.541,1.541,1.541,1.541,1.541,1.541,1.541,1.541,1.541,1.541,1.541,1.541,1.541,1.541,1.541,1.541,1.541,1.541,1.541,1.541,1.541,1.541,1.541,1.541,1.541,1.541,1.541,1.5371,1.5215,1.4961,1.4687,1.4355,1.4082,1.3698,1.3169,1.2529,1.178,1.0903,1.0499,1.0072,0.952,0.9692,0.9773,0.9619,0.9318,0.9021,0.8754,0.8357,0.7974,0.7538,0.7198,0.7051,0.7077,0.7314,0.7734,0.83,0.9006,0.9458,0.9769,1.0095,1.0352,1.0557,1.1116,1.1469,1.1719,1.2017,1.2234,1.2382,1.2431,1.2529,1.2578,1.2382,1.2085,1.1719,1.8865,1.841,1.8009,1.7996,1.7528,1.7244,1.7101,1.662,1.6259,1.6246,1.6005,1.5832,1.5832,1.5832,1.5818,1.5805,1.656,1.6993,1.7115,1.7834,1.8429,1.8513,1.9012,1.8907,1.8137,1.8692,1.8562,1.7716,1.7512,1.7363,1.7324,1.6465,1.6096,1.6056,1.5586,1.541,1.541,1.541,1.541,1.541,1.541,1.541,1.541,1.541,1.541,1.541,1.541,1.541,1.541,1.541,1.541,1.541,1.541,1.541,1.541,1.541,1.541,1.541,1.541,1.541,1.541,1.541,1.541,1.541,1.541,1.541,1.541,1.541,1.541,1.5273,1.4863,1.4766,1.4473,1.3633,1.3477,1.327,1.2734,1.1958,1.1222,1.065,0.9989,0.9402,0.886,0.8898,0.8956,0.8956,0.8786,0.8707,0.8641,0.8292,0.8007,0.7706,0.7446,0.7158,0.6917,0.7074,0.7365,0.7847,0.8723,0.9211,0.9368,0.9732,0.9991,1.0146,1.0761,1.1065,1.1267,1.1619,1.1819,1.1868,1.1968,1.2067,1.2017,1.1769,1.1519,1.1167,1.825,1.7956,1.7622,1.7395,1.7248,1.6994,1.6553,1.6366,1.6192,1.5965,1.5872,1.5927,1.613,1.613,1.6129,1.6253,1.6423,1.6661,1.6966,1.7486,1.7795,1.8104,1.8285,1.8308,1.8137,1.8244,1.8184,1.794,1.7578,1.7207,1.6875,1.6328,1.5879,1.5566,1.5449,1.541,1.541,1.541,1.541,1.541,1.541,1.541,1.541,1.541,1.541,1.541,1.541,1.541,1.541,1.541,1.541,1.541,1.541,1.541,1.541,1.541,1.541,1.541,1.541,1.541,1.541,1.541,1.541,1.541,1.541,1.541,1.541,1.541,1.541,1.5273,1.4863,1.4512,1.4121,1.3594,1.3142,1.2791,1.245,1.1622,1.0841,1.0281,0.9803,0.9387,0.9085,0.9254,0.938,0.9293,0.9012,0.8884,0.8885,0.8608,0.8214,0.7862,0.7529,0.729,0.7158,0.7274,0.7653,0.8279,0.8593,0.8791,0.8962,0.9159,0.9316,0.9472,0.9821,1.0131,1.0454,1.0659,1.1015,1.1418,1.1469,1.1619,1.1769,1.1469,1.1217,1.0863,1.7862,1.7595,1.7288,1.6994,1.6834,1.6647,1.6326,1.6152,1.6005,1.5845,1.5832,1.5927,1.613,1.6195,1.6309,1.669,1.6766,1.6757,1.6809,1.7281,1.743,1.7318,1.7497,1.7527,1.722,1.7642,1.7877,1.8008,1.7383,1.6973,1.6719,1.6074,1.5644,1.541,1.541,1.541,1.541,1.541,1.541,1.541,1.541,1.541,1.541,1.541,1.541,1.541,1.541,1.541,1.541,1.541,1.541,1.541,1.541,1.541,1.541,1.541,1.541,1.541,1.541,1.541,1.541,1.541,1.541,1.541,1.541,1.541,1.541,1.541,1.541,1.5215,1.4609,1.4297,1.3926,1.332,1.2929,1.2578,1.2283,1.1411,1.0657,1.0186,0.9718,0.9387,0.9273,0.9503,0.9631,0.9522,0.9369,0.9302,0.9302,0.9153,0.8817,0.8224,0.801,0.776,0.752,0.755,0.7798,0.8315,0.8421,0.8633,0.8804,0.8962,0.9054,0.9106,0.9406,0.9614,0.9836,1.0028,1.0336,1.0643,1.0694,1.0795,1.0897,1.0694,1.0438,1.0131,1.7674,1.7288,1.6994,1.6687,1.6433,1.6259,1.6219,1.5992,1.5832,1.5832,1.5832,1.6021,1.6319,1.6309,1.6555,1.7146,1.7191,1.7009,1.6621,1.7038,1.7048,1.6319,1.6732,1.6685,1.6158,1.6987,1.7642,1.791,1.7129,1.6699,1.6621,1.5801,1.541,1.541,1.541,1.541,1.541,1.541,1.541,1.541,1.541,1.541,1.541,1.541,1.541,1.541,1.541,1.541,1.541,1.541,1.541,1.541,1.541,1.541,1.541,1.541,1.541,1.541,1.541,1.541,1.541,1.541,1.541,1.541,1.541,1.541,1.541,1.541,1.541,1.5156,1.4243,1.4087,1.3867,1.3027,1.2716,1.2453,1.2116,1.1221,1.0516,1.0229,0.9746,0.9409,0.9438,0.9596,0.9686,0.9686,0.9686,0.9686,0.9686,0.9686,0.9389,0.8777,0.8564,0.8312,0.7955,0.7889,0.7943,0.8275,0.8368,0.854,0.8804,0.891,0.8962,0.8962,0.9211,0.9316,0.9368,0.9562,0.9718,0.9769,0.9858,0.9909,0.9909,0.9769,0.9562,0.9249,1.7338,1.6981,1.6687,1.6393,1.6299,1.6192,1.5939,1.5858,1.5832,1.5832,1.6021,1.6319,1.6791,1.7139,1.7371,1.7627,1.7502,1.7281,1.6831,1.6484,1.6216,1.5824,1.5715,1.5729,1.5912,1.6776,1.7347,1.748,1.6973,1.6543,1.6152,1.5644,1.541,1.541,1.541,1.541,1.541,1.541,1.541,1.541,1.541,1.541,1.541,1.541,1.541,1.541,1.541,1.541,1.541,1.541,1.541,1.541,1.541,1.541,1.541,1.541,1.541,1.541,1.541,1.541,1.541,1.541,1.541,1.541,1.541,1.541,1.541,1.541,1.541,1.5156,1.4243,1.4087,1.3867,1.3027,1.2321,1.1854,1.1931,1.1048,1.0332,1.0302,0.9994,0.9795,0.9663,0.9659,0.9686,0.9686,0.9686,0.9686,0.9686,0.9686,0.9646,0.9552,0.9131,0.8732,0.8328,0.8315,0.8368,0.8527,0.858,0.8633,0.8804,0.8804,0.8857,0.8857,0.8857,0.8962,0.9054,0.9106,0.9263,0.9458,0.9458,0.9562,0.9614,0.9368,0.9211,0.8949,1.7259,1.6887,1.6589,1.6086,1.6032,1.5992,1.5845,1.5832,1.5832,1.5832,1.6021,1.6414,1.7059,1.7341,1.7585,1.8056,1.7608,1.7135,1.6635,1.6163,1.5658,1.5159,1.5033,1.5279,1.601,1.6581,1.6961,1.7232,1.6741,1.636,1.6115,1.5625,1.541,1.541,1.541,1.541,1.541,1.541,1.541,1.541,1.541,1.541,1.541,1.541,1.541,1.541,1.541,1.541,1.541,1.541,1.541,1.541,1.541,1.541,1.541,1.541,1.541,1.541,1.541,1.541,1.541,1.541,1.541,1.541,1.541,1.541,1.541,1.541,1.541,1.5215,1.459,1.4492,1.4199,1.3359,1.2941,1.2536,1.2091,1.1414,1.0864,1.0694,1.0348,1.0146,1.0201,1.0154,1.0154,1.0154,1.0154,1.0154,1.0154,1.0154,1.0154,1.0154,0.9394,0.8903,0.8719,0.8498,0.8474,0.862,0.862,0.8685,0.8804,0.8804,0.8804,0.8804,0.8804,0.8857,0.891,0.891,0.8962,0.9054,0.9054,0.9054,0.904,0.8844,0.858,0.8209,1.7272,1.6772,1.6402,1.5872,1.5832,1.5832,1.5832,1.5832,1.5832,1.5927,1.6211,1.6683,1.7434,1.7566,1.7763,1.837,1.7629,1.6894,1.6304,1.5749,1.5209,1.4629,1.4677,1.5119,1.6087,1.6403,1.6757,1.7081,1.6658,1.6297,1.6115,1.5625,1.541,1.541,1.541,1.5352,1.5371,1.5371,1.5371,1.5294,1.5352,1.5371,1.5371,1.5371,1.5371,1.5371,1.5294,1.5294,1.5294,1.5352,1.5371,1.5352,1.541,1.541,1.541,1.541,1.5352,1.5352,1.541,1.541,1.541,1.541,1.541,1.541,1.541,1.541,1.541,1.541,1.541,1.5273,1.4863,1.4785,1.4531,1.3769,1.348,1.3075,1.2432,1.1771,1.1272,1.1019,1.0653,1.0424,1.0604,1.0618,1.0618,1.0618,1.0618,1.0618,1.0618,1.0618,1.0618,1.0618,0.9715,0.9249,0.9184,0.8773,0.8631,0.8725,0.8659,0.8685,0.8804,0.8804,0.8804,0.8804,0.8804,0.8804,0.8804,0.8804,0.8804,0.8804,0.8804,0.8685,0.858,0.8421,0.8049,0.7622,1.6967,1.6471,1.6157,1.5832,1.5832,1.5832,1.5832,1.5832,1.5927,1.613,1.6602,1.7261,1.7994,1.8192,1.837,1.8473,1.7813,1.6894,1.5824,1.5049,1.4565,1.4321,1.465,1.5161,1.607,1.6403,1.6757,1.7081,1.6658,1.6297,1.6115,1.5625,1.541,1.541,1.541,1.5313,1.5215,1.5215,1.5156,1.5039,1.5156,1.5215,1.5215,1.5215,1.5215,1.5215,1.5098,1.5039,1.5039,1.5156,1.5215,1.5274,1.5352,1.541,1.541,1.541,1.5313,1.5274,1.5352,1.541,1.541,1.541,1.541,1.541,1.541,1.541,1.541,1.541,1.541,1.5273,1.4863,1.4785,1.4629,1.416,1.3299,1.2784,1.2751,1.1696,1.0942,1.1019,1.0726,1.0604,1.0618,1.0618,1.0618,1.0618,1.0618,1.0618,1.0618,1.0618,1.0618,1.0618,1.0234,0.9927,0.9659,0.9296,0.915,0.915,0.8884,0.8804,0.8804,0.8804,0.8804,0.8804,0.8804,0.8804,0.8804,0.8804,0.8804,0.8804,0.8804,0.8685,0.858,0.8328,0.7901,0.7461,1.7688,1.7085,1.6683,1.6116,1.6035,1.6021,1.5832,1.5832,1.5927,1.613,1.6494,1.7059,1.7994,1.7924,1.7953,1.8213,1.7211,1.6304,1.556,1.4693,1.4111,1.3889,1.4471,1.5056,1.5488,1.6053,1.6414,1.6751,1.6419,1.6128,1.5872,1.5467,1.5254,1.5137,1.5137,1.5079,1.4902,1.4902,1.4843,1.4725,1.4725,1.4784,1.4784,1.4784,1.4666,1.4606,1.4666,1.4725,1.4725,1.498,1.5156,1.5215,1.5352,1.541,1.5352,1.5196,1.4961,1.4784,1.4666,1.4902,1.5137,1.5001,1.5137,1.5254,1.5254,1.5371,1.5488,1.5762,1.5605,1.5449,1.5547,1.5352,1.4982,1.4499,1.4054,1.3584,1.2928,1.2129,1.148,1.1232,1.0864,1.0618,1.0618,1.0618,1.0618,1.0618,1.0618,1.0618,1.0618,1.0618,1.0618,1.0618,1.0448,1.0247,0.9953,0.9472,0.919,0.9176,0.8938,0.8804,0.8804,0.8804,0.8804,0.8804,0.8804,0.8804,0.8804,0.8804,0.8804,0.8804,0.8804,0.8646,0.8474,0.8275,0.7783,0.7192,1.8103,1.7486,1.7059,1.6319,1.6224,1.613,1.5832,1.5832,1.5927,1.6305,1.6588,1.7059,1.7994,1.7655,1.743,1.7779,1.6622,1.5681,1.5083,1.4209,1.3632,1.3521,1.4156,1.4652,1.4991,1.563,1.6138,1.6352,1.616,1.5939,1.5708,1.5229,1.4961,1.4743,1.4743,1.4606,1.441,1.441,1.435,1.4172,1.4231,1.4291,1.4291,1.4231,1.4112,1.3992,1.4112,1.4172,1.4231,1.4666,1.4902,1.5079,1.5294,1.5352,1.5196,1.4843,1.4547,1.4172,1.3872,1.4052,1.441,1.4529,1.4784,1.502,1.5098,1.5254,1.5488,1.5977,1.582,1.5703,1.6076,1.582,1.5469,1.5061,1.4784,1.4297,1.3554,1.2677,1.1959,1.1517,1.0925,1.0658,1.0752,1.0766,1.0766,1.0766,1.0766,1.0725,1.0631,1.0618,1.0618,1.0618,1.0618,1.0461,1.0261,0.9673,0.9379,0.9379,0.8991,0.8804,0.8804,0.8804,0.8804,0.8804,0.8804,0.8804,0.8804,0.8804,0.8804,0.8804,0.8804,0.8646,0.8421,0.8315,0.7836,0.7139,1.8039,1.7512,1.7044,1.6319,1.6224,1.613,1.5832,1.5832,1.6021,1.6494,1.6777,1.7261,1.7994,1.7476,1.7064,1.7064,1.603,1.5097,1.4374,1.3457,1.3127,1.3279,1.3638,1.4057,1.4561,1.5401,1.5861,1.6035,1.5946,1.5731,1.5383,1.4911,1.4529,1.4189,1.4189,1.407,1.3769,1.3769,1.3709,1.3511,1.3709,1.3769,1.3769,1.3571,1.3511,1.345,1.3329,1.339,1.3631,1.4291,1.4588,1.4765,1.5235,1.5196,1.4902,1.4369,1.401,1.3649,1.2948,1.2887,1.3191,1.401,1.435,1.4588,1.4902,1.5098,1.539,1.5977,1.6115,1.6115,1.6135,1.6135,1.6074,1.5831,1.5216,1.4782,1.4638,1.3282,1.2173,1.1848,1.1063,1.0675,1.0969,1.0995,1.0995,1.0995,1.0995,1.0862,1.0645,1.0618,1.0618,1.0618,1.0618,1.0618,1.0618,0.998,0.9686,0.9686,0.9098,0.8818,0.8804,0.8804,0.8804,0.8804,0.8804,0.8804,0.8804,0.8804,0.8804,0.8804,0.8804,0.8685,0.858,0.8421,0.7996,0.7461,1.906,1.8442,1.7885,1.7153,1.6683,1.64,1.6116,1.5927,1.6021,1.6494,1.6683,1.6965,1.7714,1.695,1.6374,1.6639,1.5433,1.4352,1.3614,1.3252,1.2956,1.2601,1.3243,1.3783,1.4274,1.4676,1.5257,1.5815,1.5414,1.5159,1.5031,1.4369,1.3872,1.3571,1.345,1.3268,1.3103,1.3103,1.2981,1.2781,1.2797,1.2736,1.2736,1.2536,1.2413,1.2351,1.2552,1.2781,1.313,1.3752,1.4291,1.4765,1.5137,1.4961,1.4529,1.407,1.3407,1.2797,1.2413,1.2166,1.2228,1.3025,1.3692,1.4249,1.4588,1.4902,1.5467,1.6325,1.6289,1.6311,1.6875,1.6738,1.6398,1.6128,1.5623,1.5021,1.4362,1.3306,1.2446,1.1977,1.1491,1.1196,1.1289,1.1289,1.1289,1.1289,1.1102,1.0955,1.0862,1.0675,1.0618,1.0618,1.0618,1.0618,1.0618,1.018,0.998,0.998,0.9606,0.9312,0.9057,0.9057,0.9005,0.8804,0.8804,0.8804,0.8804,0.8804,0.8804,0.8804,0.8804,0.8685,0.858,0.8421,0.7996,0.7408,1.9687,1.9012,1.8458,1.7699,1.7246,1.6777,1.64,1.6211,1.6305,1.6683,1.6871,1.7001,1.7442,1.6592,1.5963,1.5922,1.4824,1.3858,1.324,1.3093,1.2812,1.2318,1.282,1.3273,1.3502,1.4011,1.4443,1.4893,1.4698,1.4462,1.4224,1.3674,1.3208,1.2842,1.2597,1.2474,1.2305,1.2305,1.2243,1.212,1.2058,1.1996,1.1996,1.1794,1.167,1.1622,1.1934,1.2243,1.2658,1.339,1.4172,1.4843,1.4961,1.4666,1.4112,1.3571,1.2842,1.2182,1.1809,1.156,1.156,1.2104,1.2887,1.3631,1.4112,1.4606,1.515,1.6081,1.6201,1.6297,1.6818,1.6838,1.6651,1.6262,1.5787,1.5181,1.4527,1.3545,1.2716,1.2234,1.171,1.1476,1.1583,1.1597,1.1597,1.1597,1.1329,1.1116,1.1061,1.0951,1.0803,1.0821,1.0807,1.0807,1.0807,1.0505,1.0295,1.0114,0.982,0.9593,0.9406,0.9243,0.9084,0.8978,0.8858,0.8804,0.8804,0.8804,0.8804,0.8804,0.8804,0.8752,0.8685,0.8527,0.8103,0.7515,2.011,1.9379,1.8735,1.8272,1.7699,1.7138,1.6683,1.6588,1.6683,1.6979,1.7124,1.7272,1.7251,1.6535,1.5848,1.5317,1.4253,1.3561,1.3267,1.2959,1.2652,1.2358,1.2466,1.2594,1.2614,1.3369,1.366,1.357,1.387,1.3729,1.3268,1.2903,1.2474,1.2058,1.1809,1.1685,1.156,1.156,1.156,1.156,1.156,1.1498,1.1498,1.131,1.1247,1.1247,1.1498,1.1747,1.2243,1.3208,1.4172,1.4961,1.4725,1.4231,1.3649,1.2948,1.229,1.1685,1.1185,1.1059,1.1059,1.1247,1.1981,1.2903,1.3571,1.413,1.4657,1.5369,1.5845,1.6128,1.6166,1.6524,1.6693,1.6358,1.5819,1.5308,1.4925,1.3798,1.2827,1.2516,1.1846,1.15,1.1837,1.1891,1.1904,1.1904,1.1637,1.1411,1.1341,1.1272,1.1251,1.1241,1.1136,1.1122,1.1185,1.0996,1.0608,1.0154,0.9886,0.9753,0.9713,0.9419,0.9216,0.9163,0.8938,0.8804,0.8804,0.8804,0.8804,0.8804,0.8804,0.8804,0.8804,0.8633,0.8196,0.761,2.0817,2.0184,1.9471,1.8996,1.8257,1.7419,1.6965,1.6683,1.6683,1.6979,1.7121,1.7204,1.7492,1.6683,1.5965,1.5562,1.4627,1.3868,1.3574,1.3267,1.2973,1.2665,1.2499,1.2267,1.2081,1.2818,1.3224,1.3379,1.3165,1.3001,1.292,1.229,1.1934,1.1685,1.1373,1.1247,1.1185,1.1185,1.1185,1.1185,1.1059,1.0996,1.0933,1.0807,1.0744,1.0807,1.1122,1.1498,1.2104,1.3571,1.4369,1.4725,1.4588,1.4112,1.339,1.2658,1.1934,1.131,1.0933,1.0807,1.0744,1.087,1.1373,1.2104,1.3147,1.3752,1.4297,1.4958,1.5341,1.5707,1.6017,1.6419,1.6555,1.6365,1.5878,1.5263,1.476,1.3636,1.2783,1.2331,1.174,1.1443,1.165,1.2005,1.2211,1.2211,1.2087,1.2095,1.2249,1.1854,1.1754,1.2005,1.1692,1.156,1.1622,1.1498,1.1142,1.0649,1.0456,1.0247,1.0007,0.9726,0.9459,0.9163,0.8938,0.8804,0.8804,0.8804,0.8804,0.8804,0.8804,0.8804,0.8752,0.8434,0.8049,0.745,2.1284,2.0744,2.0201,1.9837,1.8904,1.8071,1.7621,1.734,1.7246,1.7527,1.7613,1.7686,1.771,1.6881,1.5989,1.5078,1.4416,1.3908,1.3467,1.3293,1.3013,1.2559,1.2385,1.224,1.2051,1.2511,1.274,1.2806,1.2585,1.249,1.2552,1.1872,1.1498,1.1373,1.0996,1.087,1.087,1.087,1.087,1.087,1.0744,1.0681,1.0681,1.0618,1.0618,1.0618,1.0996,1.1622,1.2428,1.3649,1.413,1.4231,1.4172,1.3571,1.2781,1.2182,1.156,1.0996,1.0744,1.0618,1.0658,1.0921,1.1171,1.1622,1.2474,1.3086,1.3518,1.3891,1.4438,1.4824,1.5097,1.5583,1.5842,1.57,1.5275,1.4776,1.4274,1.3404,1.2563,1.2046,1.1508,1.1222,1.1377,1.1722,1.1999,1.2144,1.2303,1.2456,1.2586,1.2337,1.2387,1.269,1.2351,1.2243,1.2351,1.2166,1.1872,1.1608,1.1247,1.0913,1.0684,1.038,1.0017,0.9545,0.9248,0.8991,0.8804,0.8804,0.8752,0.8685,0.8685,0.8646,0.8487,0.8103,0.745,0.6588,2.1571,2.1105,2.0744,2.0382,1.9471,1.8643,1.8087,1.7807,1.7792,1.801,1.8159,1.8169,1.7802,1.6939,1.5856,1.4587,1.425,1.3854,1.332,1.324,1.2959,1.2472,1.2405,1.2312,1.2255,1.2308,1.2321,1.2305,1.212,1.212,1.2182,1.156,1.1185,1.1059,1.0744,1.0618,1.0618,1.0618,1.0618,1.0618,1.0618,1.0618,1.0618,1.0618,1.0618,1.0618,1.0996,1.1809,1.2858,1.3528,1.3709,1.3709,1.3649,1.3025,1.2182,1.1685,1.1185,1.0744,1.0555,1.0491,1.0635,1.1046,1.1132,1.1255,1.1759,1.2274,1.2691,1.2846,1.3397,1.3882,1.3931,1.4482,1.4903,1.476,1.4402,1.4057,1.3768,1.3039,1.2271,1.1703,1.1184,1.0873,1.0873,1.1196,1.1552,1.1835,1.2305,1.2563,1.2742,1.2716,1.2928,1.322,1.307,1.2981,1.3191,1.2903,1.2736,1.2736,1.2243,1.1747,1.1358,1.1041,1.0576,1.0017,0.9728,0.9316,0.8884,0.8831,0.8738,0.858,0.8514,0.8315,0.8062,0.7676,0.675,0.5555,2.2087,2.166,2.1122,2.0382,1.9471,1.855,1.79,1.7729,1.7702,1.7584,1.7888,1.7975,1.7705,1.6415,1.5354,1.4741,1.4334,1.3948,1.3614,1.3347,1.3131,1.292,1.2662,1.2541,1.2458,1.2308,1.227,1.2305,1.1996,1.1872,1.1872,1.1185,1.087,1.0807,1.0681,1.0618,1.0618,1.0618,1.0618,1.0618,1.0618,1.0618,1.0618,1.0618,1.0618,1.0618,1.0996,1.1747,1.2613,1.3147,1.339,1.3329,1.313,1.2597,1.1934,1.131,1.0933,1.0555,1.0174,1.0238,1.0443,1.0719,1.0955,1.119,1.1321,1.1623,1.2009,1.2296,1.2659,1.3021,1.3308,1.3656,1.397,1.397,1.3768,1.3564,1.3346,1.2599,1.1905,1.1403,1.0514,0.995,0.995,1.0373,1.0912,1.1465,1.1861,1.2278,1.2837,1.2917,1.3235,1.3835,1.3559,1.3571,1.389,1.383,1.3769,1.3649,1.3528,1.2903,1.1732,1.1284,1.0869,1.0453,1.0031,0.9559,0.9123,0.9026,0.876,0.8421,0.809,0.7877,0.7676,0.702,0.61,0.5069,2.175,2.1374,2.0925,2.0201,1.9379,1.8643,1.7994,1.7749,1.7751,1.8049,1.8001,1.8025,1.7945,1.6422,1.5155,1.4503,1.4076,1.3641,1.3331,1.3169,1.3119,1.3117,1.2809,1.2713,1.2811,1.2402,1.2208,1.2182,1.1747,1.156,1.1685,1.1059,1.0807,1.0807,1.0681,1.0618,1.0618,1.0618,1.0618,1.0618,1.0618,1.0618,1.0618,1.0618,1.0618,1.0618,1.1059,1.1622,1.2182,1.2658,1.272,1.2597,1.2474,1.1981,1.1435,1.0933,1.0555,1.0238,0.9932,0.9856,0.9943,1.0514,1.0648,1.0704,1.1061,1.1075,1.1145,1.1674,1.2092,1.2409,1.2726,1.3042,1.3331,1.3331,1.3185,1.3127,1.3039,1.2599,1.1819,1.0431,0.9217,0.8492,0.8323,0.8857,0.9443,1.0047,1.0873,1.1564,1.2231,1.2514,1.2983,1.3619,1.3967,1.4268,1.4592,1.487,1.4899,1.4729,1.446,1.3609,1.2367,1.2027,1.148,1.0777,1.0338,0.987,0.9302,0.892,0.8546,0.819,0.7722,0.7182,0.6588,0.5991,0.5171,0.4291]}]]